[[{"header":{"parameterUnit":"m.s-1","parameterCategory":1,"la1":30.6,"la2":28.766,"lo1":-90.7593,"lo2":-88.6598,"dy":0.0162,"dx":0.0183,"nx":116,"ny":114,"refTime":"2024-01-31T18:00:00:Z","depth":0,"parameterNumber":2,"parameterNumberName":"U-component_of_WINDS"},"data":[0.0,0.0,0.0,0.0,0.0,0.0,0.0,0.0,0.0,0.0,0.0,0.0,0.0,0.0,0.0,0.0,0.0,0.0,0.0,0.0,0.0,0.0,0.0,0.0,0.0,0.0,0.0,0.0,0.0,0.0,0.0,0.0,0.0,0.0,0.0,0.0,0.0,0.0,0.0,0.0,0.0,0.0,0.0,0.0,0.0,0.0,0.0,0.0,0.0,0.0,0.0,0.0,0.0,0.0,0.0,0.0,0.0,0.0,0.0,0.0,0.0,0.0,0.0,0.0,0.0,0.0,0.0,0.0,0.0,0.0,0.0,0.0,0.0,0.0,0.0,0.0,0.0,0.0,0.0,0.0,0.0,0.0,0.0,0.0,0.0,0.0,0.0,0.0,0.0,0.0,0.0,0.0,0.0,0.0,0.0,0.0,0.0,0.0,0.0,0.0,0.0,0.0,0.0,0.0,0.0,0.0,0.0,0.0,0.0,0.0,0.0,0.0,0.0,0.0,0.0,0.0,0.0,0.0,0.0,0.0,0.0,0.0,0.0,0.0,0.0,0.0,0.0,0.0,0.0,0.0,0.0,0.0,0.0,0.0,0.0,0.0,0.0,0.0,0.0,0.0,0.0,0.0,0.0,0.0,0.0,0.0,0.0,0.0,0.0,0.0,0.0,0.0,0.0,0.0,0.0,0.0,0.0,0.0,0.0,0.0,0.0,0.0,0.0,0.0,0.0,0.0,0.0,0.0,0.0,0.0,0.0,0.0,0.0,0.0,0.0,0.0,0.0,0.0,0.0,0.0,0.0,0.0,0.0,0.0,0.0,0.0,0.0,0.0,0.0,0.0,0.0,0.0,0.0,0.0,0.0,0.0,0.0,0.0,0.0,0.0,0.0,0.0,0.0,0.0,0.0,0.0,0.0,0.0,0.0,0.0,0.0,0.0,0.0,0.0,0.0,0.0,0.0,0.0,0.0,0.0,0.0,0.0,0.0,0.0,0.0,0.0,0.0,0.0,0.0,0.0,0.0,0.0,0.0,0.0,0.0,0.0,0.0,0.0,0.0,0.0,0.0,0.0,0.0,0.0,0.0,0.0,0.0,0.0,0.0,0.0,0.0,0.0,0.0,0.0,0.0,0.0,0.0,0.0,0.0,0.0,0.0,0.0,0.0,0.0,0.0,0.0,0.0,0.0,0.0,0.0,0.0,0.0,0.0,0.0,0.0,0.0,0.0,0.0,0.0,0.0,0.0,0.0,0.0,0.0,0.0,0.0,0.0,0.0,0.0,0.0,0.0,0.0,0.0,0.0,0.0,0.0,0.0,0.0,0.0,0.0,0.0,0.0,0.0,0.0,0.0,0.0,0.0,0.0,0.0,0.0,0.0,0.0,0.0,0.0,0.0,0.0,0.0,0.0,0.0,0.0,0.0,0.0,0.0,0.0,0.0,0.0,0.0,0.0,0.0,0.0,0.0,0.0,0.0,0.0,0.0,0.0,0.0,0.0,0.0,0.0,0.0,0.0,0.0,0.0,0.0,0.0,0.0,0.0,0.0,0.0,0.0,0.0,0.0,0.0,0.0,0.0,0.0,0.0,0.0,0.0,0.0,0.0,0.0,0.0,0.0,0.0,0.0,0.0,0.0,0.0,0.0,0.0,0.0,0.0,0.0,0.0,0.0,0.0,0.0,0.0,0.0,0.0,0.0,0.0,0.0,0.0,0.0,0.0,0.0,0.0,0.0,0.0,0.0,0.0,0.0,0.0,0.0,0.0,0.0,0.0,0.0,0.0,0.0,0.0,0.0,0.0,0.0,0.0,0.0,0.0,0.0,0.0,0.0,0.0,0.0,0.0,0.0,0.0,0.0,0.0,0.0,0.0,0.0,0.0,0.0,0.0,0.0,0.0,0.0,0.0,0.0,0.0,0.0,0.0,0.0,0.0,0.0,0.0,0.0,0.0,0.0,0.0,0.0,0.0,0.0,0.0,0.0,0.0,0.0,0.0,0.0,0.0,0.0,0.0,0.0,0.0,0.0,0.0,0.0,0.0,0.0,0.0,0.0,0.0,0.0,0.0,0.0,0.0,0.0,0.0,0.0,0.0,0.0,0.0,0.0,0.0,0.0,0.0,0.0,0.0,0.0,0.0,0.0,0.0,0.0,0.0,0.0,0.0,0.0,0.0,0.0,0.0,0.0,0.0,0.0,0.0,0.0,0.0,0.0,0.0,0.0,0.0,0.0,0.0,0.0,0.0,0.0,0.0,0.0,0.0,0.0,0.0,0.0,0.0,0.0,0.0,0.0,0.0,0.0,0.0,0.0,0.0,0.0,0.0,0.0,0.0,0.0,0.0,0.0,0.0,0.0,0.0,0.0,0.0,0.0,0.0,0.0,0.0,0.0,0.0,0.0,0.0,0.0,0.0,0.0,0.0,0.0,0.0,0.0,0.0,0.0,0.0,0.0,0.0,0.0,0.0,0.0,0.0,0.0,0.0,0.0,0.0,0.0,0.0,0.0,0.0,0.0,0.0,0.0,0.0,0.0,0.0,0.0,0.0,0.0,0.0,0.0,0.0,0.0,0.0,0.0,0.0,0.0,0.0,0.0,0.0,0.0,0.0,0.0,0.0,0.0,0.0,0.0,0.0,0.0,0.0,0.0,0.0,0.0,0.0,0.0,0.0,0.0,0.0,0.0,0.0,0.0,0.0,0.0,0.0,0.0,0.0,0.0,0.0,0.0,0.0,0.0,0.0,0.0,0.0,0.0,0.0,0.0,0.0,0.0,0.0,0.0,0.0,0.0,0.0,0.0,0.0,0.0,0.0,0.0,0.0,0.0,0.0,0.0,0.0,0.0,0.0,0.0,0.0,0.0,0.0,0.0,0.0,0.0,0.0,0.0,0.0,0.0,0.0,0.0,0.0,0.0,0.0,0.0,0.0,0.0,0.0,0.0,0.0,0.0,0.0,0.0,0.0,0.0,0.0,0.0,0.0,0.0,0.0,0.0,0.0,0.0,0.0,0.0,0.0,0.0,0.0,0.0,0.0,0.0,0.0,0.0,0.0,0.0,0.0,0.0,0.0,0.0,0.0,0.0,0.0,0.0,0.0,0.0,0.0,0.0,0.0,0.0,0.0,0.0,0.0,0.0,0.0,0.0,0.0,0.0,0.0,0.0,0.0,0.0,0.0,0.0,0.0,0.0,0.0,0.0,0.0,0.0,0.0,0.0,0.0,0.0,0.0,0.0,0.0,0.0,0.0,0.0,0.0,0.0,0.0,0.0,0.0,0.0,0.0,0.0,0.0,0.0,0.0,0.0,0.0,0.0,0.0,0.0,0.0,0.0,0.0,0.0,0.0,0.0,0.0,0.0,0.0,0.0,0.0,0.0,0.0,0.0,0.0,0.0,0.0,0.0,0.0,0.0,0.0,0.0,0.0,0.0,0.0,0.0,0.0,0.0,0.0,0.0,0.0,0.0,0.0,0.0,0.0,0.0,0.0,0.0,0.0,0.0,0.0,0.0,0.0,0.0,0.0,0.0,0.0,0.0,0.0,0.0,0.0,0.0,0.0,0.0,0.0,0.0,0.0,0.0,0.0,0.0,0.0,0.0,0.0,0.0,0.0,0.0,0.0,0.0,0.0,0.0,0.0,0.0,0.0,0.0,0.0,0.0,0.0,0.0,0.0,0.0,0.0,0.0,0.0,0.0,0.0,0.0,0.0,0.0,0.0,0.0,0.0,0.0,0.0,0.0,0.0,0.0,0.0,0.0,0.0,0.0,0.0,0.0,0.0,0.0,0.0,0.0,0.0,0.0,0.0,0.0,0.0,0.0,0.0,0.0,0.0,0.0,0.0,0.0,0.0,0.0,0.0,0.0,0.0,0.0,0.0,0.0,0.0,0.0,0.0,0.0,0.0,0.0,0.0,0.0,0.0,0.0,0.0,0.0,0.0,0.0,0.0,0.0,0.0,0.0,0.0,0.0,0.0,0.0,0.0,0.0,0.0,0.0,0.0,0.0,0.0,0.0,0.0,0.0,0.0,0.0,0.0,0.0,0.0,0.0,0.0,0.0,0.0,0.0,0.0,0.0,0.0,0.0,0.0,0.0,0.0,0.0,0.0,0.0,0.0,0.0,0.0,0.0,0.0,0.0,0.0,0.0,0.0,0.0,0.0,0.0,0.0,0.0,0.0,0.0,0.0,0.0,0.0,0.0,0.0,0.0,0.0,0.0,0.0,0.0,0.0,0.0,0.0,0.0,0.0,0.0,0.0,0.0,0.0,0.0,0.0,0.0,0.0,0.0,0.0,0.0,0.0,0.0,0.0,0.0,0.0,0.0,0.0,0.0,0.0,0.0,0.0,0.0,0.0,0.0,0.0,0.0,0.0,0.0,0.0,0.0,0.0,0.0,0.0,0.0,0.0,0.0,0.0,0.0,0.0,0.0,0.0,0.0,0.0,0.0,0.0,0.0,0.0,0.0,0.0,0.0,0.0,0.0,0.0,0.0,0.0,0.0,0.0,0.0,0.0,0.0,0.0,0.0,0.0,0.0,0.0,0.0,0.0,0.0,0.0,0.0,0.0,0.0,0.0,0.0,0.0,0.0,0.0,0.0,0.0,0.0,0.0,0.0,0.0,0.0,0.0,0.0,0.0,0.0,0.0,0.0,0.0,0.0,0.0,0.0,0.0,0.0,0.0,0.0,0.0,0.0,0.0,0.0,0.0,0.0,0.0,0.0,0.0,0.0,0.0,0.0,0.0,0.0,0.0,0.0,0.0,0.0,0.0,0.0,0.0,0.0,0.0,0.0,0.0,0.0,0.0,0.0,0.0,0.0,0.0,0.0,0.0,0.0,0.0,0.0,0.0,0.0,0.0,0.0,0.0,0.0,0.0,0.0,0.0,0.0,0.0,0.0,0.0,0.0,0.0,0.0,0.0,0.0,0.0,0.0,0.0,0.0,0.0,0.0,0.0,0.0,0.0,0.0,0.0,0.0,0.0,0.0,0.0,0.0,0.0,0.0,0.0,0.0,0.0,0.0,0.0,0.0,0.0,0.0,0.0,0.0,0.0,0.0,0.0,0.0,0.0,0.0,0.0,0.0,0.0,0.0,0.0,0.0,0.0,0.0,0.0,0.0,0.0,0.0,0.0,0.0,0.0,0.0,0.0,0.0,0.0,0.0,0.0,0.0,0.0,0.0,0.0,0.0,0.0,0.0,0.0,0.0,0.0,0.0,0.0,0.0,0.0,0.0,0.0,0.0,0.0,0.0,0.0,0.0,0.0,0.0,0.0,0.0,0.0,0.0,0.0,0.0,0.0,0.0,0.0,0.0,0.0,0.0,0.0,0.0,0.0,0.0,0.0,0.0,0.0,0.0,0.0,0.0,0.0,0.0,0.0,0.0,0.0,0.0,0.0,0.0,0.0,0.0,0.0,0.0,0.0,0.0,0.0,0.0,0.0,0.0,0.0,0.0,0.0,0.0,0.0,0.0,0.0,0.0,0.0,0.0,0.0,0.0,0.0,0.0,0.0,0.0,0.0,0.0,0.0,0.0,0.0,0.0,0.0,0.0,0.0,0.0,0.0,0.0,0.0,0.0,0.0,0.0,0.0,0.0,0.0,0.0,0.0,0.0,0.0,0.0,0.0,0.0,0.0,0.0,0.0,0.0,0.0,0.0,0.0,0.0,0.0,0.0,0.0,0.0,0.0,0.0,0.0,0.0,0.0,0.0,0.0,0.0,0.0,0.0,0.0,0.0,0.0,0.0,0.0,0.0,0.0,0.0,0.0,0.0,0.0,0.0,0.0,0.0,0.0,0.0,0.0,0.0,0.0,0.0,0.0,0.0,0.0,0.0,0.0,0.0,0.0,0.0,0.0,0.0,0.0,0.0,0.0,0.0,0.0,0.0,0.0,0.0,0.0,0.0,0.0,0.0,0.0,0.0,0.0,0.0,0.0,0.0,0.0,0.0,0.0,0.0,0.0,0.0,0.0,0.0,0.0,0.0,0.0,0.0,0.0,0.0,0.0,0.0,0.0,0.0,0.0,0.0,0.0,0.0,0.0,0.0,0.0,0.0,0.0,0.0,0.0,0.0,0.0,0.0,0.0,0.0,0.0,0.0,0.0,0.0,0.0,6.8597,0.0,0.0,0.0,0.0,0.0,0.0,0.0,0.0,0.0,0.0,0.0,0.0,0.0,0.0,0.0,0.0,0.0,0.0,0.0,0.0,0.0,0.0,0.0,0.0,0.0,0.0,0.0,0.0,0.0,0.0,0.0,0.0,0.0,0.0,0.0,6.2805,6.3209,6.3649,6.409,6.4494,6.4897,6.5301,6.442,6.4016,6.4016,0.0,0.0,0.0,0.0,0.0,0.0,0.0,0.0,0.0,0.0,0.0,0.0,0.0,0.0,0.0,0.0,0.0,0.0,0.0,0.0,0.0,0.0,0.0,0.0,0.0,0.0,0.0,0.0,0.0,0.0,0.0,0.0,0.0,0.0,0.0,0.0,0.0,0.0,0.0,0.0,0.0,0.0,0.0,0.0,0.0,0.0,0.0,0.0,0.0,0.0,0.0,0.0,0.0,0.0,0.0,0.0,0.0,0.0,0.0,0.0,0.0,0.0,0.0,0.0,0.0,0.0,0.0,0.0,0.0,0.0,0.0,6.998,0.0,0.0,0.0,0.0,0.0,0.0,0.0,0.0,0.0,0.0,0.0,0.0,0.0,0.0,0.0,0.0,0.0,0.0,0.0,0.0,0.0,0.0,0.0,6.2805,6.2805,6.2805,6.2805,6.2805,0.0,0.0,0.0,0.0,0.0,6.3025,6.3025,6.387,6.4383,6.453,6.5338,6.5742,6.5742,6.5742,6.5742,6.5705,6.5448,0.0,0.0,0.0,0.0,0.0,0.0,0.0,0.0,0.0,0.0,0.0,0.0,0.0,0.0,0.0,0.0,0.0,0.0,0.0,0.0,0.0,0.0,0.0,0.0,0.0,0.0,0.0,0.0,0.0,0.0,0.0,0.0,0.0,0.0,0.0,0.0,0.0,0.0,0.0,0.0,0.0,0.0,0.0,0.0,0.0,0.0,0.0,0.0,0.0,0.0,0.0,0.0,0.0,0.0,0.0,0.0,0.0,0.0,0.0,0.0,0.0,0.0,0.0,7.1629,7.2078,7.2898,7.2936,7.2936,7.2898,7.205,7.1484,7.1171,0.0,0.0,0.0,0.0,0.0,0.0,0.0,0.0,0.0,0.0,0.0,0.0,0.0,0.0,0.0,0.0,0.0,0.0,0.0,0.0,0.0,0.0,6.2805,6.2805,6.2805,6.2805,6.2805,6.2805,0.0,6.2805,6.2805,6.3503,6.3906,6.3906,6.4751,6.5485,6.6182,6.699,6.7357,6.7357,6.7357,6.7357,6.732,6.5925,0.0,0.0,0.0,0.0,0.0,0.0,0.0,0.0,0.0,0.0,0.0,0.0,0.0,0.0,0.0,0.0,0.0,0.0,0.0,0.0,0.0,0.0,0.0,0.0,0.0,0.0,0.0,0.0,0.0,0.0,0.0,0.0,0.0,0.0,0.0,0.0,0.0,0.0,0.0,0.0,0.0,0.0,0.0,6.42,6.4897,0.0,0.0,0.0,0.0,0.0,0.0,0.0,0.0,0.0,0.0,0.0,0.0,0.0,7.0529,7.0723,7.1825,7.2389,7.2612,7.2643,7.2788,7.2898,7.3041,7.3073,7.3111,7.3795,0.0,7.2357,7.2243,0.0,0.0,0.0,0.0,0.0,0.0,0.0,0.0,0.0,0.0,0.0,0.0,0.0,0.0,0.0,0.0,0.0,0.0,0.0,0.0,0.0,6.2805,6.2805,6.2805,6.2805,6.2805,6.2805,6.2805,6.3025,6.3503,6.3906,6.431,6.4751,6.5558,6.6366,6.7173,6.7504,6.7687,6.7687,6.7687,6.7687,6.765,6.6953,6.6659,6.6659,6.6659,0.0,0.0,0.0,0.0,0.0,0.0,0.0,0.0,0.0,0.0,0.0,0.0,0.0,0.0,0.0,0.0,0.0,0.0,0.0,0.0,0.0,0.0,0.0,0.0,0.0,0.0,0.0,0.0,0.0,0.0,0.0,0.0,0.0,0.0,0.0,0.0,0.0,0.0,0.0,6.453,6.4897,6.5264,6.5705,6.5962,0.0,0.0,0.0,0.0,0.0,0.0,0.0,0.0,0.0,7.0691,7.1481,7.194,7.2124,7.2716,7.327,7.3827,7.3859,7.412,7.4612,7.4712,7.4712,7.4751,7.5165,7.4996,7.4418,7.4139,7.38,7.3439,0.0,0.0,0.0,0.0,7.3041,7.335,0.0,0.0,0.0,0.0,0.0,0.0,0.0,0.0,0.0,0.0,0.0,0.0,6.2805,6.2805,6.2805,6.2805,6.2805,6.2805,6.2805,6.3025,6.3429,6.4053,6.4494,6.4971,6.5595,6.6402,6.71,6.7687,6.7687,6.7687,6.7687,6.7687,6.7687,6.7687,6.7687,6.7687,6.7687,6.7687,6.7687,6.765,0.0,0.0,0.0,0.0,0.0,0.0,0.0,0.0,0.0,0.0,0.0,0.0,0.0,0.0,0.0,0.0,0.0,0.0,0.0,0.0,0.0,0.0,0.0,0.0,0.0,0.0,0.0,0.0,0.0,0.0,0.0,0.0,0.0,0.0,0.0,0.0,0.0,6.5632,6.5705,6.5888,6.6439,6.6806,0.0,0.0,0.0,0.0,0.0,0.0,7.0102,7.0608,7.1266,7.2157,7.2737,7.3143,7.339,7.3712,7.419,7.4965,7.4965,7.5302,7.6015,7.6015,7.6015,7.6015,7.6015,7.5985,7.5895,7.5566,7.5243,7.498,7.4699,7.4573,7.4577,7.4487,7.4657,7.498,0.0,0.0,0.0,0.0,0.0,0.0,0.0,0.0,0.0,0.0,0.0,6.2805,6.2805,6.2805,6.2805,6.2805,6.2805,6.2805,6.2805,6.3576,6.4053,6.409,6.5558,6.6402,6.6439,6.721,6.765,6.7687,6.7687,6.7687,6.7687,6.7687,6.7687,6.7687,6.7687,6.7687,6.7687,6.7687,6.7687,6.7687,6.765,0.0,0.0,0.0,0.0,0.0,0.0,0.0,0.0,0.0,0.0,0.0,0.0,0.0,0.0,0.0,0.0,0.0,0.0,0.0,0.0,0.0,0.0,0.0,0.0,0.0,0.0,0.0,0.0,0.0,0.0,0.0,0.0,0.0,0.0,0.0,0.0,0.0,0.0,6.7467,6.7614,0.0,0.0,0.0,0.0,6.9004,6.9901,7.0554,7.0809,7.1378,7.182,7.2195,7.3457,7.4193,7.4395,7.5387,7.5899,7.5938,7.5938,7.5938,7.6015,7.6015,7.6015,7.6015,7.6015,7.6015,7.5985,7.5794,7.5561,7.5351,7.5281,7.5171,7.5095,7.5208,7.5318,7.5386,0.0,0.0,0.0,0.0,0.0,0.0,0.0,0.0,6.2291,6.2381,6.2603,6.2805,6.2805,6.2805,6.2805,6.2805,6.2805,6.3062,6.3613,6.3906,6.4567,6.5595,6.6182,6.6733,6.7247,6.754,6.7687,6.7687,6.8201,6.8458,6.8495,6.9009,6.9229,6.9229,6.9229,6.9229,6.9155,6.8128,6.7687,6.7687,6.7687,6.7687,0.0,0.0,0.0,0.0,0.0,0.0,0.0,0.0,0.0,0.0,0.0,0.0,0.0,0.0,0.0,0.0,0.0,0.0,0.0,0.0,0.0,0.0,0.0,0.0,0.0,0.0,0.0,0.0,0.0,0.0,0.0,0.0,0.0,0.0,0.0,0.0,0.0,6.765,6.8164,0.0,6.8458,6.9192,6.9779,6.9958,7.048,7.1206,7.2257,7.2698,7.3338,7.4295,7.4847,7.5239,7.5372,7.5802,7.6015,7.6015,7.6015,7.6015,7.6015,7.6015,7.6015,7.6015,7.6015,7.6015,7.5976,7.5917,7.5826,7.5699,7.5566,7.5493,7.5493,7.5459,7.5599,7.5731,0.0,0.0,0.0,0.0,0.0,0.0,0.0,0.0,6.2238,6.2344,6.2603,6.2805,6.2805,6.2805,6.2805,6.2805,6.3062,6.3466,6.4053,6.4604,6.5375,6.6439,6.6769,6.7136,6.7687,6.7944,6.8091,6.8091,6.8898,6.9302,6.9339,6.9853,7.011,7.011,7.011,7.011,7.0036,6.8935,6.8495,6.8495,6.8201,6.8091,6.8091,0.0,0.0,0.0,0.0,0.0,0.0,0.0,0.0,0.0,0.0,0.0,0.0,0.0,0.0,0.0,0.0,0.0,0.0,0.0,0.0,0.0,0.0,0.0,0.0,0.0,0.0,0.0,0.0,0.0,0.0,0.0,0.0,0.0,0.0,0.0,6.8201,6.8458,6.8972,6.9302,6.9357,7.0092,7.0698,7.102,7.1501,7.2272,7.3439,7.3817,7.4409,7.5392,7.5599,7.5731,7.5895,7.5985,7.6015,7.6015,7.6015,7.6015,7.6015,7.6015,7.6015,7.6015,7.6015,7.6015,7.6015,7.6015,7.5985,7.5925,7.5763,7.5763,7.5826,7.5763,7.5794,7.5925,0.0,0.0,0.0,0.0,0.0,0.0,0.0,6.1804,6.2238,6.2381,6.2603,6.2805,6.2805,6.2805,6.2805,6.2842,6.3613,6.4127,6.4163,6.5632,6.6512,6.6549,6.7283,6.7687,6.7724,6.8495,6.8898,6.8935,6.9743,7.0146,7.0146,7.0146,7.0183,7.0183,7.0183,7.0183,7.0183,7.0183,7.0183,7.011,6.9265,6.8935,6.8862,0.0,0.0,0.0,0.0,0.0,0.0,0.0,0.0,0.0,0.0,0.0,0.0,0.0,0.0,0.0,0.0,0.0,0.0,0.0,0.0,0.0,0.0,0.0,0.0,0.0,0.0,0.0,0.0,0.0,0.0,0.0,0.0,0.0,6.8935,6.8935,6.9229,7.0,7.011,7.0202,7.033,7.1066,7.1763,7.2221,7.3043,7.3752,7.4305,7.4568,7.4897,7.532,7.5497,7.5699,7.5895,7.5985,7.6015,7.6015,7.6015,7.6015,7.6015,7.6015,7.6015,7.6053,7.6053,7.6053,7.6092,7.6092,7.6092,7.6092,7.6053,7.6053,7.6053,7.6053,7.6092,7.6092,0.0,0.0,0.0,0.0,0.0,0.0,0.0,6.1859,6.2291,6.25,6.2705,6.2805,6.2805,6.2805,6.3062,6.3686,6.3943,6.4604,6.5742,6.6256,6.6769,6.732,6.7577,0.0,6.8568,6.8788,6.9192,6.9779,7.0587,7.0991,7.0991,7.1578,7.1835,7.1835,7.1835,7.1835,7.1835,7.1835,7.1835,7.1725,7.033,6.9779,6.9743,0.0,0.0,0.0,0.0,0.0,0.0,0.0,0.0,0.0,0.0,0.0,0.0,0.0,0.0,0.0,0.0,0.0,0.0,0.0,0.0,0.0,0.0,0.0,0.0,0.0,0.0,0.0,0.0,0.0,0.0,0.0,6.9779,6.9779,6.9779,6.9779,6.9853,7.0073,7.0624,7.101,7.1177,7.1987,7.2684,7.3104,7.3639,7.4139,7.4702,7.5018,7.532,7.5699,7.5801,7.5864,7.5985,7.6015,7.6015,7.6015,7.6015,7.6015,7.6015,7.6015,7.6322,7.6938,7.6938,7.7284,7.7823,7.7823,7.7823,7.7746,7.7169,7.6938,7.7015,7.7592,7.7823,7.7823,0.0,0.0,0.0,0.0,0.0,0.0,0.0,6.1969,6.2344,6.2552,6.2705,6.2805,6.2805,6.2805,6.3172,6.4016,6.442,6.5154,6.6402,6.6806,6.721,6.765,0.0,6.8421,6.8898,6.9559,7.0146,7.0587,7.1431,7.1798,7.1835,7.2275,7.2496,7.2496,7.2496,7.2496,7.2496,7.2496,7.2496,7.2422,7.1468,7.0917,7.0587,7.022,6.9816,6.9412,6.9412,6.9082,6.8715,6.8715,0.0,0.0,0.0,0.0,0.0,0.0,0.0,0.0,0.0,0.0,0.0,0.0,0.0,0.0,0.0,0.0,0.0,0.0,0.0,0.0,0.0,0.0,0.0,0.0,7.0587,7.0734,7.1064,7.0807,7.0734,7.1064,7.1541,7.1855,7.2079,7.2704,7.3246,7.3703,7.4177,7.4615,7.5057,7.5281,7.5566,7.5895,7.5895,7.5925,7.6015,7.6361,7.6553,7.6553,7.6899,7.7053,7.7053,7.7053,7.7323,0.0,7.7784,7.8054,7.8477,7.8477,7.8477,0.0,0.0,0.0,0.0,0.0,7.8477,7.8477,0.0,0.0,0.0,0.0,0.0,0.0,0.0,6.2132,6.2449,6.2603,6.2705,6.2805,6.2805,6.2915,6.3282,6.4163,6.4971,6.5778,6.6586,6.7283,6.7724,6.7834,6.8531,6.8972,6.9192,7.0587,7.1358,7.1468,7.2165,7.2496,7.2496,7.2496,7.2496,7.2496,7.2496,7.2496,7.2496,7.2496,7.2496,7.2496,7.2496,7.2092,7.1358,7.0624,7.0293,7.022,7.022,7.0183,7.011,7.011,0.0,0.0,0.0,0.0,0.0,0.0,0.0,0.0,0.0,0.0,0.0,0.0,0.0,0.0,0.0,0.0,0.0,0.0,0.0,0.0,0.0,0.0,0.0,0.0,7.1468,7.1688,7.2422,7.1908,7.1725,7.2422,7.2496,7.2667,7.2982,7.3231,7.3553,7.4122,7.4573,7.498,7.532,0.0,0.0,0.0,0.0,7.6148,7.6284,7.7053,7.7438,7.7438,7.8169,7.8477,7.8477,7.8477,7.8554,7.8631,7.8631,7.8707,7.8784,7.8784,7.8784,7.8784,7.8669,7.8707,7.8784,7.8784,7.8784,0.0,0.0,0.0,0.0,0.0,0.0,0.0,0.0,6.2168,6.2449,6.2603,6.2705,6.2805,6.2805,6.3429,6.4163,6.5007,6.5815,6.6623,6.7393,6.7614,6.7981,6.8641,6.8825,6.9522,7.0807,7.1138,7.1651,7.2275,7.2422,7.2496,7.2496,7.2496,7.2496,7.2496,7.2496,7.2496,7.2496,7.2496,7.2496,7.2496,7.2496,7.2422,7.2275,7.2092,7.1651,7.1064,7.1064,7.066,7.011,7.011,7.0,6.9853,6.9853,6.9743,0.0,0.0,0.0,0.0,0.0,0.0,0.0,0.0,0.0,0.0,0.0,0.0,0.0,0.0,0.0,0.0,0.0,0.0,0.0,7.2239,7.2275,7.2312,7.2496,7.2386,7.2349,7.2496,7.261,7.2779,7.3071,7.3401,7.3848,7.435,7.4781,7.517,7.5532,7.5699,7.6202,7.6985,7.7024,7.7361,7.8015,7.8169,7.8246,7.8246,0.0,0.0,7.8477,7.8477,7.8861,7.9554,7.9554,7.9939,8.0592,8.0592,8.0592,8.0516,7.9823,7.9977,8.0592,8.0592,8.0592,8.0592,0.0,0.0,0.0,0.0,0.0,0.0,0.0,6.2132,6.2449,6.2603,6.2705,6.2805,6.2805,6.3576,6.442,6.5228,6.6402,6.7247,6.765,6.7687,6.8054,6.8862,6.9302,7.0073,7.1284,7.1688,7.2092,7.2496,7.2496,7.2496,7.2496,7.2496,7.2496,7.2496,7.2496,7.2496,7.2496,7.2496,7.2496,7.2496,7.2496,7.2496,7.2496,7.2496,7.2275,7.1908,7.1908,7.1651,7.1284,7.1284,7.1027,7.0697,7.0697,7.044,7.011,0.0,0.0,0.0,0.0,0.0,0.0,0.0,0.0,0.0,0.0,0.0,0.0,0.0,0.0,7.1908,7.1908,0.0,7.2496,7.2496,7.2496,7.2496,7.2496,7.2496,7.2496,7.2496,7.261,7.2835,7.3071,7.3604,7.4131,7.4611,7.5475,7.6109,7.6344,7.6893,7.7447,7.79,7.79,7.8092,7.8477,7.8938,7.9131,7.9169,7.9592,8.0015,8.04,8.04,8.0862,8.1708,8.1708,8.1939,8.2362,8.2362,8.2362,8.2324,8.1862,8.1477,8.1131,8.1554,8.1708,8.1747,0.0,0.0,0.0,0.0,0.0,0.0,0.0,6.1933,6.2344,6.25,6.2705,6.2805,6.2805,6.3723,6.4714,6.5668,6.6953,6.7687,6.7687,6.7687,6.8128,6.9082,6.9743,7.055,7.1541,7.2165,7.2496,7.2496,7.2496,7.2496,7.2496,7.2496,7.2496,7.2496,7.2496,7.2496,7.2496,7.2496,7.2496,7.2496,7.2496,7.2496,7.2496,7.2496,7.2496,7.2496,7.2496,7.2496,7.2496,7.2496,7.2092,7.1541,7.1541,7.1101,7.055,7.055,7.055,0.0,0.0,0.0,0.0,0.0,0.0,0.0,0.0,7.2055,7.2496,7.2496,7.2496,7.2496,7.2496,7.2496,7.2496,7.2496,7.2496,7.2496,7.2496,7.2496,7.2496,7.2553,7.2667,7.2908,7.3193,7.395,7.4582,7.5087,7.6348,7.7198,7.7354,7.81,7.8592,7.8746,7.8746,7.89,7.9246,7.9939,8.0362,8.0554,8.1246,8.1939,8.2554,8.2554,8.2939,8.3593,8.3593,8.3593,8.3593,8.3593,8.3593,8.3593,8.3593,8.2747,8.167,8.2324,8.2554,8.2631,0.0,0.0,0.0,0.0,0.0,0.0,0.0,0.0,6.2078,6.2238,6.2552,6.2805,6.2805,6.4237,6.5778,6.7283,6.7577,6.7687,6.7687,6.7687,6.8385,6.9889,7.0036,7.0807,7.2349,7.2459,7.2496,7.2496,7.2496,7.2496,7.2496,7.2496,7.2496,7.2496,7.2496,7.2496,7.2496,7.2496,7.2496,7.2496,7.2496,7.2496,7.2496,7.2496,7.2496,7.2496,7.2496,7.2496,7.2496,7.2496,7.2459,7.2386,7.2386,7.2312,7.2239,7.2239,7.2239,7.2239,7.2239,7.2239,7.2239,7.2239,7.2312,7.2386,0.0,7.2459,7.2496,7.2496,7.2496,7.2496,7.2496,7.2496,7.2496,7.2496,7.2496,7.2496,7.2496,7.2496,7.2553,7.2667,7.2908,7.3193,7.3604,7.4769,7.5712,7.6198,7.7299,7.8041,7.8238,7.8408,7.8861,7.9631,7.9669,8.0362,8.1862,8.1977,8.2401,8.317,8.3247,8.3362,8.3439,8.3439,8.3516,8.3593,8.3593,8.3593,8.3593,8.3593,8.3593,8.3593,8.3593,8.3478,8.3324,8.3401,8.3439,8.3478,0.0,0.0,0.0,0.0,0.0,0.0,0.0,0.0,0.0,6.2132,6.2552,6.2805,6.2805,6.431,6.5962,6.754,6.7687,6.7687,6.7687,6.7687,6.8421,7.0036,7.011,7.0844,7.2459,7.2496,7.2496,7.2496,7.2496,7.2496,7.2496,7.2496,7.2496,7.2496,7.2496,7.2496,7.2496,7.2496,7.2496,7.2496,7.2496,7.2496,7.2496,7.2496,7.2496,7.2496,7.2496,7.2496,0.0,7.2496,7.2496,7.2496,7.2496,7.2496,7.2496,7.2496,7.2496,7.2496,7.2496,7.2496,7.2496,7.2496,7.2496,7.2496,7.2496,7.2496,7.2496,7.2496,7.2496,7.2496,7.2496,7.2496,7.2496,7.2496,7.2496,7.2496,7.2496,7.2496,7.261,7.2835,7.3623,7.4197,7.4511,7.5283,7.6221,7.7188,7.8282,7.9023,7.9184,8.0138,8.0862,8.1246,8.1747,8.2362,8.3054,8.3054,8.3247,8.3593,8.3593,8.3862,8.4362,8.4362,8.4593,8.5055,8.5055,8.5055,8.5055,8.5055,8.5055,8.5055,8.5055,8.5055,8.5016,8.4516,8.4362,8.4439,0.0,0.0,0.0,0.0,0.0,0.0,0.0,0.0,0.0,0.0,6.2552,6.2989,6.3466,6.4567,6.5962,6.754,6.7687,6.7687,6.7687,6.7907,6.8641,7.0036,7.0293,7.1101,7.2459,7.2496,7.2496,7.2496,7.2496,7.2496,7.2496,7.2496,7.2496,7.2496,7.2496,7.2496,7.2496,7.2496,7.2496,7.2496,7.2496,7.2496,7.2496,7.2496,7.2496,7.2496,7.2496,7.2496,7.2496,7.2496,7.2496,7.2496,7.2496,7.2496,7.2496,7.2496,7.2496,7.2496,7.2496,7.2496,7.2496,7.2496,7.2496,7.2496,7.2496,7.2496,7.2496,7.2496,7.2496,7.2496,7.2496,7.2496,7.2496,7.2496,7.2496,7.2496,7.2496,7.2773,7.3035,7.3369,7.4465,7.5384,7.5962,7.6457,7.7184,7.825,7.9497,8.0317,8.0477,8.1862,8.267,8.267,8.3247,8.3708,8.3939,8.3939,8.4055,8.4286,8.4286,8.4632,8.5247,8.5478,8.6055,8.6824,8.6824,8.6824,8.6824,8.6824,8.6824,8.6824,8.6824,8.6824,8.6748,8.617,8.5632,8.5324,0.0,0.0,0.0,0.0,0.0,0.0,0.0,0.0,0.0,0.0,0.0,0.0,0.0,6.5264,6.5962,6.754,6.7687,6.7687,6.7687,6.8421,6.9229,7.0073,7.0844,7.1651,7.2496,7.2496,7.2496,7.2496,7.2496,7.2496,7.2496,7.2496,7.2496,7.2496,7.2496,7.2496,7.2496,7.2496,7.2496,7.2496,7.2496,7.2496,7.2496,7.2496,7.2496,7.2496,7.2496,7.2496,7.2496,7.2496,7.2496,7.2496,7.2496,7.2496,7.2496,7.2496,7.2496,7.2496,7.2496,7.2496,7.2496,7.2496,7.2496,7.2496,7.2496,7.2496,7.2496,7.2496,7.2496,7.2496,7.2496,7.2496,7.2496,7.2496,7.2496,7.2496,7.2496,7.3309,7.4052,7.4347,7.5425,7.6717,7.8164,7.8584,7.8981,7.9351,8.1057,8.215,8.2208,8.3054,8.3555,8.3555,8.3593,8.4016,8.4863,8.4863,8.5247,8.6017,8.6017,8.6055,8.6094,8.694,8.7786,8.8632,8.8632,8.8632,8.8632,8.8632,8.8632,8.8632,8.8632,8.8632,8.8632,8.8594,8.7517,8.6055,0.0,0.0,0.0,0.0,0.0,0.0,0.0,0.0,0.0,0.0,0.0,0.0,0.0,0.0,0.0,0.0,6.7687,6.7687,6.7687,6.8458,6.9265,7.0073,7.0881,7.1688,7.2496,7.2496,7.2496,7.2496,7.2496,7.2496,7.2496,7.2496,7.2496,7.2496,7.2496,7.2496,7.2496,7.2496,7.2496,7.2496,7.2496,7.2496,7.2496,7.2496,7.2496,7.2496,0.0,7.2496,7.2496,7.2496,7.2496,7.2496,7.2496,7.2496,7.2496,7.2496,7.2496,7.2496,7.2496,7.2496,7.2496,7.2496,7.2496,7.2496,7.2496,7.2496,7.2496,7.2496,7.2496,7.2496,7.2496,7.2496,7.2496,7.2496,7.2496,7.2737,7.3382,7.3848,7.4497,7.5357,7.6618,7.7655,7.8447,0.0,0.0,8.1068,8.182,8.2457,8.3131,8.3978,8.4478,8.4478,8.4978,8.5401,8.5709,8.6286,8.6709,8.6978,8.7555,8.7825,8.7825,8.8132,8.8402,8.8709,8.8709,8.8709,8.8709,8.8709,8.8709,8.8709,8.8709,8.8709,8.8709,8.8709,8.8325,8.7825,0.0,0.0,0.0,0.0,0.0,0.0,0.0,0.0,0.0,0.0,0.0,0.0,0.0,0.0,0.0,0.0,0.0,6.7687,6.7687,6.8715,6.9559,7.0073,7.1138,7.1982,7.2496,7.2496,7.2496,7.2496,7.2496,7.2496,7.2496,7.2496,7.2496,7.2496,7.2496,7.2496,7.2496,7.2496,7.2496,7.2496,7.2496,7.2496,7.2496,7.2496,7.2496,0.0,7.2496,7.2496,7.2496,7.2496,7.2496,7.2496,7.2496,7.2496,7.2496,7.2496,7.2496,7.2496,7.2496,7.2496,7.2496,7.2496,7.2496,7.2496,7.2496,7.2496,7.2496,7.2496,7.2496,7.2496,7.2496,7.2496,7.2606,7.2899,7.2936,7.3288,7.4306,7.4809,7.5476,7.6439,7.7775,7.8882,7.9613,7.9895,0.0,8.1981,8.277,8.3413,8.4016,8.4863,8.5324,8.5324,8.6132,8.6555,8.6555,8.744,8.7863,8.7863,8.844,8.8863,8.9133,8.9133,8.9286,8.9594,8.9594,8.9594,8.9594,8.9594,8.9594,8.9594,8.9594,8.9594,8.9594,8.9594,8.9594,8.9517,0.0,0.0,0.0,0.0,0.0,0.0,0.0,0.0,0.0,0.0,0.0,0.0,0.0,0.0,0.0,0.0,0.0,0.0,6.7687,6.9192,7.011,7.011,7.1651,7.2496,7.2496,7.2496,7.2496,7.2496,7.2496,7.2496,7.2496,7.2496,7.2496,7.2496,7.2496,7.2496,7.2496,7.2496,7.2496,7.2496,7.2496,7.2496,7.2496,7.2496,7.2496,7.2496,7.2496,7.2496,7.2496,7.2496,7.2496,7.2496,7.2496,7.2496,7.2496,7.2496,7.2496,7.2496,7.2496,7.2496,7.2496,7.2496,7.2496,7.2496,7.2496,7.2496,7.2496,7.2496,7.2496,7.2496,7.2569,7.2569,7.2826,7.3634,7.3744,7.4096,7.5117,7.6178,7.7013,7.7642,7.8879,8.0206,8.1498,0.0,0.0,8.2246,0.0,8.4939,8.4978,8.5747,8.617,8.617,8.7017,8.7478,8.7478,8.8325,8.8786,8.8825,8.8825,8.9248,8.9979,8.9979,9.0441,9.121,9.121,9.121,9.121,9.121,9.121,9.121,9.121,9.121,9.121,9.121,9.121,9.0979,0.0,0.0,0.0,0.0,0.0,0.0,0.0,0.0,0.0,0.0,0.0,0.0,0.0,0.0,0.0,0.0,0.0,0.0,6.7687,6.9192,7.011,7.011,7.1651,7.2496,7.2496,7.2496,7.2496,7.2496,7.2496,7.2496,7.2496,7.2496,7.2496,7.2496,7.2496,7.2496,7.2496,7.2496,7.2496,7.2496,7.2496,7.2496,7.2496,7.2496,7.2496,7.2496,7.2496,7.2496,7.2496,7.2496,7.2496,7.2496,7.2496,7.2496,7.2496,7.2496,7.2496,7.2496,7.2496,7.2496,7.2496,7.2496,7.2496,7.2496,7.2496,7.2496,7.2496,7.2496,7.2496,7.2679,7.3266,7.3377,7.367,7.4478,7.4588,7.5,7.608,7.6681,7.7415,7.8628,0.0,8.1064,8.1691,8.3134,0.0,0.0,8.4566,8.517,8.5747,8.6594,8.7055,8.7055,8.7902,8.8363,8.8363,8.9171,8.994,9.0556,9.0556,9.0671,9.0864,9.0864,9.0979,9.121,9.121,9.121,9.121,9.121,9.121,9.121,9.121,9.121,9.121,9.121,9.121,9.1133,0.0,0.0,0.0,0.0,0.0,0.0,0.0,0.0,0.0,0.0,0.0,0.0,0.0,0.0,0.0,0.0,0.0,0.0,0.0,6.8862,6.9743,7.0073,7.1321,7.2165,7.2496,7.2496,7.2496,7.2496,7.2496,7.2496,7.2496,7.2496,7.2496,7.2496,7.2496,7.2496,7.2496,7.2496,7.2496,0.0,0.0,7.2496,7.2496,7.2496,7.2496,7.2496,7.2496,7.2496,7.2496,7.2496,7.2496,7.2496,7.2496,7.2496,7.2496,7.2496,7.2496,7.2496,7.2496,7.2496,7.2496,7.2496,7.2496,7.2496,7.2496,7.2789,7.3046,7.3046,7.3303,7.3707,7.4147,7.4221,7.4478,7.5322,7.5432,7.5845,7.695,7.7367,7.8117,7.965,8.0731,8.1761,8.2912,8.4122,8.5104,0.0,8.5945,8.6209,8.6632,8.7478,8.7979,8.7979,8.8786,8.9402,8.9787,9.0248,9.071,9.121,9.121,9.121,9.121,9.121,9.121,9.121,0.0,9.121,9.121,9.121,9.121,9.121,9.121,9.121,9.121,9.121,9.121,9.121,0.0,0.0,0.0,0.0,0.0,0.0,0.0,0.0,0.0,0.0,0.0,0.0,0.0,0.0,0.0,0.0,0.0,0.0,0.0,0.0,0.0,7.0073,7.0881,7.1688,7.2496,7.2496,7.2496,7.2496,7.2496,7.2496,7.2496,7.2496,7.2496,7.2496,7.2496,7.2496,7.2496,7.2496,7.2496,7.2496,7.2496,7.2496,7.2496,0.0,7.2496,7.2496,7.2496,7.2496,7.2496,7.2496,7.2496,7.2496,7.2496,7.2496,7.2496,7.2496,7.2496,7.2496,7.2496,7.2496,7.2496,7.2496,7.2569,7.2679,7.2679,7.3266,7.3854,7.3854,7.4404,7.4955,7.5065,7.5065,7.5322,7.613,7.6276,7.6617,7.7651,7.8145,7.8991,8.0547,8.1312,8.2491,8.4399,8.4993,8.5824,8.7286,8.7594,8.7671,8.7594,8.8402,8.8902,8.9017,8.971,9.0441,9.121,9.121,9.121,9.121,9.121,9.121,9.121,9.121,9.121,9.121,0.0,0.0,9.121,9.121,9.121,9.121,9.121,9.121,9.121,9.121,9.121,9.121,0.0,0.0,0.0,0.0,0.0,0.0,0.0,0.0,0.0,0.0,6.3838,6.4913,0.0,0.0,0.0,0.0,0.0,0.0,0.0,0.0,0.0,7.0073,7.0881,7.1688,7.2496,7.2496,7.2496,7.2496,7.2496,7.2496,7.2496,7.2496,7.2496,7.2496,7.2496,7.2496,7.2496,7.2496,7.2496,7.2496,7.2496,7.2496,7.2496,7.2496,0.0,0.0,7.2496,7.2496,7.2496,7.2496,7.2496,7.2496,7.2496,7.2496,7.2496,7.2496,7.2496,7.2496,7.2496,7.2496,7.2496,7.2496,7.301,7.3487,7.3487,7.4111,7.4698,7.4698,7.4808,7.5102,7.5763,7.5909,7.6166,7.6974,7.7121,7.7279,7.7725,7.874,7.9732,8.0585,8.2423,8.3906,8.4514,8.6031,0.0,0.0,8.8671,8.9171,8.8517,8.9248,9.0017,9.0748,9.0902,9.1056,9.121,9.121,9.121,9.121,9.121,9.121,9.121,9.121,9.121,9.121,9.121,0.0,9.121,9.121,9.121,9.121,9.121,9.121,9.121,9.121,9.121,9.121,0.0,0.0,0.0,0.0,0.0,0.0,0.0,0.0,6.3428,6.4416,6.5095,6.5769,6.6439,6.721,0.0,0.0,0.0,0.0,0.0,0.0,0.0,0.0,0.0,0.0,7.2459,7.2496,7.2496,7.2496,0.0,7.2496,7.2496,7.2496,7.2496,7.2496,7.2496,7.2496,7.2496,7.2496,7.2496,7.2496,7.2496,7.2496,7.2496,0.0,0.0,0.0,7.2496,7.2496,7.2496,7.2496,7.2496,7.2496,7.2496,7.2496,7.2496,7.2496,7.2496,7.2496,7.2496,7.2826,7.312,7.312,7.3744,7.4331,7.4331,7.4955,7.5542,7.5542,7.5873,7.6276,7.668,7.6717,7.6864,7.7268,7.7304,7.7426,7.7842,7.8945,8.0174,8.1376,8.3041,8.4594,8.5813,8.6834,8.7748,8.8632,8.944,8.9748,8.9363,9.0133,9.0787,9.121,9.121,9.121,9.121,9.121,9.121,9.121,9.121,9.121,9.121,9.121,9.121,9.121,9.121,0.0,9.121,9.121,9.121,9.121,9.121,9.121,9.1248,9.171,9.1864,9.1941,0.0,0.0,0.0,0.0,0.0,0.0,0.0,6.3546,6.4446,6.5654,6.6299,6.6626,6.6769,6.732,6.7687,0.0,0.0,0.0,0.0,0.0,0.0,0.0,0.0,0.0,0.0,0.0,0.0,7.2496,7.2496,0.0,0.0,0.0,0.0,0.0,7.2496,7.2496,7.2496,7.2496,7.2496,0.0,0.0,7.2496,0.0,0.0,0.0,0.0,0.0,7.2496,7.2496,7.2496,7.2496,7.2496,7.2496,7.2496,7.2496,7.2496,7.2606,7.2753,7.2753,7.334,7.3964,7.3964,7.4551,7.5175,7.5175,7.5799,7.635,7.635,7.6864,7.7304,7.7304,7.7304,7.7304,7.7304,7.7304,7.75,7.8122,7.9224,8.0601,8.2263,8.3768,8.536,8.7,8.7641,8.8479,8.9825,9.0094,9.0171,9.0171,9.0825,9.121,9.121,9.121,9.121,9.121,9.121,9.121,9.121,9.121,9.121,9.121,9.121,9.121,9.121,9.121,0.0,0.0,9.1479,9.1595,9.1748,9.1748,9.1748,9.1825,9.2479,9.2749,9.2864,0.0,0.0,0.0,0.0,0.0,0.0,0.0,6.4291,6.533,6.5727,6.6829,6.7577,6.7577,6.765,6.7687,0.0,0.0,0.0,0.0,0.0,0.0,0.0,0.0,0.0,0.0,0.0,0.0,7.2496,7.2496,0.0,0.0,0.0,0.0,0.0,0.0,7.2496,7.2496,7.2496,0.0,0.0,0.0,0.0,0.0,0.0,0.0,0.0,0.0,7.2496,7.2496,7.2496,7.2496,7.2496,7.2496,7.2496,7.2496,7.2496,7.301,7.3597,7.3597,7.4184,7.4808,7.4808,7.5395,7.5983,7.5983,7.6607,7.7194,7.7194,7.7268,7.7304,7.7304,7.7304,7.7304,7.7304,7.7304,7.7684,7.8781,8.0135,8.1462,8.2858,8.5138,8.6699,8.7081,8.8644,8.9748,8.9902,9.0633,9.1095,9.1095,9.1171,9.121,9.121,9.121,9.121,9.121,9.121,9.121,9.121,9.121,9.121,9.121,9.121,9.121,9.121,9.121,0.0,0.0,9.2364,9.2826,9.348,9.348,9.348,9.348,9.3557,9.3595,9.3595,0.0,0.0,0.0,0.0,0.0,0.0,0.0,6.5671,6.6301,6.6736,6.7341,6.7687,6.7687,6.7687,6.7687,0.0,0.0,0.0,0.0,0.0,0.0,0.0,0.0,0.0,0.0,0.0,7.2496,7.2496,7.2496,0.0,0.0,0.0,0.0,0.0,0.0,7.2496,7.2496,7.2496,0.0,0.0,0.0,0.0,0.0,0.0,0.0,0.0,0.0,0.0,7.2496,7.2496,7.2496,7.2569,7.3083,7.323,7.323,7.323,7.378,7.4441,7.4441,7.5028,7.5616,7.5616,7.624,7.6827,7.6827,7.7084,7.7304,7.7304,7.7304,7.7304,7.7304,7.7304,7.7304,7.7304,7.7745,7.8309,7.8988,8.0599,8.2083,8.3095,8.5203,8.6882,8.7658,8.9033,9.0063,9.0633,9.1018,9.121,9.121,9.121,9.121,9.121,9.121,9.121,9.121,9.121,9.121,9.121,9.121,9.121,9.121,9.1748,9.1979,9.2018,9.2479,0.0,0.0,9.321,9.3403,9.371,9.371,9.371,9.3749,9.4287,9.448,9.4557,0.0,0.0,0.0,0.0,0.0,6.6146,6.6416,6.6655,6.704,6.7414,6.7633,6.7687,6.7687,6.7687,6.7687,6.7687,0.0,0.0,0.0,0.0,0.0,0.0,0.0,0.0,0.0,0.0,7.2496,7.2496,7.2496,7.2496,0.0,0.0,7.2496,7.2496,0.0,0.0,0.0,0.0,0.0,0.0,0.0,0.0,0.0,0.0,0.0,0.0,0.0,0.0,0.0,0.0,0.0,7.2642,7.345,7.3854,7.4037,7.4037,7.4625,7.5249,7.5249,7.5836,7.646,7.646,7.69,7.7304,7.7304,7.7304,7.7304,7.7304,7.7304,7.7304,7.7304,7.7524,7.7708,7.7708,7.8405,7.9179,7.9786,8.1137,8.2553,8.3764,8.5645,8.7214,8.8382,8.9534,9.0449,9.1171,9.121,9.121,9.121,9.121,9.121,9.121,9.121,9.121,9.121,9.121,9.1325,9.1595,9.1595,9.171,9.1979,9.2595,9.2864,9.2903,9.3441,0.0,0.0,9.4057,9.4249,9.448,9.448,9.448,9.4557,9.5172,9.5365,9.548,0.0,0.0,0.0,0.0,0.0,0.0,0.0,6.7097,6.7266,6.747,6.7633,6.7687,6.7687,6.7687,6.7687,6.7687,0.0,0.0,0.0,0.0,0.0,0.0,0.0,0.0,0.0,0.0,7.2496,7.2496,7.2496,7.2496,7.2496,7.2496,7.2496,7.2496,0.0,0.0,0.0,0.0,0.0,0.0,0.0,0.0,0.0,0.0,0.0,0.0,0.0,0.0,0.0,0.0,0.0,0.0,0.0,7.4258,7.4918,7.4918,7.5469,7.6093,7.6093,7.668,7.7304,7.7304,7.7304,7.7304,7.7304,7.7304,7.7304,7.7304,7.7304,7.7304,7.7304,7.8002,7.8589,7.8589,7.925,8.0184,8.1329,8.1822,8.2892,8.5131,8.672,8.8129,8.9176,9.0302,9.1064,9.121,9.121,0.0,9.121,9.121,9.121,9.121,9.121,9.121,9.121,9.121,9.1633,9.2479,9.2479,9.2903,9.3672,9.3672,9.3672,9.3672,0.0,0.0,0.0,9.498,9.548,9.6288,9.6288,9.6288,9.6288,9.6288,9.6288,9.6288,0.0,0.0,0.0,0.0,0.0,0.0,0.0,6.7359,6.747,6.7633,6.7687,6.7687,6.7687,6.7687,6.7687,6.7687,0.0,0.0,0.0,0.0,0.0,0.0,0.0,0.0,0.0,0.0,0.0,7.2496,7.2496,7.2496,7.2496,7.2496,7.2496,7.2496,7.2496,7.2496,0.0,0.0,0.0,0.0,0.0,0.0,0.0,0.0,0.0,0.0,0.0,0.0,0.0,0.0,0.0,0.0,0.0,0.0,0.0,7.6387,7.6754,7.6937,7.6937,7.7121,7.7304,7.7304,7.7304,7.7304,7.7304,7.7304,7.7304,7.7304,7.7304,7.7488,7.8075,7.8405,7.8772,7.9323,8.0184,8.0997,8.1525,8.2516,8.3675,8.5282,8.7289,8.9049,0.0,0.0,9.0991,9.121,9.121,9.121,9.121,9.121,9.121,9.121,9.121,9.1479,9.2095,9.2095,9.2479,9.3326,9.3326,9.3441,9.371,9.4326,9.4595,0.0,0.0,0.0,0.0,9.5903,9.6057,9.6288,9.6288,9.6288,9.6288,9.6288,9.6288,9.6288,0.0,0.0,0.0,0.0,0.0,0.0,0.0,6.7579,6.7579,6.7687,6.7687,6.7687,6.7687,6.7687,6.7687,6.7687,0.0,0.0,0.0,0.0,0.0,0.0,0.0,0.0,0.0,0.0,7.2496,7.2496,7.2496,7.2496,7.2496,7.2496,7.2496,7.2496,7.2496,7.2496,0.0,0.0,0.0,0.0,0.0,0.0,7.2496,0.0,0.0,0.0,0.0,0.0,0.0,0.0,0.0,0.0,0.0,0.0,0.0,0.0,7.7304,7.7304,7.7304,7.7304,7.7304,7.7304,7.7304,7.7304,7.7304,7.7304,7.7414,7.7745,7.7818,7.8075,7.8883,7.9286,7.9653,8.0167,8.1029,8.1796,8.2186,8.3321,8.4808,8.6641,8.8478,0.0,0.0,9.0915,9.0991,9.121,9.121,0.0,9.121,9.1518,9.171,9.171,9.171,9.1941,9.2479,9.2787,9.3364,9.4172,9.4172,9.4364,9.4711,9.5249,9.548,0.0,0.0,0.0,0.0,9.6288,9.6288,9.6288,9.6288,9.648,9.6749,9.6749,9.698,9.725,0.0,0.0,0.0,0.0,0.0,0.0,0.0,0.0,0.0,6.7687,6.7687,6.7687,6.7687,6.7687,6.7687,6.7687,0.0,0.0,0.0,0.0,0.0,0.0,0.0,0.0,0.0,7.1688,7.2496,7.2496,7.2496,7.2496,7.2496,7.2496,7.2496,7.2496,7.2496,7.2496,0.0,0.0,0.0,0.0,7.2496,7.2496,0.0,0.0,0.0,0.0,0.0,0.0,0.0,0.0,0.0,0.0,0.0,0.0,0.0,0.0,0.0,0.0,0.0,7.7304,7.7304,7.7304,7.7304,7.7341,7.7414,7.7414,0.0,0.0,0.0,7.8919,7.9727,8.0498,8.1012,8.1085,8.1865,8.2659,8.3121,8.4386,0.0,0.0,9.0061,0.0,9.0952,9.0989,9.1064,9.121,0.0,0.0,9.1287,9.2056,9.2518,9.2595,9.2633,9.2672,9.2672,9.3403,9.421,9.5095,9.5095,9.5518,9.6288,9.6288,9.6288,0.0,0.0,0.0,0.0,9.6365,9.6403,9.6403,9.6442,9.6942,9.7596,9.7596,9.8096,9.8788,0.0,0.0,0.0,0.0,0.0,0.0,0.0,0.0,0.0,0.0,6.7687,6.7687,6.7687,6.7687,6.7687,0.0,0.0,0.0,0.0,0.0,0.0,0.0,0.0,0.0,0.0,7.1688,7.2496,7.2496,7.2496,7.2496,7.2496,7.2496,7.2496,7.2496,7.2496,0.0,0.0,0.0,0.0,0.0,7.2496,7.2496,0.0,0.0,0.0,0.0,7.2496,7.2496,0.0,0.0,0.0,0.0,0.0,0.0,0.0,0.0,7.7304,7.7304,7.7304,0.0,7.7304,7.7304,7.7304,7.7488,0.0,7.8295,7.8516,0.0,0.0,0.0,8.0725,8.1019,8.1413,8.2202,8.2671,8.3269,8.4253,8.6335,0.0,8.9134,9.002,9.0681,9.0952,9.0989,9.1064,0.0,0.0,9.1479,9.2172,9.2402,9.2787,9.3403,9.4057,9.4403,9.4403,9.4595,9.5134,9.598,9.598,9.6095,9.6288,9.6288,9.6288,0.0,0.0,0.0,9.6365,9.698,9.7211,9.7288,9.7942,9.8327,9.8481,9.8481,9.8634,9.8788,0.0,0.0,0.0,0.0,0.0,0.0,0.0,0.0,0.0,0.0,0.0,0.0,0.0,0.0,0.0,0.0,0.0,0.0,0.0,0.0,0.0,0.0,0.0,0.0,7.066,7.1872,7.2496,7.2496,7.2496,7.2496,7.2496,7.2496,7.2496,7.2496,7.2496,0.0,0.0,0.0,0.0,0.0,7.2496,0.0,0.0,0.0,0.0,0.0,7.2496,7.2753,0.0,7.3964,7.4808,7.5616,0.0,0.0,0.0,0.0,7.7304,7.7414,7.7818,7.7598,7.7414,7.7818,7.7892,7.8112,7.8956,7.914,0.0,0.0,0.0,0.0,0.0,8.1844,8.2117,8.2647,8.2964,8.3748,8.5612,8.756,8.9108,8.9952,9.0453,9.0839,0.0,0.0,0.0,0.0,0.0,9.2018,9.2479,9.321,9.3826,9.4287,9.5134,9.5403,9.498,9.5403,9.5826,9.6288,9.6288,9.6288,9.6288,9.6288,9.6519,0.0,0.0,0.0,9.748,9.7904,9.8096,9.8134,9.8634,9.9019,9.9404,9.9404,9.9635,9.9942,0.0,0.0,0.0,0.0,0.0,0.0,0.0,0.0,0.0,0.0,0.0,0.0,0.0,0.0,0.0,0.0,0.0,0.0,0.0,0.0,0.0,0.0,0.0,7.0587,7.1321,7.2092,7.2496,7.2496,7.2496,7.2496,7.2496,7.2496,7.2496,7.2496,7.2496,7.2496,0.0,0.0,0.0,0.0,7.2496,0.0,0.0,0.0,0.0,0.0,0.0,0.0,0.0,7.4771,7.5542,7.624,7.7047,0.0,0.0,0.0,0.0,0.0,7.8405,7.8148,7.7855,7.8589,7.8772,7.8993,7.98,7.9984,0.0,0.0,0.0,0.0,0.0,8.2659,0.0,8.3024,8.3446,8.4535,8.7008,8.8478,8.9711,9.0762,9.0953,0.0,0.0,0.0,0.0,0.0,0.0,9.2595,9.2864,9.421,9.5057,9.5172,9.5903,9.5942,9.5211,9.5942,9.6288,9.6288,9.6288,9.6365,9.648,9.648,9.6942,9.7711,0.0,0.0,9.8788,9.8942,9.8981,9.9019,9.9135,9.9635,10.0289,10.0289,10.0712,10.1289,0.0,0.0,0.0,0.0,0.0,0.0,0.0,0.0,0.0,0.0,0.0,0.0,0.0,0.0,0.0,0.0,0.0,0.0,0.0,0.0,0.0,0.0,7.1064,7.1174,7.1321,7.2092,7.2496,7.2496,7.2496,7.2496,7.2496,7.2496,7.2496,7.2496,7.2496,7.2496,7.2496,0.0,0.0,7.2496,7.2496,0.0,0.0,0.0,0.0,0.0,0.0,0.0,0.0,7.5395,7.6019,7.624,7.7047,0.0,0.0,0.0,0.0,0.0,7.8552,7.8993,7.9433,7.958,7.9617,7.98,8.0645,0.0,0.0,0.0,0.0,0.0,0.0,8.3047,8.3338,0.0,0.0,8.7008,0.0,0.0,9.036,9.0838,0.0,0.0,0.0,0.0,0.0,0.0,0.0,9.3133,9.4518,9.4864,9.5326,9.6095,9.6249,9.6249,9.6095,9.6249,9.6288,9.6288,9.6288,9.6673,9.7326,9.7326,9.7788,9.8596,0.0,9.8673,9.8865,9.9596,9.9904,9.9981,10.0712,10.1019,10.1096,10.1096,10.1212,10.1289,0.0,0.0,0.0,0.0,0.0,0.0,0.0,0.0,0.0,0.0,0.0,0.0,0.0,0.0,0.0,0.0,0.0,0.0,0.0,0.0,0.0,7.1284,7.1725,7.1945,7.1945,7.2312,7.2496,7.2496,7.2496,7.2496,7.2496,7.2496,7.2496,7.2496,7.2496,7.2496,7.2496,7.2496,7.2496,7.2496,0.0,0.0,0.0,0.0,0.0,0.0,0.0,0.0,0.0,0.0,7.6387,7.6827,7.7194,0.0,0.0,0.0,0.0,0.0,7.9653,8.0167,8.0534,8.0975,8.0755,8.0645,8.1452,0.0,0.0,0.0,0.0,0.0,0.0,0.0,8.388,8.4703,0.0,8.8226,8.8873,8.9893,9.0679,0.0,0.0,0.0,0.0,0.0,0.0,0.0,0.0,0.0,9.4941,9.5441,9.5903,9.6288,9.6288,9.6288,9.6288,9.6749,9.6942,9.6942,9.6942,9.7403,9.8211,9.8211,9.8673,9.9481,0.0,9.975,10.0212,10.0596,10.0712,10.0789,10.1212,10.1289,10.1289,10.1289,10.1289,10.1289,0.0,0.0,0.0,0.0,0.0,0.0,0.0,0.0,0.0,0.0,0.0,0.0,0.0,0.0,0.0,0.0,0.0,0.0,0.0,0.0,7.1394,7.1578,7.2165,7.2496,7.2496,7.2496,7.2496,7.2496,7.2496,7.2496,7.2496,7.2496,7.2496,7.2496,7.2496,7.2496,7.2496,7.2496,7.2496,7.2496,0.0,0.0,0.0,0.0,0.0,0.0,0.0,0.0,0.0,0.0,0.0,0.0,0.0,0.0,0.0,7.8405,7.8883,7.9433,8.0681,8.1158,8.1415,8.2039,0.0,0.0,0.0,0.0,0.0,0.0,0.0,0.0,0.0,8.388,0.0,8.6214,8.7762,0.0,0.0,0.0,0.0,0.0,0.0,0.0,0.0,0.0,0.0,0.0,0.0,0.0,9.5288,9.5942,9.6288,9.6288,9.648,9.6596,9.6596,9.7403,9.7711,9.7519,9.7711,9.825,9.9096,9.9096,9.9558,10.0404,10.0404,10.0712,10.1289,10.1289,10.1289,10.1289,10.1289,10.1289,10.1289,10.1289,10.1289,10.1289,0.0,0.0,0.0,0.0,0.0,0.0,0.0,0.0,0.0,0.0,0.0,0.0,0.0,0.0,0.0,0.0,0.0,0.0,0.0,0.0,7.1651,7.2386,7.2459,7.2496,7.2496,7.2496,7.2496,7.2496,7.2496,7.2496,7.2496,7.2496,7.2496,7.2496,7.2496,7.2496,7.2496,7.2496,7.2496,7.2496,7.2496,0.0,0.0,0.0,0.0,0.0,0.0,0.0,0.0,0.0,0.0,0.0,0.0,0.0,7.8516,7.8589,7.9653,8.0865,8.0975,8.1562,8.2113,8.2186,0.0,0.0,0.0,0.0,0.0,0.0,0.0,0.0,0.0,8.4946,8.6539,8.8364,8.9011,8.9561,0.0,0.0,0.0,0.0,0.0,0.0,0.0,0.0,0.0,0.0,0.0,0.0,9.6172,9.6288,9.6288,9.6288,9.7019,9.7403,9.7403,9.825,9.8288,9.7519,9.8327,9.9173,9.9981,9.9981,10.0404,10.1212,10.1212,10.1212,10.1289,10.1289,10.1289,10.1289,10.1289,10.1289,10.1289,10.1289,10.1289,10.1404,0.0,0.0,0.0,0.0,0.0,0.0,0.0,0.0,0.0,0.0,0.0,0.0,0.0,0.0,0.0,0.0,0.0,0.0,0.0,0.0,7.2202,7.2496,7.2496,7.2496,7.2496,7.2496,7.2496,7.2496,7.2496,7.2496,7.2496,7.2496,7.2496,7.2496,7.2496,7.2496,7.2496,7.2496,7.2496,7.2496,7.2496,7.2496,0.0,0.0,0.0,0.0,0.0,0.0,0.0,0.0,7.7304,7.7414,7.7965,7.8332,7.8809,7.98,8.0534,8.1122,8.1599,8.1966,8.2186,8.2186,0.0,0.0,0.0,0.0,0.0,0.0,0.0,0.0,0.0,0.0,8.7961,8.8885,8.9672,0.0,0.0,0.0,0.0,0.0,0.0,0.0,0.0,0.0,0.0,0.0,0.0,0.0,9.6288,9.6288,9.6519,9.7019,9.7326,9.775,9.8288,9.9173,9.9442,9.9096,9.9442,9.9981,10.0789,10.0789,10.1019,10.1289,10.1289,10.1289,10.1289,10.1289,10.1289,10.1289,10.1289,10.1597,10.2097,10.2097,10.252,10.2981,0.0,0.0,0.0,0.0,0.0,0.0,0.0,0.0,0.0,0.0,0.0,0.0,0.0,0.0,0.0,0.0,0.0,0.0,0.0,7.2496,7.2496,7.2496,7.2496,7.2496,7.2496,7.2496,7.2496,7.2496,7.2496,7.2496,7.2496,7.2496,7.2496,7.2496,7.2496,7.2496,7.2496,7.2496,7.2496,7.2496,7.2496,7.2642,0.0,0.0,0.0,0.0,0.0,0.0,0.0,0.0,7.7488,7.7818,7.8405,7.8956,7.958,8.0681,8.1195,8.1489,8.2039,8.2186,8.2186,8.2186,0.0,0.0,0.0,0.0,0.0,0.0,0.0,0.0,0.0,0.0,0.0,0.0,0.0,0.0,0.0,0.0,0.0,0.0,0.0,0.0,0.0,0.0,0.0,0.0,0.0,0.0,0.0,9.6557,9.6942,9.748,9.8019,9.8596,9.9211,10.0096,10.0481,10.0481,10.0481,10.0789,10.1289,10.1289,10.1289,10.1289,10.1289,10.1289,10.1289,10.1289,10.152,10.1712,10.202,10.252,10.2981,10.2981,10.3405,10.3905,0.0,0.0,0.0,0.0,0.0,0.0,0.0,0.0,0.0,0.0,0.0,0.0,0.0,0.0,0.0,0.0,0.0,0.0,7.2496,7.2496,7.2496,7.2496,7.2496,7.2496,7.2496,7.2496,7.2496,7.2496,7.2496,7.2496,7.2496,7.2496,7.2496,7.2496,7.2496,7.2496,7.2496,7.2496,7.2496,7.2496,7.2496,7.2973,7.3707,0.0,0.0,0.0,0.0,0.0,0.0,0.0,7.7892,7.8589,7.8626,7.9727,8.1012,8.1012,8.1562,8.2186,8.2186,8.2186,8.2186,8.2186,0.0,0.0,0.0,0.0,0.0,0.0,0.0,0.0,0.0,0.0,0.0,0.0,0.0,0.0,0.0,0.0,0.0,0.0,0.0,0.0,0.0,0.0,0.0,0.0,0.0,0.0,0.0,9.7057,9.7519,9.7519,9.9211,10.0096,10.0096,10.0904,10.1289,10.1289,10.1289,10.1289,10.1289,10.1289,10.1289,10.1289,10.1289,10.1289,10.1289,10.1289,10.1789,10.2712,10.3597,10.3905,10.3905,10.3905,10.3905,10.3982,0.0,0.0,0.0,0.0,0.0,0.0,0.0,0.0,0.0,0.0,0.0,0.0,0.0,0.0,0.0,0.0,0.0,0.0,7.2496,7.2496,7.2496,7.2496,7.2496,7.2496,7.2496,7.2496,7.2496,7.2496,7.2496,7.2496,7.2496,7.2496,7.2496,7.2496,7.2496,7.2496,7.2496,7.2496,7.2826,7.334,7.334,7.3817,7.4625,0.0,0.0,0.0,0.0,0.0,0.0,0.0,0.0,0.0,7.9947,8.0608,8.1122,8.1672,8.2003,8.2186,8.2186,8.2186,0.0,8.2186,0.0,0.0,0.0,0.0,0.0,0.0,0.0,0.0,0.0,0.0,0.0,0.0,0.0,0.0,0.0,0.0,0.0,0.0,0.0,0.0,0.0,0.0,0.0,0.0,0.0,0.0,0.0,9.7365,9.8057,9.9288,9.9827,10.0404,10.0904,10.1212,10.1289,10.1289,10.1289,10.1289,10.1289,10.1289,10.1289,10.1289,10.1289,10.1597,10.2289,10.2904,10.3289,10.3482,10.3789,10.4212,10.4713,10.4713,10.5097,10.5674,0.0,0.0,0.0,0.0,0.0,0.0,0.0,0.0,0.0,0.0,7.2202,7.2496,0.0,0.0,0.0,0.0,0.0,0.0,0.0,0.0,7.2496,7.2496,7.2496,7.2496,7.2496,7.2496,7.2496,7.2496,7.2496,7.2496,7.2496,7.2496,7.2496,7.2496,7.2496,7.2496,7.2532,7.2826,7.3266,7.3707,7.4037,7.4661,7.5432,0.0,0.0,0.0,0.0,0.0,0.0,0.0,0.0,0.0,8.0681,8.1232,8.1562,8.2039,8.2186,8.2186,8.2186,8.2186,0.0,0.0,8.2792,0.0,0.0,0.0,0.0,0.0,0.0,0.0,0.0,0.0,0.0,0.0,0.0,0.0,0.0,0.0,0.0,0.0,0.0,0.0,0.0,0.0,0.0,0.0,0.0,0.0,0.0,9.8173,9.9019,10.0096,10.0404,10.0789,10.1289,10.1289,10.1289,10.1289,10.1289,10.152,10.1789,10.1789,10.1789,10.1789,10.2212,10.2597,10.3212,10.3982,10.4405,10.4405,10.4789,10.5213,10.5597,10.5597,10.5905,10.6405,0.0,0.0,7.2496,7.2496,0.0,0.0,0.0,0.0,0.0,0.0,7.2496,7.2496,0.0,0.0,0.0,0.0,0.0,0.0,0.0,0.0,7.2496,7.2496,7.2496,7.2496,7.2496,7.2496,7.2496,7.2496,7.2496,7.2496,7.2496,7.2496,7.2496,7.2496,7.2496,7.2532,7.2679,7.3377,7.378,7.3964,7.4698,7.5506,7.6203,7.6203,0.0,0.0,0.0,0.0,0.0,0.0,0.0,0.0,8.1085,8.1599,8.2186,8.2186,8.2186,8.2186,8.2186,0.0,0.0,0.0,0.0,0.0,0.0,0.0,0.0,0.0,0.0,0.0,0.0,0.0,0.0,0.0,0.0,0.0,0.0,0.0,0.0,0.0,0.0,0.0,0.0,0.0,0.0,0.0,0.0,0.0,0.0,9.925,10.0096,10.0212,10.0904,10.1289,10.1289,10.1289,10.1289,10.1404,10.1404,10.1904,10.2712,10.2597,10.2597,10.2789,10.3597,10.3982,10.4097,10.4905,10.5213,10.529,10.6097,10.6405,10.6405,10.6405,10.6405,10.6407,0.0,0.0,7.2496,7.2496,0.0,0.0,0.0,0.0,0.0,0.0,0.0,0.0,0.0,0.0,0.0,0.0,0.0,0.0,0.0,0.0,7.2496,7.2496,7.2496,7.2496,7.2496,7.2496,7.2496,7.2496,7.2496,7.2496,7.2496,7.2496,7.2496,7.2496,7.2496,7.2863,7.345,7.3634,7.4441,7.5616,7.5763,7.6313,7.7047,7.7047,7.7598,0.0,0.0,0.0,0.0,0.0,0.0,0.0,8.1746,8.2039,8.2186,8.2186,8.2186,8.2186,8.2186,8.2663,0.0,0.0,0.0,0.0,0.0,0.0,0.0,0.0,0.0,0.0,0.0,0.0,0.0,0.0,0.0,0.0,0.0,0.0,0.0,0.0,0.0,0.0,0.0,0.0,0.0,0.0,0.0,0.0,9.9481,9.9904,10.0404,10.1019,10.1212,10.1289,10.1289,10.1289,10.1597,0.0,10.2289,10.2789,10.3597,10.2904,10.2981,10.3712,10.4482,10.4789,10.4905,10.579,10.6097,10.6097,10.629,10.6405,10.6405,10.6405,10.6407,10.6488,0.0,0.0,0.0,0.0,0.0,0.0,0.0,0.0,0.0,0.0,0.0,0.0,0.0,0.0,0.0,0.0,0.0,0.0,0.0,0.0,0.0,7.2496,7.2496,7.2496,7.2496,7.2496,7.2496,7.2496,7.2496,0.0,0.0,0.0,7.2496,7.2532,7.2899,7.3303,7.3744,7.4515,7.5322,7.613,7.6533,7.6937,7.7378,7.7781,7.8222,7.8662,7.9029,0.0,0.0,0.0,0.0,0.0,0.0,0.0,8.2186,8.2186,8.248,8.2774,8.2774,0.0,0.0,8.5287,0.0,0.0,0.0,0.0,0.0,0.0,0.0,0.0,0.0,0.0,0.0,0.0,0.0,0.0,0.0,0.0,0.0,0.0,0.0,0.0,0.0,0.0,0.0,0.0,0.0,9.9135,10.0096,10.0481,10.0904,10.1289,10.1289,10.1289,10.1289,10.1712,10.2212,10.2597,10.302,10.3712,10.4482,10.3982,10.4289,10.5097,10.5482,10.5713,10.579,10.6213,10.6405,10.6405,10.6405,10.6405,10.6405,10.6369,10.6526,10.6602,0.0,0.0,0.0,0.0,0.0,0.0,0.0,0.0,0.0,0.0,0.0,0.0,0.0,0.0,0.0,0.0,0.0,0.0,0.0,0.0,0.0,7.2496,7.2496,7.2496,7.2496,7.2496,7.2496,7.2496,0.0,0.0,0.0,0.0,0.0,7.2753,7.356,7.3964,7.4184,7.5542,7.6166,7.6387,7.7231,7.7524,7.7635,7.8479,7.8883,7.9103,7.9764,8.0498,8.1232,8.1232,0.0,0.0,0.0,0.0,8.2406,8.2406,8.2994,8.3618,8.3618,0.0,8.563,8.7283,8.8135,0.0,9.0073,9.0641,9.0915,9.1028,9.1064,0.0,0.0,0.0,0.0,0.0,0.0,0.0,0.0,0.0,0.0,0.0,0.0,0.0,0.0,0.0,0.0,0.0,0.0,10.0173,10.0289,10.0904,10.1289,10.1289,10.1289,10.1404,10.152,10.2212,10.2712,10.302,10.3905,10.4713,10.529,10.529,10.5713,10.6405,10.6405,10.6405,10.6405,10.6405,10.6405,10.6405,10.6405,10.6405,10.6405,10.6487,10.6603,10.6789,0.0,0.0,0.0,0.0,0.0,0.0,0.0,0.0,0.0,0.0,7.2496,7.2496,0.0,0.0,0.0,0.0,0.0,0.0,0.0,0.0,0.0,7.2496,7.2496,7.2496,7.2496,7.2496,7.2496,7.2496,0.0,0.0,0.0,0.0,0.0,7.356,0.0,0.0,7.5799,7.6019,7.6497,7.7231,7.8075,7.8442,7.8516,7.9323,8.0057,8.0681,8.0791,8.1342,8.2039,8.2039,8.2113,0.0,0.0,0.0,8.3251,8.3251,8.3801,8.4462,0.0,0.0,8.6906,0.0,8.9173,8.9847,0.0,0.0,9.1028,0.0,9.1175,9.121,0.0,0.0,0.0,0.0,0.0,0.0,0.0,0.0,0.0,0.0,0.0,0.0,0.0,0.0,0.0,0.0,9.9981,10.0404,10.1096,10.1212,10.1289,10.1289,10.1289,10.1712,10.2404,10.252,10.3289,10.4789,10.5597,10.6097,10.6213,10.6213,10.629,10.6405,10.6405,10.6405,10.6405,10.6405,10.6405,10.6405,10.6405,10.6405,10.6405,10.6487,10.6602,10.6894,0.0,0.0,0.0,0.0,0.0,0.0,0.0,0.0,0.0,0.0,0.0,7.2496,0.0,0.0,0.0,7.2496,7.2496,7.2496,7.2496,7.2496,0.0,0.0,7.2496,7.2496,7.2496,7.2496,7.2496,0.0,0.0,0.0,0.0,7.4625,7.4808,0.0,0.0,0.0,0.0,0.0,0.0,7.8075,7.8442,7.8883,7.936,8.0167,8.0681,8.1048,8.1525,8.1893,8.2186,8.2186,8.248,8.2884,8.2884,0.0,0.0,0.0,8.4646,8.5411,8.6053,8.6878,8.7794,0.0,8.9665,9.0263,9.0719,9.0953,9.11,9.121,9.121,9.121,9.121,9.1595,9.221,9.3018,9.3864,9.4711,9.5595,9.6057,9.6288,0.0,0.0,0.0,0.0,0.0,0.0,0.0,10.0481,10.0904,10.1289,10.1289,10.1289,10.1289,10.1789,10.2212,10.2597,10.3482,10.4597,10.579,10.6213,10.6405,10.6405,10.6405,10.6405,10.6405,10.6405,10.6405,10.6405,10.6405,10.6405,10.6405,10.6405,10.6713,10.7098,10.7297,10.7793,10.8388,0.0,0.0,0.0,0.0,0.0,0.0,0.0,0.0,0.0,0.0,0.0,0.0,0.0,0.0,0.0,0.0,7.2496,7.2496,7.2496,7.2496,0.0,0.0,0.0,7.2496,7.2496,7.2716,0.0,0.0,0.0,0.0,7.4331,7.5542,7.5909,0.0,7.6166,0.0,0.0,0.0,0.0,0.0,7.914,7.958,8.0167,8.1012,8.1305,8.1415,8.2223,8.2517,0.0,0.0,0.0,8.3728,8.3728,8.4278,0.0,0.0,0.0,0.0,0.0,0.0,8.8361,8.906,8.9763,9.0389,0.0,0.0,9.1175,0.0,9.121,9.1287,9.1479,9.2056,9.2749,9.3557,9.4441,9.5288,9.6172,9.6288,9.6288,9.6288,9.648,0.0,0.0,0.0,0.0,0.0,10.1019,10.1289,10.1289,10.1289,10.1404,10.1597,10.2289,10.2789,10.3212,10.4713,10.579,10.6405,10.6405,10.6405,10.6405,10.6405,10.6405,10.6405,10.6405,10.6405,10.6405,10.6405,10.6521,10.6713,10.6713,10.729,10.8024,10.8184,10.8794,10.9614,0.0,0.0,0.0,0.0,0.0,0.0,0.0,0.0,0.0,0.0,0.0,0.0,0.0,7.2496,7.2496,7.2496,7.2496,7.2496,7.2496,7.2496,7.2496,7.2496,0.0,0.0,7.2496,7.323,0.0,0.0,0.0,0.0,7.5983,7.6056,7.6497,7.7194,7.7231,7.7708,7.8479,0.0,0.0,0.0,8.0571,8.0901,8.1048,8.1819,8.215,8.2223,8.3067,0.0,0.0,0.0,0.0,0.0,0.0,0.0,8.5747,0.0,0.0,0.0,0.0,8.7847,0.0,8.8989,8.9654,9.0257,0.0,0.0,9.1064,9.1175,9.121,9.1441,9.2287,9.2479,9.2749,9.3557,9.4441,9.5288,9.6172,9.6288,9.6288,9.6288,9.698,9.7788,0.0,0.0,0.0,0.0,10.1289,10.1289,10.1289,10.1289,10.1712,10.252,10.2597,10.3405,10.4982,10.5905,10.6405,10.6405,10.6405,10.6405,10.6405,10.6405,10.6405,10.6405,10.6405,10.6405,10.6405,10.6405,10.6905,10.7598,10.7598,10.8098,10.8867,10.899,10.9184,10.9614,0.0,0.0,0.0,0.0,0.0,0.0,0.0,0.0,0.0,0.0,0.0,0.0,0.0,7.2496,7.2496,7.2496,7.2496,7.2496,7.2496,7.2496,7.2716,7.323,0.0,0.0,0.0,0.0,0.0,0.0,0.0,7.5836,7.6093,7.6644,7.7341,7.8148,7.8148,7.8295,7.8626,7.914,0.0,0.0,8.0901,8.1305,8.1856,8.2663,8.2994,0.0,0.0,0.0,0.0,0.0,0.0,0.0,0.0,0.0,0.0,0.0,0.0,0.0,0.0,0.0,0.0,8.8748,8.9362,8.9991,9.0351,9.0681,9.0953,9.1064,9.1136,9.1479,9.2326,9.2903,9.3557,9.4403,9.5249,9.5942,9.6249,9.6288,9.648,9.7019,9.7326,9.8057,9.9481,9.9904,0.0,0.0,0.0,10.1289,10.1289,10.1789,10.2289,10.2597,10.3597,10.4789,10.5905,10.6213,10.6405,10.6405,10.6405,10.6405,10.6405,10.6405,10.6713,10.7213,10.7213,10.7213,10.7213,10.7213,10.7713,10.8482,10.8482,10.8983,10.9675,10.9799,11.0381,11.1201,0.0,0.0,0.0,0.0,0.0,0.0,0.0,0.0,0.0,0.0,0.0,0.0,0.0,0.0,7.2606,7.2899,7.2899,7.301,7.3303,7.3303,7.356,7.4074,7.4111,7.4368,7.4918,0.0,0.0,0.0,0.0,0.0,0.0,0.0,7.8075,7.8626,7.9176,7.9396,0.0,0.0,0.0,8.1415,0.0,8.1893,8.2663,0.0,0.0,0.0,0.0,0.0,0.0,0.0,0.0,0.0,0.0,0.0,0.0,0.0,0.0,0.0,8.7237,0.0,0.0,0.0,8.8989,8.9566,9.0045,9.0517,9.0838,9.0991,9.11,9.1556,9.2672,9.3326,9.398,9.4864,9.5711,9.6288,9.6288,9.6288,9.6596,9.7403,9.775,9.8519,9.9942,10.0289,10.0712,0.0,0.0,0.0,10.1289,10.2097,10.2904,10.3405,10.4789,10.579,10.6405,10.6405,10.6405,10.6405,10.6405,10.6597,10.679,10.679,10.729,10.8098,10.8098,10.8098,10.8098,10.8098,10.8598,10.929,10.929,10.9906,11.0598,11.0721,11.1269,11.1981,0.0,0.0,0.0,0.0,0.0,0.0,0.0,0.0,0.0,0.0,0.0,0.0,0.0,0.0,0.0,7.367,7.3744,7.4074,7.4845,7.4918,7.4918,7.4955,7.4955,7.4955,7.4992,7.5726,0.0,0.0,0.0,0.0,0.0,0.0,7.8662,0.0,8.0314,8.1048,8.1085,0.0,8.1489,8.2223,0.0,8.2737,8.3471,0.0,0.0,0.0,8.5527,8.582,0.0,8.6738,0.0,0.0,0.0,0.0,0.0,0.0,0.0,8.6995,0.0,0.0,0.0,8.8059,8.8538,8.9044,8.9714,9.0181,9.0561,9.0915,9.1139,9.1748,9.3403,9.371,9.4018,9.4903,9.5749,9.6288,9.6288,9.6326,9.6634,9.7442,9.8288,9.9173,10.0096,10.0789,10.1289,0.0,10.1289,10.1289,10.1289,10.2212,10.3405,10.5097,10.602,10.6405,10.6405,10.6405,10.6405,10.6405,10.6405,10.6905,10.7713,10.7713,10.8213,10.8906,10.8906,10.8983,10.8983,10.8906,10.9483,11.0214,11.0214,11.0791,11.1522,11.1522,11.1693,11.2019,0.0,0.0,0.0,0.0,0.0,0.0,0.0,0.0,0.0,0.0,0.0,0.0,0.0,0.0,7.4331,7.4551,7.4588,7.4661,7.4918,7.4918,7.5175,7.5726,7.5763,7.6056,7.6644,7.6864,0.0,0.0,0.0,0.0,0.0,0.0,0.0,0.0,8.0791,8.1672,8.27,8.2113,0.0,0.0,8.3067,8.3544,0.0,0.0,0.0,0.0,0.0,8.6664,8.6701,0.0,8.6995,8.6995,0.0,0.0,0.0,0.0,0.0,8.6995,8.71,0.0,0.0,0.0,0.0,0.0,8.9205,8.9859,9.0436,9.0721,9.149,9.2441,9.3518,9.421,9.4941,9.5788,9.6134,9.6288,9.6288,9.6788,9.748,9.8327,9.9211,10.0096,10.0904,10.1212,0.0,0.0,10.1289,10.1597,10.2212,10.3597,10.4905,10.602,10.629,10.6405,10.6405,10.6405,10.6405,10.6405,10.7021,10.7482,10.7713,10.829,10.8983,10.979,10.979,11.0214,11.0714,11.0098,11.0406,11.1098,11.1098,11.1291,11.1522,11.1522,11.1693,11.2019,0.0,0.0,0.0,0.0,0.0,0.0,0.0,0.0,0.0,0.0,0.0,0.0,0.0,0.0,0.0,7.5395,7.5395,7.5542,7.5909,7.5909,7.613,7.6607,7.6607,7.6827,7.7304,7.7671,7.7855,0.0,0.0,0.0,0.0,0.0,0.0,0.0,8.1709,8.2517,0.0,0.0,0.0,0.0,8.3911,0.0,0.0,8.56,8.6004,0.0,0.0,0.0,8.6995,8.6995,8.6995,0.0,0.0,0.0,0.0,0.0,0.0,8.6995,8.6995,8.71,8.72,8.7402,0.0,0.0,8.8917,8.9665,9.0307,0.0,9.1644,9.2749,9.3557,9.4403,9.5288,9.6172,9.6288,9.6288,9.6288,9.698,9.7827,9.8711,9.9558,10.0404,10.1212,10.1289,10.1289,10.1289,10.1597,10.2404,10.3597,10.4597,10.5482,10.6405,10.6405,10.6405,10.6405,10.6405,10.6597,10.6905,10.7482,10.8098,10.879,10.9213,10.9906,11.0714,11.0714,11.1021,11.1522,11.0983,11.1021,11.1522,11.1522,11.1522,11.1522,11.1522,11.1693,11.2019,0.0,0.0,7.2679,7.2753,7.3377,0.0,0.0,0.0,0.0,0.0,0.0,0.0,0.0,0.0,0.0,0.0,7.624,7.657,7.7414,7.7451,7.7488,7.7598,7.7598,7.7598,7.7598,7.8332,7.8736,7.8736,0.0,0.0,0.0,0.0,0.0,0.0,8.2774,8.3508,0.0,0.0,0.0,8.4866,8.4756,8.5233,0.0,0.0,8.6371,0.0,8.6995,8.6995,8.6995,8.6995,8.6995,0.0,0.0,0.0,0.0,0.0,8.6995,8.6995,8.6995,8.6995,8.6995,8.7237,8.7665,0.0,8.871,8.9478,9.0136,9.06,9.1721,9.2864,9.3557,9.448,9.5403,9.6172,9.6288,9.6288,9.6288,9.7096,9.7942,9.8711,9.9635,10.0481,10.1212,10.1289,10.1289,10.1289,10.2212,10.3405,10.4982,10.5213,10.5597,10.6405,10.6405,10.6405,10.6405,10.6521,10.6905,10.7713,10.7905,10.879,11.0214,11.0291,11.0791,11.1522,11.1522,11.1522,11.1522,11.1522,11.1522,11.1522,11.1522,11.1522,11.1522,11.1522,11.1693,11.2019,7.334,7.345,7.367,7.4331,0.0,0.0,0.0,0.0,0.0,0.0,0.0,0.0,0.0,0.0,0.0,0.0,7.7084,7.7451,7.8295,7.8369,7.8626,7.9286,7.9286,7.9286,7.9286,7.947,7.9543,7.9543,0.0,0.0,0.0,0.0,0.0,0.0,8.3287,8.4132,8.5343,0.0,0.0,8.6481,8.582,0.0,8.6775,8.6775,8.6885,8.6995,8.6995,8.6995,8.6995,8.6995,8.6995,8.6995,0.0,0.0,0.0,8.6995,0.0,0.0,0.0,0.0,0.0,0.0,0.0,0.0,8.8421,8.9167,8.9906,9.0436,9.2026,9.3445,9.3672,9.498,9.6095,9.6288,9.6288,9.6288,9.6288,9.7596,9.8596,9.8788,10.0096,10.1096,10.1289,10.1289,10.1289,10.1289,10.2789,10.4097,10.4982,10.579,10.6213,10.6405,10.6405,10.6405,10.6405,10.7098,10.7521,10.7713,10.9098,10.9906,11.0214,11.0906,11.1291,11.1522,11.1522,11.1522,11.1522,11.1522,11.1522,11.1522,11.1522,11.1522,11.1522,11.1522,11.1693,11.2019,7.4221,7.4294,7.4441,7.4845,0.0,0.0,0.0,0.0,0.0,0.0,0.0,0.0,0.0,0.0,0.0,0.0,7.8552,7.8736,7.9176,7.9176,0.0,7.9764,7.98,7.98,7.98,8.0167,8.0388,8.0388,0.0,0.0,0.0,0.0,0.0,0.0,0.0,8.5049,0.0,0.0,8.6628,8.6958,8.6554,0.0,8.6995,8.6995,8.6995,8.6995,8.6995,8.6995,8.6995,8.6995,8.6995,0.0,0.0,8.6995,8.6995,0.0,8.6995,8.6995,0.0,0.0,0.0,8.6995,0.0,0.0,0.0,8.9006,8.9973,9.0841,9.2408,9.3754,9.4287,9.5403,9.6288,9.6288,9.6288,9.6288,9.6288,9.775,9.8788,9.8788,10.0289,10.1289,10.1289,10.1289,10.1712,10.252,10.3405,10.4405,10.5713,10.6213,10.6405,10.6405,10.6405,10.6597,10.7021,10.7521,10.8098,10.8983,10.979,11.0406,11.0906,11.1291,11.1522,11.1522,11.1522,11.1522,11.1522,11.1522,11.1522,11.1522,11.1522,11.1522,11.1522,11.1522,11.1693,11.2019,7.5175,7.5139,7.5175,7.5359,0.0,0.0,0.0,0.0,0.0,0.0,0.0,0.0,0.0,0.0,0.0,0.0,0.0,7.9874,0.0,0.0,0.0,8.0241,8.0241,8.0241,8.0241,8.0901,8.1305,8.1452,0.0,0.0,0.0,0.0,0.0,0.0,0.0,0.0,0.0,0.0,0.0,8.6995,0.0,8.6995,8.6995,8.6995,8.6995,8.6995,8.6995,8.6995,8.71,8.71,8.7064,8.7064,8.7064,8.7064,0.0,0.0,0.0,0.0,0.0,0.0,0.0,0.0,0.0,8.7858,0.0,0.0,0.0,9.1369,9.2789,9.4062,9.4864,9.5711,9.6288,9.6288,9.6288,9.6365,9.6519,9.7827,9.8788,9.8788,10.0289,10.1289,10.1289,10.152,10.2212,10.3789,10.3982,10.4789,10.629,10.6405,10.6405,10.6405,10.6597,10.7021,10.7713,10.7982,10.8906,11.0214,11.0406,11.0791,11.1522,11.1522,11.1522,11.1522,11.1522,11.1522,11.1522,11.1522,11.1522,11.1522,11.1522,11.1522,11.1522,11.1522,11.1693,11.2019,7.6093,7.5946,7.6203,7.6937,0.0,0.0,0.0,0.0,0.0,0.0,0.0,0.0,0.0,0.0,0.0,0.0,0.0,0.0,8.0828,0.0,0.0,8.1893,8.1929,8.1929,8.1929,8.2003,8.2406,8.3141,0.0,0.0,0.0,0.0,0.0,0.0,8.5747,0.0,0.0,0.0,8.6995,0.0,8.6995,8.6995,0.0,8.6995,8.6995,8.6995,8.6995,8.7064,8.7305,0.0,8.7335,8.7431,0.0,8.7431,8.7431,8.7268,0.0,0.0,0.0,0.0,0.0,0.0,8.7665,0.0,0.0,0.0,9.0701,9.1438,0.0,9.4637,9.4943,0.0,0.0,9.6288,9.6288,9.6557,9.725,9.8173,9.8788,9.8788,10.0289,10.1289,10.1289,10.202,10.2904,10.3789,10.4597,10.5405,10.629,10.6405,10.6405,10.6405,10.7098,10.7598,10.7713,10.9213,10.9983,11.0214,11.0983,11.1406,11.1522,11.1522,11.1522,11.1522,11.1522,11.1522,11.1522,11.1522,11.1522,11.1522,11.1522,11.1522,11.1522,11.1522,11.1693,11.2019,7.6864,7.6827,7.69,7.7268,0.0,0.0,0.0,0.0,0.0,0.0,0.0,0.0,0.0,0.0,0.0,0.0,0.0,8.1525,0.0,0.0,0.0,0.0,0.0,0.0,8.3581,8.3581,8.3765,8.4095,8.4095,0.0,0.0,0.0,0.0,0.0,8.6518,0.0,8.6995,0.0,8.6995,0.0,0.0,0.0,0.0,8.6995,8.6995,8.6995,8.6995,8.7169,8.7305,0.0,8.7468,0.0,0.0,0.0,0.0,8.7693,0.0,0.0,0.0,0.0,0.0,0.0,0.0,0.0,8.9302,0.0,9.1774,0.0,0.0,0.0,0.0,0.0,0.0,0.0,9.6288,9.6596,9.7403,9.825,9.8981,9.9481,0.0,0.0,10.1289,10.2097,10.2981,0.0,10.4597,10.5482,10.6405,10.6405,10.6405,10.6405,10.7213,10.7905,10.8406,10.9598,11.0483,11.0983,11.1291,11.1522,11.1522,11.1522,11.1522,11.1522,11.1522,11.1522,11.1522,11.1522,11.1522,11.1522,11.1522,11.1522,11.1522,11.1522,11.1693,11.2019,7.8002,0.0,0.0,0.0,0.0,0.0,0.0,0.0,0.0,0.0,0.0,0.0,8.1801,8.25,0.0,0.0,0.0,8.3104,0.0,0.0,8.3985,0.0,0.0,0.0,0.0,8.4609,8.4719,8.4939,8.4939,8.5343,0.0,0.0,0.0,0.0,0.0,8.6995,8.6995,0.0,8.6995,8.6995,8.6995,8.7142,8.7325,8.7174,8.7211,8.7394,8.7531,8.7814,8.8199,8.8265,8.8488,0.0,8.8865,0.0,8.9071,0.0,0.0,0.0,8.895,0.0,0.0,0.0,0.0,0.0,0.0,0.0,0.0,0.0,0.0,0.0,0.0,0.0,9.6288,9.6288,0.0,9.6903,9.775,9.8596,9.9365,9.9981,10.0789,0.0,0.0,10.2289,10.3212,10.3905,0.0,10.5713,10.6405,10.6405,10.6521,10.6713,10.7598,10.8406,10.9213,11.0098,11.0906,11.1522,11.1522,11.1522,11.1522,11.1522,11.1522,11.1522,11.1522,11.1522,11.1522,11.1522,11.1522,11.1522,11.1522,11.1522,11.1522,11.1522,11.1693,11.2019,7.969,7.9103,0.0,0.0,0.0,0.0,0.0,0.0,0.0,0.0,0.0,0.0,0.0,0.0,0.0,0.0,0.0,8.4535,8.4572,0.0,8.4572,0.0,0.0,8.4609,0.0,0.0,8.4976,8.5747,8.5747,8.6151,0.0,0.0,8.6995,8.6995,8.6995,8.6995,8.6995,8.6995,8.6995,8.6995,8.6995,8.7472,8.8096,0.0,8.7783,8.8514,8.8811,0.0,0.0,9.0764,9.1029,0.0,0.0,0.0,0.0,0.0,0.0,0.0,0.0,0.0,0.0,9.1451,0.0,0.0,0.0,0.0,9.3812,0.0,0.0,0.0,0.0,9.6288,9.6288,9.6288,9.6942,0.0,0.0,9.9519,10.0096,10.0096,10.0789,10.1289,0.0,10.2904,10.3905,0.0,10.5405,0.0,10.6405,10.6405,10.679,10.7598,10.8406,10.929,11.0098,11.1021,11.1522,11.1522,11.1522,11.1522,11.1522,11.1522,11.1522,11.1522,11.1522,11.1522,11.1522,11.1522,11.1522,11.1522,11.1522,11.1522,11.1522,11.1522,11.1693,11.2019,8.0498,0.0,0.0,0.0,0.0,0.0,0.0,8.2454,0.0,0.0,0.0,0.0,0.0,0.0,8.5349,0.0,0.0,8.5355,8.5872,8.5779,0.0,0.0,0.0,8.6427,0.0,0.0,8.6334,8.6591,8.6591,8.6738,0.0,8.6995,8.6995,8.6995,0.0,8.6995,0.0,0.0,0.0,0.0,0.0,8.8757,8.8977,0.0,0.0,8.9325,8.9625,9.0137,0.0,9.0984,9.1395,9.1784,9.1922,9.2115,9.2216,9.2228,9.2228,0.0,0.0,0.0,9.2101,9.2203,0.0,0.0,0.0,0.0,0.0,0.0,0.0,0.0,0.0,9.6749,9.7096,9.7096,9.7827,9.8673,0.0,10.0404,10.0904,10.0904,10.1096,10.1289,10.1289,0.0,0.0,0.0,10.5482,0.0,0.0,10.6405,10.679,10.7713,10.8482,10.929,11.0214,11.1098,11.1522,11.1522,11.1522,11.1522,11.1522,11.1522,11.1522,11.1522,11.1522,11.1522,11.1522,11.1522,11.1522,11.1522,11.1522,11.1522,11.1522,11.1522,11.1731,11.1985,8.1305,0.0,0.0,0.0,0.0,0.0,0.0,0.0,0.0,0.0,8.5483,0.0,8.6325,0.0,8.6713,0.0,8.651,8.6611,8.713,8.6979,0.0,8.7563,8.7402,0.0,0.0,0.0,8.6995,8.6995,8.6995,8.6995,8.6995,8.6995,8.6995,8.6995,8.6995,8.7178,8.7435,8.7435,8.7912,0.0,0.0,8.9858,0.0,0.0,9.05,9.0378,0.0,9.1373,9.1964,9.243,9.2814,9.3214,9.3383,9.3563,9.3701,9.3708,9.3708,9.3708,9.3708,9.3884,0.0,9.4105,9.462,0.0,9.5417,0.0,0.0,0.0,0.0,0.0,0.0,9.7596,9.7942,9.7942,9.8673,9.9558,0.0,10.1019,10.1289,10.1289,10.1289,10.1404,10.1712,10.3097,0.0,0.0,0.0,0.0,0.0,0.0,10.729,10.8098,10.8906,10.979,11.0714,11.1214,11.1522,11.1522,11.1522,11.1522,11.1522,11.1522,11.1522,11.1522,11.1522,11.1522,11.1522,11.1522,11.1522,11.1522,11.1522,11.1522,11.1522,11.1522,11.1692,11.2014,8.2296,0.0,0.0,0.0,8.2994,0.0,0.0,0.0,8.5386,0.0,8.6756,8.7473,8.7752,8.841,8.8748,8.8748,8.8421,0.0,8.8242,8.801,0.0,0.0,8.7534,8.7372,8.7372,0.0,0.0,0.0,8.6995,8.6995,8.6995,8.6995,8.7031,8.7068,8.7068,0.0,8.8243,8.8243,8.872,8.9564,9.0335,9.0809,9.1131,9.2151,9.2104,9.1668,9.2343,9.331,9.4293,9.4958,9.5305,9.554,9.5806,9.5933,9.6015,9.5891,9.5849,9.5849,9.5849,9.638,9.6904,9.7035,0.0,0.0,0.0,0.0,9.8434,0.0,0.0,0.0,0.0,0.0,9.8865,9.8865,9.9596,10.0404,10.1212,10.1289,10.1289,10.1289,10.1289,10.1712,10.252,10.3405,10.4212,10.4982,0.0,10.6405,10.6405,0.0,10.8098,10.8906,10.9713,11.0598,11.1522,11.1522,11.1522,11.1522,11.1522,11.1522,11.1522,11.1522,11.1522,11.1522,11.1522,11.1522,11.1522,11.1522,11.1522,11.1522,11.1522,11.1522,11.1522,11.1483,11.1771,11.2182,8.3985,8.4168,8.4492,0.0,8.4772,8.4682,0.0,0.0,0.0,0.0,8.8183,8.8888,8.9098,8.9402,8.9616,8.9616,8.9427,0.0,0.0,0.0,0.0,8.8495,8.8195,8.7947,8.7821,8.7665,0.0,8.7237,0.0,0.0,8.6995,8.6995,8.7325,8.7876,8.7876,8.8353,8.9087,8.9087,8.9564,9.0372,9.1323,9.1868,0.0,0.0,9.3983,9.4135,9.4271,9.4683,9.5403,9.6629,9.7201,9.7432,9.7779,9.7861,9.7901,9.8019,9.7981,9.7981,9.7981,9.8055,9.8127,9.8206,9.8278,9.8427,0.0,0.0,0.0,0.0,0.0,0.0,0.0,0.0,9.975,9.975,10.0481,10.1096,10.1289,10.1289,10.1289,10.1289,10.1904,10.2404,10.2597,10.3405,10.4212,10.4982,10.5905,10.6405,10.6405,0.0,0.0,10.8906,10.9713,11.0598,11.1522,11.1522,11.1522,11.1522,11.1522,11.1522,11.1522,11.1522,11.1522,11.1522,11.1522,11.1522,11.1522,11.1522,11.1522,11.1522,11.1522,11.1522,11.1483,11.1606,11.1808,11.2073,8.4609,0.0,0.0,8.6495,0.0,0.0,8.6573,0.0,0.0,8.8496,8.9173,0.0,8.9887,9.0075,9.0129,9.0136,9.0037,0.0,8.9801,0.0,0.0,8.8972,8.8671,8.8376,8.8195,8.801,0.0,8.7402,0.0,8.7421,8.7509,8.7509,8.7949,8.872,8.872,8.9197,8.9968,9.0298,9.0774,9.1323,9.2383,9.2959,0.0,9.4654,9.548,9.5989,9.6423,9.6571,9.6768,9.7658,9.8127,9.8346,9.8594,9.8711,9.8711,9.8788,9.8788,9.8788,9.8788,9.9019,9.925,9.925,9.9517,9.9746,9.9748,9.9788,9.9788,0.0,0.0,0.0,0.0,0.0,0.0,10.0596,10.1019,10.1289,10.1289,10.1289,10.1404,10.1789,10.2289,10.2904,10.3597,10.4097,10.4789,10.5597,0.0,0.0,0.0,0.0,0.0,10.8906,11.0098,11.1021,11.1522,11.1522,11.1522,11.1522,11.1522,11.1522,11.1522,11.1522,11.1522,11.1522,11.1522,11.1522,11.1522,11.1522,11.1522,11.1522,11.1522,11.1522,11.1483,11.1914,11.2079,11.2014,0.0,0.0,0.0,0.0,0.0,0.0,0.0,8.8671,0.0,8.9591,0.0,9.002,9.0383,9.0427,9.0513,9.0558,0.0,9.0378,9.0409,8.999,8.9729,8.9843,8.9437,8.9142,8.897,8.8675,8.8307,0.0,0.0,8.7967,8.8423,8.8353,8.8793,8.9564,8.9564,9.0005,9.0812,9.1692,9.2132,9.2383,9.3477,9.4221,9.482,9.5981,9.678,9.7393,9.858,9.859,9.8143,9.8522,9.8776,9.894,9.9096,9.9135,9.9135,9.9135,9.9135,9.9135,9.9135,9.975,10.0404,10.0404,10.0981,10.1597,10.1597,10.1597,10.1597,10.1597,10.1597,10.1597,0.0,0.0,10.1597,10.1597,10.1597,10.1597,0.0,0.0,10.1904,10.2712,10.2904,0.0,10.4982,10.5097,10.5482,10.629,0.0,0.0,0.0,0.0,0.0,10.9098,11.0714,11.1522,11.1522,0.0,11.1522,11.1522,11.1522,11.1522,11.1522,11.1522,11.1522,11.1522,11.1522,11.1522,11.1522,11.1522,11.1522,11.1522,11.1598,11.1714,11.1791,11.2599,11.2616,11.2189,0.0,0.0,0.0,0.0,0.0,8.8748,8.9205,8.9348,8.9541,8.9887,9.0159,9.0301,9.0474,9.0679,9.0838,9.0915,9.0877,0.0,0.0,0.0,0.0,9.2192,9.2053,9.1773,9.1558,9.1294,9.085,0.0,8.9887,8.9602,8.9408,8.9268,8.9638,9.0408,9.0408,9.0921,9.1873,9.2719,0.0,9.3652,9.4808,9.5529,9.6103,9.7517,9.8348,9.8867,9.9984,9.9847,9.9236,10.0224,10.0624,10.0824,10.0788,10.0904,10.0904,10.0904,10.0904,10.0904,10.0904,10.152,10.2212,10.2212,10.2789,10.3405,10.3405,10.3405,10.3405,10.3405,10.3405,10.3405,10.3405,0.0,0.0,0.0,0.0,0.0,0.0,0.0,10.3482,10.3712,10.4289,10.4789,10.5097,10.5097,10.5482,10.629,10.6405,0.0,0.0,0.0,0.0,0.0,11.0983,0.0,0.0,0.0,11.1522,11.1522,11.1522,11.1522,11.1522,11.1522,11.1522,11.1522,11.1522,11.1522,11.1522,11.1522,11.1522,11.1598,11.2214,11.2522,11.2599,11.3483,11.3685,11.3814,0.0,0.0,0.0,0.0,0.0,0.0,0.0,9.059,0.0,9.0422,9.0895,9.1288,9.1412,9.1951,9.2334,9.2407,9.2371,9.2526,9.2834,9.2636,9.2665,9.2962,9.2913,0.0,9.2499,9.2165,9.1747,9.1184,9.0677,9.049,0.0,9.0254,9.0517,9.1253,9.1838,9.2386,9.3074,0.0,0.0,9.5139,9.6306,9.7035,9.776,9.9478,10.0413,10.078,10.1915,10.1997,10.1695,10.1699,10.2089,10.2594,10.2635,10.2597,10.2597,10.2597,10.2597,10.2597,10.2597,10.2981,10.3289,10.3289,10.3597,10.3905,10.3905,10.3905,10.3905,10.3905,10.3905,10.3905,10.3905,10.3905,0.0,0.0,0.0,0.0,0.0,0.0,10.4097,10.4482,10.4905,10.529,10.5713,10.579,10.5905,10.6405,10.6405,0.0,0.0,0.0,0.0,0.0,0.0,0.0,0.0,0.0,0.0,11.1522,11.1522,11.1522,11.1522,11.1522,11.1522,11.1522,11.1522,11.1522,11.1522,11.2022,11.2099,11.2214,11.3022,11.3407,11.3483,11.4407,11.4725,11.4774,0.0,8.7905,0.0,0.0,8.9348,0.0,9.1406,9.1921,9.1942,9.1372,9.187,9.2371,9.2564,9.3179,9.36,9.371,9.3637,9.3716,9.3869,9.3677,9.3675,9.3866,9.3823,9.3697,9.3441,9.3127,9.2696,0.0,9.159,9.1407,0.0,9.1528,9.1834,0.0,0.0,0.0,0.0,0.0,9.6105,9.6712,9.7986,9.8854,9.9568,10.1301,10.2195,10.2577,10.3395,10.3901,10.402,10.3209,10.3401,10.3905,10.3905,10.3905,10.3905,10.3905,10.3905,10.3905,10.3905,10.3982,10.4212,10.4212,10.4289,10.4405,10.4405,10.4405,10.4405,10.4405,10.4405,10.4405,10.4405,10.4405,0.0,0.0,0.0,0.0,0.0,0.0,10.4713,10.529,10.5405,10.5597,10.629,10.6405,10.6521,10.6713,10.6713,0.0,10.7905,0.0,0.0,0.0,0.0,11.1522,11.1522,0.0,11.1522,0.0,11.1522,11.1522,11.1522,11.1522,11.1522,11.1522,11.1522,11.1598,11.1791,11.2406,11.2791,11.3099,11.3907,11.4291,11.4407,11.5215,11.5566,11.558,0.0,0.0,0.0,0.0,0.0,0.0,0.0,9.3174,9.3333,9.3178,9.3216,9.3332,9.3447,9.3524,9.36,9.371,9.371,9.4057,9.4826,9.4828,9.5174,9.5981,9.602,9.5906,9.575,9.5423,9.4981,0.0,9.3746,9.3202,0.0,9.3208,0.0,0.0,0.0,0.0,0.0,9.6905,9.7664,9.8454,10.0207,10.1129,10.1635,10.2899,10.3421,10.3587,10.3826,10.4405,10.4982,10.4905,10.4405,10.3905,10.3905,10.3905,10.3905,10.3905,10.3905,10.3905,10.3905,10.4405,10.4982,10.4982,10.5597,10.6213,10.6213,10.6213,10.6213,10.6213,10.6213,10.6213,10.6213,10.6213,10.6213,0.0,0.0,0.0,0.0,0.0,10.6213,10.629,10.629,10.629,10.6405,10.6405,10.6713,10.7521,10.7598,0.0,0.0,0.0,0.0,11.1406,0.0,11.1522,11.1522,11.1522,11.1522,11.1522,11.1522,11.1522,11.1522,11.1522,11.1522,11.1522,11.1522,11.1906,11.2599,11.2714,11.3214,11.3984,11.4791,11.5176,11.5291,11.6099,11.6369,11.6413,0.0,0.0,0.0,0.0,0.0,0.0,0.0,9.4943,9.5445,9.652,9.5752,9.5137,9.5213,9.6135,9.6712,9.6749,9.6749,9.6903,9.725,9.7288,9.7442,9.7788,9.7788,9.775,9.7596,9.7354,9.7057,0.0,0.0,0.0,9.5034,0.0,0.0,0.0,0.0,9.7027,9.7668,9.9065,10.0018,10.0582,10.1912,10.2723,10.3032,10.4001,10.4471,10.4595,10.5213,10.5597,10.5905,10.5905,10.5713,10.5405,10.5405,10.5405,10.5405,10.5405,10.5405,10.5405,10.5405,10.5597,10.5905,10.5905,10.6097,10.6405,10.6405,10.6405,10.6405,10.6405,10.6405,10.6405,10.6405,10.6405,10.6405,0.0,0.0,0.0,0.0,0.0,10.7213,10.7213,10.7598,10.7905,10.7905,10.7905,10.8021,0.0,0.0,0.0,0.0,0.0,0.0,11.1522,0.0,11.1522,11.1522,11.1522,11.1522,11.1522,11.1522,11.1522,11.1522,11.1522,11.1791,11.2214,11.2214,11.2714,11.3483,11.3984,11.4484,11.4907,11.5676,11.5984,11.6099,11.6407,11.6484,11.6529,9.1816,0.0,9.3231,0.0,9.4103,9.5087,9.6478,9.6827,9.7366,9.8634,9.798,9.7326,9.7057,9.8096,9.8788,9.8788,9.8788,9.8788,9.8788,9.8788,9.8788,9.8788,9.8788,0.0,9.8672,9.8554,9.8308,9.8036,9.7578,0.0,0.0,9.6718,0.0,0.0,9.8403,9.9101,9.991,10.1319,10.1988,10.2394,10.3404,10.3881,10.4205,10.5089,10.5592,10.5905,10.6597,10.6905,10.7098,10.7098,10.7098,10.7098,10.6905,10.6905,10.7098,10.7098,10.7098,10.7098,10.7098,10.7098,10.7098,10.7098,10.7098,10.7098,10.7098,10.7098,10.7098,10.7098,10.7098,10.7098,10.7098,10.7098,10.7098,10.7098,0.0,0.0,0.0,10.7713,10.8098,10.8098,10.8598,10.8906,10.8906,10.8906,10.8983,0.0,0.0,0.0,0.0,0.0,0.0,0.0,0.0,0.0,0.0,11.1522,11.1522,11.1522,11.1522,11.1522,11.1522,11.1714,11.2214,11.2714,11.2983,11.3599,11.4407,11.4984,11.5407,11.5676,11.6292,11.6484,11.6484,11.6484,11.6484,11.6484,9.2786,9.4249,9.5604,9.5734,9.7281,9.8556,9.8556,9.8673,9.8788,9.8788,9.9519,9.9712,9.8865,9.8788,9.8788,9.8788,9.8788,9.8788,9.8788,9.8788,9.8788,0.0,0.0,9.8788,9.8788,9.8672,9.8472,9.8298,0.0,0.0,9.7295,9.8091,9.9303,10.0857,10.1281,10.2064,10.3087,10.319,10.341,10.3818,10.4586,10.5015,10.5213,10.6097,10.6905,10.7713,10.7713,10.8213,10.8906,10.8906,10.8906,10.8713,10.7905,10.8213,10.8906,10.8906,10.8906,10.8906,10.8906,10.8906,10.8906,10.8906,10.8906,10.8906,10.8906,10.8906,10.8906,10.8906,10.8906,10.8906,10.8906,10.8906,10.8906,10.8906,0.0,0.0,0.0,10.8906,10.8906,10.8906,10.8906,10.8906,10.8906,10.8906,10.929,0.0,0.0,0.0,0.0,0.0,0.0,11.1522,11.1522,0.0,11.1522,11.1522,11.1522,11.1522,11.1522,11.1522,11.1522,11.2291,11.2714,11.2714,11.3599,11.4484,11.5291,11.5291,11.5792,11.6484,11.6484,11.6484,11.6484,11.6484,11.6484,11.6484,9.6566,9.7116,9.7667,9.7667,9.8248,9.8942,9.9519,9.9673,10.0096,10.1212,10.1597,10.1904,10.2212,10.1212,10.0712,0.0,10.1404,10.1597,0.0,10.2289,10.2289,10.2289,10.2289,10.2289,10.2289,10.2172,10.2092,10.2006,0.0,0.0,0.0,10.142,10.1927,10.2495,10.2667,10.3007,10.3613,10.4188,10.4509,10.471,10.5595,10.6287,10.6905,10.7213,10.779,10.8482,10.8482,10.8713,10.8906,10.8906,10.929,10.9713,10.9483,10.9213,10.8906,10.8906,10.8906,10.8906,10.8906,10.8906,10.8906,10.8906,10.8906,10.8906,10.8906,10.8906,10.8906,10.8906,10.8906,10.8906,10.8906,10.8906,10.8906,10.8906,10.8906,0.0,10.8906,0.0,10.979,10.979,11.0291,11.0714,11.0714,11.0714,0.0,0.0,0.0,0.0,0.0,0.0,0.0,0.0,11.1522,0.0,11.1522,11.1522,11.1522,11.1522,11.1522,11.1791,11.2291,11.2599,11.3291,11.4484,11.4791,11.5407,11.6099,11.6099,11.6292,11.6484,11.6484,11.6484,11.6484,11.6484,11.6484,11.6484,9.8511,9.8823,9.9288,9.9556,9.9942,10.0481,10.1404,10.1481,10.1904,10.2981,10.3097,10.3289,10.3789,10.2904,0.0,10.302,10.3097,10.3289,10.3905,10.3905,10.3905,10.3905,10.3905,10.3905,10.3905,0.0,0.0,10.3702,10.3574,10.3365,10.319,10.3229,10.3504,10.3908,10.3991,10.4313,10.4823,10.563,10.6018,10.6213,10.7021,10.7713,10.8213,10.8213,10.8713,10.9406,10.9406,10.9598,10.9906,10.9906,11.0214,11.0714,11.0714,11.0291,10.9906,10.9906,10.9906,10.9906,10.9906,10.9906,10.9906,10.9906,10.9906,10.9906,10.9906,10.9906,10.9906,10.9906,10.9906,10.9906,10.9906,10.9906,10.9906,10.9906,10.9906,10.9906,10.9906,0.0,11.0714,11.0714,0.0,0.0,0.0,11.1522,11.1522,0.0,0.0,0.0,0.0,0.0,0.0,11.1522,11.1522,0.0,11.1522,11.1522,11.1522,11.1522,11.1791,11.2406,11.3214,11.3483,11.4291,11.5291,11.5599,11.5984,11.6484,11.6484,11.6484,11.6484,11.6484,11.6484,11.6484,11.6484,11.6484,11.6484,9.9135,9.9788,0.0,0.0,10.2212,0.0,10.3789,10.3905,10.3905,10.3982,10.3982,10.3982,10.4097,10.4097,10.4097,10.4097,0.0,0.0,0.0,10.4097,10.4097,10.4097,10.4097,10.4097,10.4097,10.4097,10.4018,10.3894,10.3809,10.3728,10.3728,10.3775,10.4394,10.5204,10.5287,10.579,10.6597,10.7405,10.779,10.779,10.8598,10.8906,10.8983,10.8983,10.9483,11.0291,11.0291,11.0791,11.1522,11.1522,11.1522,11.1522,11.1522,11.1522,11.1522,11.1522,11.1522,11.1522,11.1522,11.1522,11.1522,11.1522,11.1522,11.1522,11.1522,11.1522,11.1522,11.1522,11.1522,11.1522,11.1522,11.1522,11.1522,11.1522,11.1522,11.1522,11.1522,11.1522,11.1522,0.0,0.0,0.0,0.0,11.1522,11.1522,0.0,0.0,0.0,0.0,0.0,11.1522,11.1522,11.1522,11.1522,11.1522,11.1522,11.1522,11.1598,11.2406,11.3214,11.4099,11.4907,11.5291,11.5407,11.6176,11.6484,11.6484,11.6484,11.6484,11.6484,11.6484,11.6484,11.6484,11.6484,11.6484,11.6484,0.0,0.0,10.3097,10.3289,10.3482,10.3712,10.3905,10.3905,10.4097,10.4713,10.4789,10.5097,10.5713,10.579,10.579,10.579,10.5213,10.5097,10.579,10.579,10.579,10.579,10.579,10.579,10.579,10.579,10.5828,10.5787,10.5669,10.5707,10.5707,10.571,10.621,10.7095,10.7098,10.7482,10.829,10.8482,10.8598,10.8598,10.879,10.929,10.9906,10.9906,11.0406,11.1214,11.1214,11.1291,11.1522,11.1522,11.1522,11.1522,11.1522,11.1522,11.1522,11.1522,11.1522,11.1522,11.1522,11.1522,11.1522,11.1522,11.1522,11.1522,11.1522,11.1522,11.1522,11.1522,11.1522,11.1522,11.1522,11.1522,11.1522,11.1522,11.1522,11.1522,11.1522,11.1522,11.1522,0.0,11.1522,11.1522,11.1522,11.1522,11.1522,0.0,0.0,0.0,0.0,11.1522,11.1522,11.1522,11.1522,11.1522,11.1522,11.1522,11.1791,11.2406,11.3291,11.4099,11.4984,11.5215,11.5599,11.6176,11.6407,11.6484,11.6484,11.6484,11.6484,11.6484,11.6484,11.6484,11.6484,11.6484,11.6484,11.6484,10.3789,10.3905,10.3982,10.4405,10.4405,10.4597,10.4982,10.502,10.529,10.6213,10.629,10.6597,10.7482,10.7521,10.7521,10.7521,10.6405,10.6097,10.6905,10.7021,10.7213,10.7521,10.7521,10.7521,10.7521,10.7521,10.7521,10.7521,10.7521,10.7521,10.7521,10.7521,10.779,10.8213,10.8213,10.8482,10.8906,10.929,10.9483,10.9483,10.9906,11.0406,11.0791,11.0791,11.1098,11.1522,11.1522,11.1522,11.1522,11.1522,11.1522,11.1522,11.1522,11.1522,11.1522,11.1522,11.1522,11.1522,11.1522,11.1522,11.1522,11.1522,11.1522,11.1522,11.1522,11.1522,11.1522,11.1522,11.1522,11.1522,11.1522,11.1522,11.1522,11.1522,11.1522,11.1522,11.1522,11.1522,0.0,11.1522,11.1522,11.1522,11.1522,11.1522,11.1522,11.1522,11.1522,0.0,11.1522,11.1522,11.1522,11.1522,11.1522,11.1522,11.1522,11.1906,11.2714,11.3907,11.4407,11.4984,11.5792,11.5792,11.6099,11.6484,11.6484,11.6484,11.6484,11.6484,11.6484,11.6484,11.6484,11.6484,11.6484,11.6484,11.6484,11.6484,10.4289,10.4289,10.4482,10.5405,10.5482,10.579,10.6597,10.679,10.7021,10.779,10.7905,10.8098,10.879,10.8906,10.8906,10.8906,10.7598,10.7098,10.779,10.7905,10.8213,10.8906,10.8906,10.8906,10.8906,10.8906,10.8906,10.8906,10.8906,10.8906,10.8906,10.8906,10.8983,10.9098,10.9098,10.9213,10.929,11.0098,11.0406,11.0483,11.1214,11.1522,11.1522,11.1522,11.1522,11.1522,11.1522,11.1522,11.1522,11.1522,11.1522,11.1522,11.1522,11.1522,11.1522,11.1522,11.1522,11.1522,11.1522,11.1522,11.1522,11.1522,11.1522,11.1522,11.1522,11.1522,11.1522,11.1522,11.1522,11.1522,11.1522,11.1522,11.1522,11.1522,11.1522,11.1522,11.1522,0.0,11.1522,11.1522,11.1522,11.1522,11.1522,11.1522,11.1522,11.1522,11.1522,11.1522,0.0,11.1522,11.1598,11.1714,11.1598,11.1598,11.1714,11.2599,11.3791,11.5291,11.5407,11.5792,11.6484,11.6484,11.6484,11.6484,11.6484,11.6484,11.6484,11.6484,11.6484,11.6484,11.6484,11.6484,11.6484,11.6484,11.6484,11.6484,10.5905,10.602,10.629,10.7098,10.729,10.7598,10.8406,10.8482,10.8598,10.8713,10.8713,10.879,10.8906,10.8906,10.8906,10.8906,10.8713,10.8598,10.8713,10.8713,10.879,10.8906,10.8906,10.8906,10.8906,10.8906,10.8906,10.8906,10.8906,10.8906,10.8906,10.8906,10.929,10.9983,10.9983,11.0406,11.1098,11.1214,11.1291,11.1291,11.1406,11.1522,11.1522,11.1522,11.1522,11.1522,11.1522,11.1522,11.1522,11.1522,11.1522,11.1522,11.1522,11.1522,11.1522,11.1522,11.1522,11.1522,11.1522,11.1522,11.1522,11.1522,11.1522,11.1522,11.1522,11.1522,11.1522,11.1522,11.1522,11.1522,11.1522,11.1522,11.1522,11.1522,11.1522,11.1522,11.1522,0.0,11.1522,11.1522,11.1522,11.1522,11.1522,11.1522,11.1522,11.1522,11.1522,11.1522,11.1522,11.1522,11.1791,11.2522,11.1906,11.1791,11.2522,11.4099,11.4984,11.5291,11.5984,11.6407,11.6484,11.6484,11.6484,11.6484,11.6484,11.6484,11.6484,11.6484,11.6484,11.6484,11.6484,11.6484,11.6484,11.6484,11.6484,11.6599,10.7598,10.7713,10.7905,10.829,10.829,10.8482,10.879,10.8906,10.9098,10.9483,10.9598,10.979,11.0214,11.0291,11.0291,11.0291,11.0291,11.0291,11.0291,10.9906,10.979,11.0291,11.0291,11.0291,11.0291,11.0291,11.0291,11.0291,11.0291,11.0291,11.0291,11.0291,11.0521,11.0906,11.0906,11.1098,11.1522,11.1522,11.1522,11.1522,11.1522,11.1522,11.1522,11.1522,11.1522,11.1522,11.1522,11.1522,11.1522,11.1522,11.1522,11.1522,11.1522,11.1522,11.1522,11.1522,11.1522,11.1522,11.1522,11.1522,11.1522,11.1522,11.1522,11.1522,11.1522,11.1522,11.1522,11.1522,11.1522,11.1522,11.1522,11.1522,11.1522,11.1522,11.1522,0.0,0.0,11.1522,11.1522,11.1522,11.1522,11.1522,11.1522,11.1522,11.1522,11.1522,11.1522,11.1714,11.2099,11.2099,11.2522,11.3407,11.3022,11.3291,11.4099,11.4907,11.5484,11.5984,11.6292,11.6484,11.6484,11.6484,11.6484,11.6484,11.6484,11.6484,11.6484,11.6484,11.6484,11.6484,11.6484,11.6792,11.7215,11.7215,11.7484,11.7984,10.879,10.8906,10.8983,10.9213,10.9213,10.929,10.9483,10.9483,10.9713,11.0406,11.0483,11.0791,11.1406,11.1522,11.1522,11.1522,11.1522,11.1522,11.1522,11.0906,11.0791,11.1522,11.1522,11.1522,11.1522,11.1522,11.1522,11.1522,11.1522,11.1522,11.1522,11.1522,11.1522,11.1522,11.1522,11.1522,11.1522,11.1522,11.1522,11.1522,11.1522,11.1522,11.1522,11.1522,11.1522,11.1522,11.1522,11.1522,11.1522,11.1522,11.1522,11.1522,11.1522,11.1522,11.1522,11.1522,11.1522,11.1522,11.1522,11.1522,11.1522,11.1522,11.1522,11.1522,11.1522,11.1522,11.1522,11.1522,11.1522,11.1522,11.1522,11.1522,11.1522,11.1522,0.0,0.0,0.0,11.1522,11.1522,11.1522,11.1522,11.1522,11.1522,11.1522,11.1598,11.1791,11.1791,11.2099,11.2983,11.3022,11.3407,11.4291,11.4291,11.4599,11.5291,11.5484,11.5907,11.6484,11.6484,11.6484,11.6484,11.6484,11.6484,11.6484,11.6484,11.6484,11.6484,11.6484,11.6599,11.6792,11.6792,11.7292,11.81,11.81,11.8484,11.91,10.8906,10.8906,10.9213,10.9983,11.0098,11.0406,11.1214,11.1291,11.1291,11.1406,11.1406,11.1406,11.1522,11.1522,11.1522,11.1522,11.1522,11.1522,11.1522,11.1406,11.1406,11.1522,11.1522,11.1522,11.1522,11.1522,11.1522,11.1522,11.1522,11.1522,11.1522,11.1522,11.1522,11.1522,11.1522,11.1522,11.1522,11.1522,11.1522,11.1522,11.1522,11.1522,11.1522,11.1522,11.1522,11.1522,11.1522,11.1522,11.1522,11.1522,11.1522,11.1522,11.1522,11.1522,11.1522,11.1522,11.1522,11.1522,11.1522,11.1522,11.1522,11.1522,11.1522,11.1522,11.1522,11.1522,11.1522,11.1522,11.1522,11.1522,11.1522,11.1522,11.1522,11.1522,0.0,0.0,11.1522,11.1522,11.1522,11.1522,11.1522,11.1522,11.1522,11.1522,11.1791,11.2599,11.2599,11.2983,11.3907,11.3907,11.4291,11.5176,11.5215,11.5215,11.5291,11.5984,11.6407,11.6484,11.6484,11.6484,11.6484,11.6484,11.6484,11.6484,11.6484,11.6484,11.6484,11.6484,11.6984,11.7715,11.7715,11.8215,11.8985,11.8985,11.8985,11.9215,11.0406,11.0521,11.0598,11.0906,11.1021,11.1098,11.1406,11.1522,11.1522,11.1522,11.1522,11.1522,11.1522,11.1522,11.1522,11.1522,11.1522,11.1522,11.1522,11.1522,11.1522,11.1522,11.1522,11.1522,11.1522,11.1522,11.1522,11.1522,11.1522,11.1522,11.1522,11.1522,11.1522,11.1522,11.1522,11.1522,11.1522,11.1522,11.1522,11.1522,11.1522,11.1522,11.1522,11.1522,11.1522,11.1522,11.1522,11.1522,11.1522,11.1522,11.1522,11.1522,11.1522,11.1522,11.1522,11.1522,11.1522,11.1522,11.1522,11.1522,11.1522,11.1522,11.1522,11.1522,11.1522,11.1522,11.1522,11.1522,11.1522,11.1522,11.1522,11.1522,11.1522,11.1522,0.0,11.1522,11.1522,11.1522,11.1522,11.1522,11.1906,11.2214,11.2214,11.2714,11.3214,11.3483,11.3483,11.3907,11.4791,11.5291,11.5676,11.5984,11.5984,11.5984,11.5984,11.6292,11.6484,11.6484,11.6484,11.6484,11.6484,11.6484,11.6484,11.6484,11.71,11.7292,11.7292,11.7907,11.8292,11.86,11.86,11.91,11.9792,11.9792,12.0216,12.0677,11.1406,11.1522,11.1522,11.1522,11.1522,11.1522,11.1522,11.1522,11.1522,11.1522,11.1522,11.1522,11.1522,11.1522,11.1522,11.1522,11.1522,11.1522,11.1522,11.1522,11.1522,11.1522,11.1522,11.1522,11.1522,11.1522,11.1522,11.1522,11.1522,11.1522,11.1522,11.1522,11.1522,11.1522,11.1522,11.1522,11.1522,11.1522,11.1522,11.1522,11.1522,11.1522,11.1522,11.1522,11.1522,11.1522,11.1522,11.1522,11.1522,11.1522,11.1522,11.1522,11.1522,11.1522,11.1522,11.1522,11.1522,11.1522,11.1522,11.1714,11.1791,11.1598,11.1522,11.1522,11.1522,11.1522,11.1522,11.1522,11.1522,11.1522,11.1522,11.1714,11.1906,11.1906,11.2099,11.2291,11.2291,11.2291,11.2291,11.2291,11.2791,11.3099,11.3099,11.3599,11.4099,11.4407,11.4407,11.4791,11.5599,11.6176,11.6484,11.6484,11.6484,11.6484,11.6484,11.6484,11.6484,11.6484,11.6484,11.6484,11.6484,11.6792,11.6907,11.6984,11.7792,11.8215,11.8292,11.8908,11.9215,11.9485,11.9485,11.9985,12.0677,12.0677,12.11,12.16,11.1522,11.1522,11.1522,11.1522,11.1522,11.1522,11.1522,11.1522,11.1522,11.1522,11.1522,11.1522,11.1522,11.1522,11.1522,11.1522,11.1522,11.1522,11.1522,11.1522,11.1522,11.1522,11.1522,11.1522,11.1522,11.1522,11.1522,11.1522,11.1522,11.1522,11.1522,11.1522,11.1522,11.1522,11.1522,11.1522,11.1522,11.1522,11.1522,11.1522,11.1522,11.1522,11.1522,11.1522,11.1522,11.1522,11.1522,11.1522,11.1522,11.1522,11.1522,11.1522,11.1522,11.1522,11.1522,11.1522,11.1522,11.1522,11.1522,11.2099,11.2522,11.1714,11.1522,11.1522,11.1522,11.1522,11.1522,11.1522,11.1522,11.1522,11.1522,11.2214,11.2714,11.2714,11.3407,11.3984,11.3984,11.3984,11.3984,11.3984,11.3984,11.3984,11.3984,11.3984,11.4407,11.5215,11.5291,11.5676,11.6484,11.6484,11.6484,11.6484,11.6484,11.6484,11.6484,11.6484,11.6484,11.6484,11.6484,11.6484,11.6484,11.7407,11.7792,11.7907,11.8715,11.91,11.91,11.91,11.96,12.0292,12.0292,12.0793,12.16,12.16,12.16,12.16,11.1522,11.1522,11.1522,11.1522,11.1522,11.1522,11.1522,11.1522,11.1522,11.1522,11.1522,11.1522,11.1522,11.1522,11.1522,11.1522,11.1522,11.1522,11.1522,11.1522,11.1522,11.1522,11.1522,11.1522,11.1522,11.1522,11.1522,11.1522,11.1522,11.1522,11.1522,11.1522,11.1522,11.1522,11.1522,11.1522,11.1522,11.1522,11.1522,11.1522,11.1522,11.1522,11.1522,11.1522,11.1522,11.1522,11.1522,11.1522,11.1598,11.2214,11.2291,11.2406,11.3099,11.3291,11.3291,11.3291,11.3291,11.3291,11.3291,11.3407,11.3407,11.2599,11.2791,11.3291,11.3291,11.3291,11.3291,11.3291,11.3291,11.3291,11.3291,11.3483,11.3599,11.3599,11.3791,11.3984,11.3984,11.3984,11.3984,11.3984,11.4484,11.4907,11.4907,11.5407,11.5907,11.6099,11.6099,11.6176,11.6484,11.6484,11.6484,11.6484,11.6484,11.6792,11.7407,11.6792,11.6792,11.7407,11.7407,11.7715,11.8292,11.86,11.8715,11.8792,11.96,11.9908,11.9985,12.06,12.0985,12.1177,12.1177,12.1408,12.16,12.16,12.16,12.16,11.1522,11.1522,11.1522,11.1522,11.1522,11.1522,11.1522,11.1522,11.1522,11.1522,11.1522,11.1522,11.1522,11.1522,11.1522,11.1522,11.1522,11.1522,11.1522,11.1522,11.1522,11.1522,11.1522,11.1522,11.1522,11.1522,11.1522,11.1522,11.1522,11.1522,11.1522,11.1522,11.1522,11.1522,11.1522,11.1522,11.1522,11.1522,11.1522,11.1522,11.1522,11.1522,11.1522,11.1906,11.2022,11.2022,11.2406,11.2522,11.2599,11.3099,11.3214,11.3291,11.3791,11.3984,11.3984,11.3984,11.3984,11.3984,11.3984,11.4291,11.4407,11.3907,11.3907,11.3984,11.3984,11.3984,11.3984,11.3984,11.3984,11.3984,11.3984,11.4291,11.4484,11.4484,11.4791,11.4984,11.4984,11.4984,11.4984,11.4984,11.5484,11.5792,11.5792,11.6176,11.6484,11.6484,11.6484,11.6484,11.6484,11.6484,11.6676,11.6984,11.6984,11.7407,11.8292,11.7792,11.7792,11.8292,11.8292,11.86,11.91,11.9408,11.96,11.96,12.0485,12.0793,12.0908,12.1408,12.16,12.16,12.16,12.16,12.16,12.16,12.16,12.16,11.1522,11.1522,11.1522,11.1522,11.1522,11.1522,11.1522,11.1522,11.1522,11.1522,11.1522,11.1522,11.1522,11.1522,11.1522,11.1522,11.1522,11.1522,11.1522,11.1522,11.1522,11.1522,11.1522,11.1522,11.1522,11.1522,11.1522,11.1522,11.1522,11.1522,11.1522,11.1522,11.1522,11.1522,11.1522,11.1522,11.1522,11.1598,11.1598,11.1598,11.1714,11.1714,11.1791,11.2522,11.2791,11.2906,11.3714,11.3984,11.3984,11.4099,11.4214,11.4214,11.4214,11.4214,11.4214,11.4214,11.4214,11.4214,11.4214,11.4791,11.5407,11.5407,11.4791,11.4214,11.4214,11.4214,11.4214,11.4214,11.4214,11.4214,11.4214,11.4907,11.5407,11.5407,11.5984,11.6484,11.6484,11.6484,11.6484,11.6484,11.6484,11.6484,11.6484,11.6484,11.6484,11.6484,11.6484,11.6484,11.6599,11.6599,11.6984,11.7907,11.7907,11.8292,11.9215,11.9215,11.9215,11.9215,11.9215,11.9215,11.9292,12.01,12.0408,12.0485,12.1293,12.16,12.16,12.16,12.16,12.16,12.16,12.16,12.16,12.16,12.16,12.16,11.1522,11.1522,11.1522,11.1522,11.1522,11.1522,11.1522,11.1522,11.1522,11.1522,11.1522,11.1522,11.1522,11.1522,11.1522,11.1522,11.1522,11.1522,11.1522,11.1522,11.1522,11.1522,11.1522,11.1522,11.1522,11.1522,11.1522,11.1522,11.1522,11.1522,11.1522,11.1522,11.1522,11.1522,11.1522,11.1522,11.1522,11.2214,11.2406,11.2522,11.3214,11.3483,11.3483,11.3714,11.3714,11.3714,11.3907,11.3984,11.4099,11.4791,11.5407,11.5984,11.5984,11.5984,11.5984,11.5984,11.5984,11.5984,11.5984,11.6099,11.6176,11.6176,11.6099,11.5984,11.5984,11.5984,11.5984,11.5984,11.5984,11.5984,11.5984,11.6099,11.6176,11.6176,11.6407,11.6484,11.6484,11.6484,11.6484,11.6484,11.6484,11.6484,11.6484,11.6484,11.6484,11.6484,11.6484,11.6792,11.7484,11.7484,11.7907,11.8792,11.8792,11.9215,11.9985,11.9985,11.9985,11.9985,11.9985,12.0408,12.11,12.1177,12.1293,12.1293,12.1485,12.16,12.16,12.16,12.16,12.16,12.16,12.16,12.16,12.16,12.16,12.16,11.1522,11.1522,11.1522,11.1522,11.1522,11.1522,11.1522,11.1522,11.1522,11.1522,11.1522,11.1522,11.1522,11.1522,11.1522,11.1522,11.1522,11.1714,11.2022,11.2099,11.2291,11.2714,11.2714,11.2714,11.2714,11.2714,11.2291,11.1522,11.1906,11.2099,11.2099,11.2522,11.2714,11.2714,11.2714,11.2714,11.2714,11.3099,11.3291,11.3407,11.3791,11.3984,11.3984,11.4484,11.4599,11.4714,11.5099,11.5215,11.5291,11.5676,11.6176,11.6484,11.6484,11.6484,11.6484,11.6484,11.6484,11.6484,11.6484,11.6484,11.6484,11.6484,11.6484,11.6484,11.6484,11.6484,11.6484,11.6484,11.6484,11.6484,11.6484,11.6484,11.6484,11.6484,11.6484,11.6484,11.6484,11.6484,11.6484,11.6484,11.6484,11.6484,11.6484,11.6484,11.6676,11.71,11.71,11.7484,11.8407,11.8407,11.8792,11.96,11.9715,12.01,12.0908,12.0908,12.0908,12.0908,12.0908,12.1177,12.16,12.16,12.16,12.16,12.16,12.16,12.16,12.16,12.16,12.16,12.16,12.16,12.16,12.16,12.16,12.16,11.1522,11.1522,11.1522,11.1522,11.1522,11.1522,11.1522,11.1522,11.1522,11.1714,11.1714,11.1791,11.1906,11.1906,11.1906,11.1906,11.1906,11.2214,11.2906,11.2906,11.3214,11.3984,11.3984,11.3984,11.3984,11.3984,11.3291,11.1906,11.2599,11.2906,11.2906,11.3714,11.3984,11.3984,11.3984,11.3984,11.3984,11.4214,11.4214,11.4214,11.4407,11.4407,11.4484,11.5215,11.5484,11.5599,11.6292,11.6484,11.6484,11.6484,11.6484,11.6484,11.6484,11.6484,11.6484,11.6484,11.6484,11.6484,11.6484,11.6484,11.6484,11.6484,11.6484,11.6484,11.6484,11.6484,11.6484,11.6484,11.6484,11.6484,11.6484,11.6484,11.6484,11.6484,11.6484,11.6484,11.6484,11.6484,11.6484,11.6484,11.6484,11.6599,11.6676,11.6676,11.71,11.7984,11.8023,11.8407,11.9292,11.9292,11.9715,12.0485,12.0485,12.0908,12.16,12.16,12.16,12.16,12.16,12.16,12.16,12.16,12.16,12.16,12.16,12.16,12.16,12.16,12.16,12.16,12.16,12.16,12.16,12.16,12.16,12.16,11.1522,11.1522,11.1522,11.1522,11.1522,11.1522,11.1522,11.1522,11.1714,11.2406,11.2522,11.2791,11.3599,11.3714,11.3714,11.3714,11.3714,11.3714,11.3791,11.3791,11.3907,11.3984,11.3984,11.3984,11.3984,11.3984,11.3907,11.3714,11.3791,11.3791,11.3791,11.3907,11.3984,11.3984,11.3984,11.3984,11.3984,11.4791,11.5099,11.5176,11.5907,11.6176,11.6176,11.6292,11.6292,11.6407,11.6484,11.6484,11.6484,11.6484,11.6484,11.6484,11.6484,11.6484,11.6484,11.6484,11.6484,11.6484,11.6484,11.6484,11.6484,11.6484,11.6484,11.6484,11.6484,11.6484,11.6484,11.6484,11.6484,11.6484,11.6484,11.6484,11.6484,11.6484,11.6484,11.6484,11.6484,11.6484,11.6484,11.6484,11.6484,11.6792,11.76,11.76,11.7984,11.8908,11.8908,11.9292,12.01,12.01,12.0485,12.1408,12.1408,12.1485,12.16,12.16,12.16,12.16,12.16,12.16,12.16,12.16,12.16,12.16,12.16,12.16,12.16,12.16,12.16,12.16,12.16,12.16,12.16,12.16,12.16,12.16,11.1522,11.1906,11.2214,11.2214,11.2599,11.2906,11.2906,11.2906,11.2983,11.3407,11.3407,11.3599,11.3984,11.3984,11.3984,11.3984,11.3984,11.4214,11.4714,11.4714,11.4907,11.5407,11.5407,11.5407,11.5407,11.5407,11.5407,11.5407,11.4907,11.4714,11.4714,11.5215,11.5407,11.5407,11.5407,11.5407,11.5407,11.5792,11.5984,11.5984,11.6407,11.6484,11.6484,11.6484,11.6484,11.6484,11.6484,11.6484,11.6484,11.6484,11.6484,11.6484,11.6484,11.6484,11.6484,11.6484,11.6484,11.6484,11.6484,11.6484,11.6484,11.6484,11.6484,11.6484,11.6484,11.6484,11.6484,11.6484,11.6484,11.6484,11.6484,11.6484,11.6484,11.6484,11.6484,11.6484,11.6484,11.6484,11.6676,11.7215,11.7677,11.81,11.8484,11.8484,11.8908,11.9715,11.9792,12.01,12.0985,12.0985,12.1177,12.16,12.16,12.16,12.16,12.16,12.16,12.16,12.16,12.16,12.16,12.16,12.16,12.16,12.16,12.16,12.16,12.16,12.16,12.16,12.16,12.16,12.16,12.16,12.16,12.16]},{"header":{"parameterUnit":"m.s-1","parameterCategory":1,"la1":30.6,"la2":28.766,"lo1":-90.7593,"lo2":-88.6598,"dy":0.0162,"dx":0.0183,"nx":116,"ny":114,"refTime":"2024-01-31T18:00:00:Z","depth":0,"parameterNumber":3,"parameterNumberName":"V-component_of_WINDS"},"data":[0.0,0.0,0.0,0.0,0.0,0.0,0.0,0.0,0.0,0.0,0.0,0.0,0.0,0.0,0.0,0.0,0.0,0.0,0.0,0.0,0.0,0.0,0.0,0.0,0.0,0.0,0.0,0.0,0.0,0.0,0.0,0.0,0.0,0.0,0.0,0.0,0.0,0.0,0.0,0.0,0.0,0.0,0.0,0.0,0.0,0.0,0.0,0.0,0.0,0.0,0.0,0.0,0.0,0.0,0.0,0.0,0.0,0.0,0.0,0.0,0.0,0.0,0.0,0.0,0.0,0.0,0.0,0.0,0.0,0.0,0.0,0.0,0.0,0.0,0.0,0.0,0.0,0.0,0.0,0.0,0.0,0.0,0.0,0.0,0.0,0.0,0.0,0.0,0.0,0.0,0.0,0.0,0.0,0.0,0.0,0.0,0.0,0.0,0.0,0.0,0.0,0.0,0.0,0.0,0.0,0.0,0.0,0.0,0.0,0.0,0.0,0.0,0.0,0.0,0.0,0.0,0.0,0.0,0.0,0.0,0.0,0.0,0.0,0.0,0.0,0.0,0.0,0.0,0.0,0.0,0.0,0.0,0.0,0.0,0.0,0.0,0.0,0.0,0.0,0.0,0.0,0.0,0.0,0.0,0.0,0.0,0.0,0.0,0.0,0.0,0.0,0.0,0.0,0.0,0.0,0.0,0.0,0.0,0.0,0.0,0.0,0.0,0.0,0.0,0.0,0.0,0.0,0.0,0.0,0.0,0.0,0.0,0.0,0.0,0.0,0.0,0.0,0.0,0.0,0.0,0.0,0.0,0.0,0.0,0.0,0.0,0.0,0.0,0.0,0.0,0.0,0.0,0.0,0.0,0.0,0.0,0.0,0.0,0.0,0.0,0.0,0.0,0.0,0.0,0.0,0.0,0.0,0.0,0.0,0.0,0.0,0.0,0.0,0.0,0.0,0.0,0.0,0.0,0.0,0.0,0.0,0.0,0.0,0.0,0.0,0.0,0.0,0.0,0.0,0.0,0.0,0.0,0.0,0.0,0.0,0.0,0.0,0.0,0.0,0.0,0.0,0.0,0.0,0.0,0.0,0.0,0.0,0.0,0.0,0.0,0.0,0.0,0.0,0.0,0.0,0.0,0.0,0.0,0.0,0.0,0.0,0.0,0.0,0.0,0.0,0.0,0.0,0.0,0.0,0.0,0.0,0.0,0.0,0.0,0.0,0.0,0.0,0.0,0.0,0.0,0.0,0.0,0.0,0.0,0.0,0.0,0.0,0.0,0.0,0.0,0.0,0.0,0.0,0.0,0.0,0.0,0.0,0.0,0.0,0.0,0.0,0.0,0.0,0.0,0.0,0.0,0.0,0.0,0.0,0.0,0.0,0.0,0.0,0.0,0.0,0.0,0.0,0.0,0.0,0.0,0.0,0.0,0.0,0.0,0.0,0.0,0.0,0.0,0.0,0.0,0.0,0.0,0.0,0.0,0.0,0.0,0.0,0.0,0.0,0.0,0.0,0.0,0.0,0.0,0.0,0.0,0.0,0.0,0.0,0.0,0.0,0.0,0.0,0.0,0.0,0.0,0.0,0.0,0.0,0.0,0.0,0.0,0.0,0.0,0.0,0.0,0.0,0.0,0.0,0.0,0.0,0.0,0.0,0.0,0.0,0.0,0.0,0.0,0.0,0.0,0.0,0.0,0.0,0.0,0.0,0.0,0.0,0.0,0.0,0.0,0.0,0.0,0.0,0.0,0.0,0.0,0.0,0.0,0.0,0.0,0.0,0.0,0.0,0.0,0.0,0.0,0.0,0.0,0.0,0.0,0.0,0.0,0.0,0.0,0.0,0.0,0.0,0.0,0.0,0.0,0.0,0.0,0.0,0.0,0.0,0.0,0.0,0.0,0.0,0.0,0.0,0.0,0.0,0.0,0.0,0.0,0.0,0.0,0.0,0.0,0.0,0.0,0.0,0.0,0.0,0.0,0.0,0.0,0.0,0.0,0.0,0.0,0.0,0.0,0.0,0.0,0.0,0.0,0.0,0.0,0.0,0.0,0.0,0.0,0.0,0.0,0.0,0.0,0.0,0.0,0.0,0.0,0.0,0.0,0.0,0.0,0.0,0.0,0.0,0.0,0.0,0.0,0.0,0.0,0.0,0.0,0.0,0.0,0.0,0.0,0.0,0.0,0.0,0.0,0.0,0.0,0.0,0.0,0.0,0.0,0.0,0.0,0.0,0.0,0.0,0.0,0.0,0.0,0.0,0.0,0.0,0.0,0.0,0.0,0.0,0.0,0.0,0.0,0.0,0.0,0.0,0.0,0.0,0.0,0.0,0.0,0.0,0.0,0.0,0.0,0.0,0.0,0.0,0.0,0.0,0.0,0.0,0.0,0.0,0.0,0.0,0.0,0.0,0.0,0.0,0.0,0.0,0.0,0.0,0.0,0.0,0.0,0.0,0.0,0.0,0.0,0.0,0.0,0.0,0.0,0.0,0.0,0.0,0.0,0.0,0.0,0.0,0.0,0.0,0.0,0.0,0.0,0.0,0.0,0.0,0.0,0.0,0.0,0.0,0.0,0.0,0.0,0.0,0.0,0.0,0.0,0.0,0.0,0.0,0.0,0.0,0.0,0.0,0.0,0.0,0.0,0.0,0.0,0.0,0.0,0.0,0.0,0.0,0.0,0.0,0.0,0.0,0.0,0.0,0.0,0.0,0.0,0.0,0.0,0.0,0.0,0.0,0.0,0.0,0.0,0.0,0.0,0.0,0.0,0.0,0.0,0.0,0.0,0.0,0.0,0.0,0.0,0.0,0.0,0.0,0.0,0.0,0.0,0.0,0.0,0.0,0.0,0.0,0.0,0.0,0.0,0.0,0.0,0.0,0.0,0.0,0.0,0.0,0.0,0.0,0.0,0.0,0.0,0.0,0.0,0.0,0.0,0.0,0.0,0.0,0.0,0.0,0.0,0.0,0.0,0.0,0.0,0.0,0.0,0.0,0.0,0.0,0.0,0.0,0.0,0.0,0.0,0.0,0.0,0.0,0.0,0.0,0.0,0.0,0.0,0.0,0.0,0.0,0.0,0.0,0.0,0.0,0.0,0.0,0.0,0.0,0.0,0.0,0.0,0.0,0.0,0.0,0.0,0.0,0.0,0.0,0.0,0.0,0.0,0.0,0.0,0.0,0.0,0.0,0.0,0.0,0.0,0.0,0.0,0.0,0.0,0.0,0.0,0.0,0.0,0.0,0.0,0.0,0.0,0.0,0.0,0.0,0.0,0.0,0.0,0.0,0.0,0.0,0.0,0.0,0.0,0.0,0.0,0.0,0.0,0.0,0.0,0.0,0.0,0.0,0.0,0.0,0.0,0.0,0.0,0.0,0.0,0.0,0.0,0.0,0.0,0.0,0.0,0.0,0.0,0.0,0.0,0.0,0.0,0.0,0.0,0.0,0.0,0.0,0.0,0.0,0.0,0.0,0.0,0.0,0.0,0.0,0.0,0.0,0.0,0.0,0.0,0.0,0.0,0.0,0.0,0.0,0.0,0.0,0.0,0.0,0.0,0.0,0.0,0.0,0.0,0.0,0.0,0.0,0.0,0.0,0.0,0.0,0.0,0.0,0.0,0.0,0.0,0.0,0.0,0.0,0.0,0.0,0.0,0.0,0.0,0.0,0.0,0.0,0.0,0.0,0.0,0.0,0.0,0.0,0.0,0.0,0.0,0.0,0.0,0.0,0.0,0.0,0.0,0.0,0.0,0.0,0.0,0.0,0.0,0.0,0.0,0.0,0.0,0.0,0.0,0.0,0.0,0.0,0.0,0.0,0.0,0.0,0.0,0.0,0.0,0.0,0.0,0.0,0.0,0.0,0.0,0.0,0.0,0.0,0.0,0.0,0.0,0.0,0.0,0.0,0.0,0.0,0.0,0.0,0.0,0.0,0.0,0.0,0.0,0.0,0.0,0.0,0.0,0.0,0.0,0.0,0.0,0.0,0.0,0.0,0.0,0.0,0.0,0.0,0.0,0.0,0.0,0.0,0.0,0.0,0.0,0.0,0.0,0.0,0.0,0.0,0.0,0.0,0.0,0.0,0.0,0.0,0.0,0.0,0.0,0.0,0.0,0.0,0.0,0.0,0.0,0.0,0.0,0.0,0.0,0.0,0.0,0.0,0.0,0.0,0.0,0.0,0.0,0.0,0.0,0.0,0.0,0.0,0.0,0.0,0.0,0.0,0.0,0.0,0.0,0.0,0.0,0.0,0.0,0.0,0.0,0.0,0.0,0.0,0.0,0.0,0.0,0.0,0.0,0.0,0.0,0.0,0.0,0.0,0.0,0.0,0.0,0.0,0.0,0.0,0.0,0.0,0.0,0.0,0.0,0.0,0.0,0.0,0.0,0.0,0.0,0.0,0.0,0.0,0.0,0.0,0.0,0.0,0.0,0.0,0.0,0.0,0.0,0.0,0.0,0.0,0.0,0.0,0.0,0.0,0.0,0.0,0.0,0.0,0.0,0.0,0.0,0.0,0.0,0.0,0.0,0.0,0.0,0.0,0.0,0.0,0.0,0.0,0.0,0.0,0.0,0.0,0.0,0.0,0.0,0.0,0.0,0.0,0.0,0.0,0.0,0.0,0.0,0.0,0.0,0.0,0.0,0.0,0.0,0.0,0.0,0.0,0.0,0.0,0.0,0.0,0.0,0.0,0.0,0.0,0.0,0.0,0.0,0.0,0.0,0.0,0.0,0.0,0.0,0.0,0.0,0.0,0.0,0.0,0.0,0.0,0.0,0.0,0.0,0.0,0.0,0.0,0.0,0.0,0.0,0.0,0.0,0.0,0.0,0.0,0.0,0.0,0.0,0.0,0.0,0.0,0.0,0.0,0.0,0.0,0.0,0.0,0.0,0.0,0.0,0.0,0.0,0.0,0.0,0.0,0.0,0.0,0.0,0.0,0.0,0.0,0.0,0.0,0.0,0.0,0.0,0.0,0.0,0.0,0.0,0.0,0.0,0.0,0.0,0.0,0.0,0.0,0.0,0.0,0.0,0.0,0.0,0.0,0.0,0.0,0.0,0.0,0.0,0.0,0.0,0.0,0.0,0.0,0.0,0.0,0.0,0.0,0.0,0.0,0.0,0.0,0.0,0.0,0.0,0.0,0.0,0.0,0.0,0.0,0.0,0.0,0.0,0.0,0.0,0.0,0.0,0.0,0.0,0.0,0.0,0.0,0.0,0.0,0.0,0.0,0.0,0.0,0.0,0.0,0.0,0.0,0.0,0.0,0.0,0.0,0.0,0.0,0.0,0.0,0.0,0.0,0.0,0.0,0.0,0.0,0.0,0.0,0.0,0.0,0.0,0.0,0.0,0.0,0.0,0.0,0.0,0.0,0.0,0.0,0.0,0.0,0.0,0.0,0.0,0.0,0.0,0.0,0.0,0.0,0.0,0.0,0.0,0.0,0.0,0.0,0.0,0.0,0.0,0.0,0.0,0.0,0.0,0.0,0.0,0.0,0.0,0.0,0.0,0.0,0.0,0.0,0.0,0.0,0.0,0.0,0.0,0.0,0.0,0.0,0.0,0.0,0.0,0.0,0.0,0.0,0.0,0.0,0.0,0.0,0.0,0.0,0.0,0.0,0.0,0.0,0.0,0.0,0.0,0.0,0.0,0.0,0.0,0.0,0.0,0.0,0.0,0.0,0.0,0.0,0.0,0.0,0.0,0.0,0.0,0.0,0.0,0.0,0.0,0.0,0.0,0.0,0.0,0.0,0.0,0.0,0.0,0.0,0.0,0.0,0.0,0.0,0.0,0.0,0.0,0.0,0.0,0.0,0.0,0.0,0.0,0.0,0.0,0.0,0.0,0.0,0.0,0.0,0.0,0.0,0.0,0.0,0.0,0.0,0.0,0.0,0.0,0.0,0.0,0.0,0.0,0.0,0.0,0.0,0.0,0.0,0.0,0.0,0.0,0.0,0.0,0.0,0.0,0.0,0.0,0.0,0.0,0.0,0.0,0.0,0.0,0.0,0.0,0.0,0.0,0.0,0.0,0.0,0.0,0.0,0.0,0.0,0.0,0.0,0.0,0.0,0.0,0.0,0.0,0.0,0.0,0.0,0.0,0.0,0.0,-1.9832,0.0,0.0,0.0,0.0,0.0,0.0,0.0,0.0,0.0,0.0,0.0,0.0,0.0,0.0,0.0,0.0,0.0,0.0,0.0,0.0,0.0,0.0,0.0,0.0,0.0,0.0,0.0,0.0,0.0,0.0,0.0,0.0,0.0,0.0,0.0,-2.2859,-2.3006,-2.3166,-2.3327,-2.3474,-2.3621,-2.3768,-2.3447,-2.33,-2.33,0.0,0.0,0.0,0.0,0.0,0.0,0.0,0.0,0.0,0.0,0.0,0.0,0.0,0.0,0.0,0.0,0.0,0.0,0.0,0.0,0.0,0.0,0.0,0.0,0.0,0.0,0.0,0.0,0.0,0.0,0.0,0.0,0.0,0.0,0.0,0.0,0.0,0.0,0.0,0.0,0.0,0.0,0.0,0.0,0.0,0.0,0.0,0.0,0.0,0.0,0.0,0.0,0.0,0.0,0.0,0.0,0.0,0.0,0.0,0.0,0.0,0.0,0.0,0.0,0.0,0.0,0.0,0.0,0.0,0.0,0.0,-1.9243,0.0,0.0,0.0,0.0,0.0,0.0,0.0,0.0,0.0,0.0,0.0,0.0,0.0,0.0,0.0,0.0,0.0,0.0,0.0,0.0,0.0,0.0,0.0,-2.2859,-2.2859,-2.2859,-2.2859,-2.2859,0.0,0.0,0.0,0.0,0.0,-2.2939,-2.2939,-2.3247,-2.3434,-2.3487,-2.3781,-2.3928,-2.3928,-2.3928,-2.3928,-2.3915,-2.3821,0.0,0.0,0.0,0.0,0.0,0.0,0.0,0.0,0.0,0.0,0.0,0.0,0.0,0.0,0.0,0.0,0.0,0.0,0.0,0.0,0.0,0.0,0.0,0.0,0.0,0.0,0.0,0.0,0.0,0.0,0.0,0.0,0.0,0.0,0.0,0.0,0.0,0.0,0.0,0.0,0.0,0.0,0.0,0.0,0.0,0.0,0.0,0.0,0.0,0.0,0.0,0.0,0.0,0.0,0.0,0.0,0.0,0.0,0.0,0.0,0.0,0.0,0.0,-1.6372,-1.5979,-1.5329,-1.5337,-1.5337,-1.5329,-1.6634,-1.7657,-1.8572,0.0,0.0,0.0,0.0,0.0,0.0,0.0,0.0,0.0,0.0,0.0,0.0,0.0,0.0,0.0,0.0,0.0,0.0,0.0,0.0,0.0,0.0,-2.2859,-2.2859,-2.2859,-2.2859,-2.2859,-2.2859,0.0,-2.2859,-2.2859,-2.3113,-2.326,-2.326,-2.3567,-2.3834,-2.4088,-2.4382,-2.4516,-2.4516,-2.4516,-2.4516,-2.4502,-2.3995,0.0,0.0,0.0,0.0,0.0,0.0,0.0,0.0,0.0,0.0,0.0,0.0,0.0,0.0,0.0,0.0,0.0,0.0,0.0,0.0,0.0,0.0,0.0,0.0,0.0,0.0,0.0,0.0,0.0,0.0,0.0,0.0,0.0,0.0,0.0,0.0,0.0,0.0,0.0,0.0,0.0,0.0,0.0,-2.3367,-2.3621,0.0,0.0,0.0,0.0,0.0,0.0,0.0,0.0,0.0,0.0,0.0,0.0,0.0,-1.8404,-1.7961,-1.6912,-1.638,-1.6098,-1.5772,-1.5472,-1.5329,-1.5026,-1.4867,-1.4875,-1.4846,0.0,-1.7038,-1.7845,0.0,0.0,0.0,0.0,0.0,0.0,0.0,0.0,0.0,0.0,0.0,0.0,0.0,0.0,0.0,0.0,0.0,0.0,0.0,0.0,0.0,-2.2859,-2.2859,-2.2859,-2.2859,-2.2859,-2.2859,-2.2859,-2.2939,-2.3113,-2.326,-2.3407,-2.3567,-2.3861,-2.4155,-2.4449,-2.4569,-2.4636,-2.4636,-2.4636,-2.4636,-2.4623,-2.4369,-2.4262,-2.4262,-2.4262,0.0,0.0,0.0,0.0,0.0,0.0,0.0,0.0,0.0,0.0,0.0,0.0,0.0,0.0,0.0,0.0,0.0,0.0,0.0,0.0,0.0,0.0,0.0,0.0,0.0,0.0,0.0,0.0,0.0,0.0,0.0,0.0,0.0,0.0,0.0,0.0,0.0,0.0,0.0,-2.3487,-2.3621,-2.3754,-2.3915,-2.4008,0.0,0.0,0.0,0.0,0.0,0.0,0.0,0.0,0.0,-1.9604,-1.8154,-1.7105,-1.6486,-1.5622,-1.5074,-1.4685,-1.4524,-1.4408,-1.4334,-1.4016,-1.4016,-1.4023,-1.3931,-1.4408,-1.531,-1.6606,-1.7888,-1.9164,0.0,0.0,0.0,0.0,-2.0772,-1.9654,0.0,0.0,0.0,0.0,0.0,0.0,0.0,0.0,0.0,0.0,0.0,0.0,-2.2859,-2.2859,-2.2859,-2.2859,-2.2859,-2.2859,-2.2859,-2.2939,-2.3086,-2.3313,-2.3474,-2.3647,-2.3875,-2.4168,-2.4422,-2.4636,-2.4636,-2.4636,-2.4636,-2.4636,-2.4636,-2.4636,-2.4636,-2.4636,-2.4636,-2.4636,-2.4636,-2.4623,0.0,0.0,0.0,0.0,0.0,0.0,0.0,0.0,0.0,0.0,0.0,0.0,0.0,0.0,0.0,0.0,0.0,0.0,0.0,0.0,0.0,0.0,0.0,0.0,0.0,0.0,0.0,0.0,0.0,0.0,0.0,0.0,0.0,0.0,0.0,0.0,0.0,-2.3888,-2.3915,-2.3981,-2.4182,-2.4315,0.0,0.0,0.0,0.0,0.0,0.0,-2.2271,-2.0748,-1.9429,-1.8661,-1.7127,-1.6048,-1.5265,-1.4662,-1.4253,-1.3725,-1.3725,-1.3617,-1.3403,-1.3403,-1.3403,-1.3403,-1.3403,-1.3569,-1.4066,-1.5546,-1.6681,-1.7656,-1.8971,-1.946,-1.9287,-1.9785,-1.9134,-1.7828,0.0,0.0,0.0,0.0,0.0,0.0,0.0,0.0,0.0,0.0,0.0,-2.2859,-2.2859,-2.2859,-2.2859,-2.2859,-2.2859,-2.2859,-2.2859,-2.314,-2.3313,-2.3327,-2.3861,-2.4168,-2.4182,-2.4462,-2.4623,-2.4636,-2.4636,-2.4636,-2.4636,-2.4636,-2.4636,-2.4636,-2.4636,-2.4636,-2.4636,-2.4636,-2.4636,-2.4636,-2.4623,0.0,0.0,0.0,0.0,0.0,0.0,0.0,0.0,0.0,0.0,0.0,0.0,0.0,0.0,0.0,0.0,0.0,0.0,0.0,0.0,0.0,0.0,0.0,0.0,0.0,0.0,0.0,0.0,0.0,0.0,0.0,0.0,0.0,0.0,0.0,0.0,0.0,0.0,-2.4556,-2.4609,0.0,0.0,0.0,0.0,-2.4436,-2.4239,-2.3778,-2.3007,-2.1313,-1.9918,-1.8671,-1.679,-1.5432,-1.463,-1.3802,-1.3383,-1.339,-1.339,-1.339,-1.3403,-1.3403,-1.3403,-1.3403,-1.3403,-1.3403,-1.3569,-1.439,-1.5373,-1.6188,-1.6689,-1.7182,-1.7337,-1.7018,-1.6525,-1.6024,0.0,0.0,0.0,0.0,0.0,0.0,0.0,0.0,-2.4224,-2.4102,-2.3406,-2.2859,-2.2859,-2.2859,-2.2859,-2.2859,-2.2859,-2.2953,-2.3153,-2.326,-2.35,-2.3875,-2.4088,-2.4289,-2.4476,-2.4583,-2.4636,-2.4636,-2.4823,-2.4917,-2.493,-2.5117,-2.5197,-2.5197,-2.5197,-2.5197,-2.517,-2.4796,-2.4636,-2.4636,-2.4636,-2.4636,0.0,0.0,0.0,0.0,0.0,0.0,0.0,0.0,0.0,0.0,0.0,0.0,0.0,0.0,0.0,0.0,0.0,0.0,0.0,0.0,0.0,0.0,0.0,0.0,0.0,0.0,0.0,0.0,0.0,0.0,0.0,0.0,0.0,0.0,0.0,0.0,0.0,-2.4623,-2.481,0.0,-2.4917,-2.5184,-2.5053,-2.4431,-2.3753,-2.2793,-2.1232,-1.982,-1.8455,-1.6982,-1.5739,-1.4795,-1.431,-1.3707,-1.3403,-1.3403,-1.3403,-1.3403,-1.3403,-1.3403,-1.3403,-1.3403,-1.3403,-1.3403,-1.3397,-1.3728,-1.4225,-1.4886,-1.5546,-1.5703,-1.5703,-1.5867,-1.5381,-1.4721,0.0,0.0,0.0,0.0,0.0,0.0,0.0,0.0,-2.436,-2.4088,-2.3406,-2.2859,-2.2859,-2.2859,-2.2859,-2.2859,-2.2953,-2.31,-2.3313,-2.3514,-2.3794,-2.4182,-2.4302,-2.4436,-2.4636,-2.473,-2.4783,-2.4783,-2.5077,-2.5224,-2.5237,-2.5424,-2.5518,-2.5518,-2.5518,-2.5518,-2.5491,-2.509,-2.493,-2.493,-2.4823,-2.4783,-2.4783,0.0,0.0,0.0,0.0,0.0,0.0,0.0,0.0,0.0,0.0,0.0,0.0,0.0,0.0,0.0,0.0,0.0,0.0,0.0,0.0,0.0,0.0,0.0,0.0,0.0,0.0,0.0,0.0,0.0,0.0,0.0,0.0,0.0,0.0,0.0,-2.4823,-2.4917,-2.5104,-2.5224,-2.5073,-2.5338,-2.5035,-2.4108,-2.3405,-2.2268,-2.0366,-1.9262,-1.7864,-1.6369,-1.5381,-1.4721,-1.4066,-1.3569,-1.3403,-1.3403,-1.3403,-1.3403,-1.3403,-1.3403,-1.3403,-1.3403,-1.3403,-1.3403,-1.3403,-1.3403,-1.3569,-1.3901,-1.4555,-1.4555,-1.4225,-1.4555,-1.439,-1.3901,0.0,0.0,0.0,0.0,0.0,0.0,0.0,-2.5442,-2.436,-2.4102,-2.3406,-2.2859,-2.2859,-2.2859,-2.2859,-2.2873,-2.3153,-2.334,-2.3354,-2.3888,-2.4209,-2.4222,-2.4489,-2.4636,-2.4649,-2.493,-2.5077,-2.509,-2.5384,-2.5531,-2.5531,-2.5531,-2.5545,-2.5545,-2.5545,-2.5545,-2.5545,-2.5545,-2.5545,-2.5518,-2.5211,-2.509,-2.5064,0.0,0.0,0.0,0.0,0.0,0.0,0.0,0.0,0.0,0.0,0.0,0.0,0.0,0.0,0.0,0.0,0.0,0.0,0.0,0.0,0.0,0.0,0.0,0.0,0.0,0.0,0.0,0.0,0.0,0.0,0.0,0.0,0.0,-2.509,-2.509,-2.5197,-2.5478,-2.5518,-2.5378,-2.4905,-2.5166,-2.471,-2.3466,-2.3206,-2.2372,-2.0607,-1.9632,-1.85,-1.6698,-1.5875,-1.4886,-1.4066,-1.3569,-1.3403,-1.3403,-1.3403,-1.3403,-1.3403,-1.3403,-1.3403,-1.341,-1.341,-1.341,-1.3417,-1.3417,-1.3417,-1.3417,-1.341,-1.341,-1.341,-1.341,-1.3417,-1.3417,0.0,0.0,0.0,0.0,0.0,0.0,0.0,-2.5307,-2.4224,-2.3679,-2.3133,-2.2859,-2.2859,-2.2859,-2.2953,-2.318,-2.3273,-2.3514,-2.3928,-2.4115,-2.4302,-2.4502,-2.4596,0.0,-2.4957,-2.5037,-2.5184,-2.5398,-2.5692,-2.5838,-2.5838,-2.6052,-2.6146,-2.6146,-2.6146,-2.6146,-2.6146,-2.6146,-2.6146,-2.6106,-2.5598,-2.5398,-2.5384,0.0,0.0,0.0,0.0,0.0,0.0,0.0,0.0,0.0,0.0,0.0,0.0,0.0,0.0,0.0,0.0,0.0,0.0,0.0,0.0,0.0,0.0,0.0,0.0,0.0,0.0,0.0,0.0,0.0,0.0,0.0,-2.5398,-2.5398,-2.5398,-2.5398,-2.5424,-2.5504,-2.5705,-2.567,-2.5205,-2.5139,-2.4673,-2.3401,-2.2338,-2.0909,-1.8799,-1.7837,-1.6698,-1.4886,-1.4563,-1.4232,-1.3569,-1.3403,-1.3403,-1.3403,-1.3403,-1.3403,-1.3403,-1.3403,-1.3458,-1.3566,-1.3566,-1.3627,-1.3722,-1.3722,-1.3722,-1.3709,-1.3607,-1.3566,-1.358,-1.3682,-1.3722,-1.3722,0.0,0.0,0.0,0.0,0.0,0.0,0.0,-2.5037,-2.4088,-2.3543,-2.3133,-2.2859,-2.2859,-2.2859,-2.2993,-2.33,-2.3447,-2.3714,-2.4168,-2.4315,-2.4462,-2.4623,0.0,-2.4903,-2.5077,-2.5317,-2.5531,-2.5692,-2.5999,-2.6132,-2.6146,-2.6306,-2.6386,-2.6386,-2.6386,-2.6386,-2.6386,-2.6386,-2.6386,-2.636,-2.6012,-2.5812,-2.5692,-2.5558,-2.5411,-2.5264,-2.5264,-2.5144,-2.501,-2.501,0.0,0.0,0.0,0.0,0.0,0.0,0.0,0.0,0.0,0.0,0.0,0.0,0.0,0.0,0.0,0.0,0.0,0.0,0.0,0.0,0.0,0.0,0.0,0.0,-2.5692,-2.5745,-2.5865,-2.5772,-2.5745,-2.5865,-2.6039,-2.5976,-2.5348,-2.4857,-2.3976,-2.2533,-2.092,-1.9297,-1.7501,-1.6689,-1.5546,-1.4066,-1.4066,-1.3901,-1.3403,-1.3464,-1.3498,-1.3498,-1.3559,-1.3587,-1.3587,-1.3587,-1.3634,0.0,-1.3715,-1.3763,-1.3838,-1.3838,-1.3838,0.0,0.0,0.0,0.0,0.0,-1.3838,-1.3838,0.0,0.0,0.0,0.0,0.0,0.0,0.0,-2.4631,-2.3816,-2.3406,-2.3133,-2.2859,-2.2859,-2.2899,-2.3033,-2.3354,-2.3647,-2.3941,-2.4235,-2.4489,-2.4649,-2.469,-2.4943,-2.5104,-2.5184,-2.5692,-2.5972,-2.6012,-2.6266,-2.6386,-2.6386,-2.6386,-2.6386,-2.6386,-2.6386,-2.6386,-2.6386,-2.6386,-2.6386,-2.6386,-2.6386,-2.6239,-2.5972,-2.5705,-2.5585,-2.5558,-2.5558,-2.5545,-2.5518,-2.5518,0.0,0.0,0.0,0.0,0.0,0.0,0.0,0.0,0.0,0.0,0.0,0.0,0.0,0.0,0.0,0.0,0.0,0.0,0.0,0.0,0.0,0.0,0.0,0.0,-2.6012,-2.6092,-2.636,-2.6172,-2.6106,-2.636,-2.6386,-2.5911,-2.513,-2.4148,-2.3015,-2.1254,-1.946,-1.7828,-1.6698,0.0,0.0,0.0,0.0,-1.377,-1.3451,-1.3587,-1.3654,-1.3654,-1.3783,-1.3838,-1.3838,-1.3838,-1.3851,-1.3865,-1.3865,-1.3878,-1.3892,-1.3892,-1.3892,-1.3892,-1.3871,-1.3878,-1.3892,-1.3892,-1.3892,0.0,0.0,0.0,0.0,0.0,0.0,0.0,0.0,-2.4645,-2.3816,-2.3406,-2.3133,-2.2859,-2.2859,-2.3086,-2.3354,-2.3661,-2.3955,-2.4249,-2.4529,-2.4609,-2.4743,-2.4983,-2.505,-2.5304,-2.5772,-2.5892,-2.6079,-2.6306,-2.636,-2.6386,-2.6386,-2.6386,-2.6386,-2.6386,-2.6386,-2.6386,-2.6386,-2.6386,-2.6386,-2.6386,-2.6386,-2.636,-2.6306,-2.6239,-2.6079,-2.5865,-2.5865,-2.5718,-2.5518,-2.5518,-2.5478,-2.5424,-2.5424,-2.5384,0.0,0.0,0.0,0.0,0.0,0.0,0.0,0.0,0.0,0.0,0.0,0.0,0.0,0.0,0.0,0.0,0.0,0.0,0.0,-2.6293,-2.6306,-2.6319,-2.6386,-2.6346,-2.6333,-2.6386,-2.607,-2.5594,-2.4627,-2.3496,-2.205,-2.0444,-1.8645,-1.7009,-1.5711,-1.4886,-1.4123,-1.3748,-1.3755,-1.3641,-1.3756,-1.3783,-1.3797,-1.3797,0.0,0.0,-1.3838,-1.3838,-1.3905,-1.4027,-1.4027,-1.4095,-1.4211,-1.4211,-1.4211,-1.4197,-1.4075,-1.4102,-1.4211,-1.4211,-1.4211,-1.4211,0.0,0.0,0.0,0.0,0.0,0.0,0.0,-2.4631,-2.3816,-2.3406,-2.3133,-2.2859,-2.2859,-2.314,-2.3447,-2.3741,-2.4168,-2.4476,-2.4623,-2.4636,-2.477,-2.5064,-2.5224,-2.5504,-2.5945,-2.6092,-2.6239,-2.6386,-2.6386,-2.6386,-2.6386,-2.6386,-2.6386,-2.6386,-2.6386,-2.6386,-2.6386,-2.6386,-2.6386,-2.6386,-2.6386,-2.6386,-2.6386,-2.6386,-2.6306,-2.6172,-2.6172,-2.6079,-2.5945,-2.5945,-2.5852,-2.5732,-2.5732,-2.5638,-2.5518,0.0,0.0,0.0,0.0,0.0,0.0,0.0,0.0,0.0,0.0,0.0,0.0,0.0,0.0,-2.6172,-2.6172,0.0,-2.6386,-2.6386,-2.6386,-2.6386,-2.6386,-2.6386,-2.6386,-2.6386,-2.607,-2.5435,-2.4627,-2.2854,-2.1082,-1.9469,-1.7598,-1.6004,-1.484,-1.4251,-1.383,-1.3736,-1.3736,-1.377,-1.3838,-1.3919,-1.3953,-1.396,-1.4034,-1.4109,-1.4177,-1.4177,-1.4258,-1.4407,-1.4407,-1.4448,-1.4523,-1.4523,-1.4523,-1.4516,-1.4434,-1.4367,-1.4306,-1.438,-1.4407,-1.4414,0.0,0.0,0.0,0.0,0.0,0.0,0.0,-2.5022,-2.4088,-2.3679,-2.3133,-2.2859,-2.2859,-2.3193,-2.3554,-2.3901,-2.4369,-2.4636,-2.4636,-2.4636,-2.4796,-2.5144,-2.5384,-2.5678,-2.6039,-2.6266,-2.6386,-2.6386,-2.6386,-2.6386,-2.6386,-2.6386,-2.6386,-2.6386,-2.6386,-2.6386,-2.6386,-2.6386,-2.6386,-2.6386,-2.6386,-2.6386,-2.6386,-2.6386,-2.6386,-2.6386,-2.6386,-2.6386,-2.6386,-2.6386,-2.6239,-2.6039,-2.6039,-2.5879,-2.5678,-2.5678,-2.5678,0.0,0.0,0.0,0.0,0.0,0.0,0.0,0.0,-2.6226,-2.6386,-2.6386,-2.6386,-2.6386,-2.6386,-2.6386,-2.6386,-2.6386,-2.6386,-2.6386,-2.6386,-2.6386,-2.6386,-2.6228,-2.5911,-2.5104,-2.4136,-2.2256,-2.0333,-1.8547,-1.6751,-1.5356,-1.4337,-1.3947,-1.3858,-1.3885,-1.3885,-1.3912,-1.3973,-1.4095,-1.417,-1.4204,-1.4326,-1.4448,-1.4557,-1.4557,-1.4624,-1.474,-1.474,-1.474,-1.474,-1.474,-1.474,-1.474,-1.474,-1.459,-1.4401,-1.4516,-1.4557,-1.457,0.0,0.0,0.0,0.0,0.0,0.0,0.0,0.0,-2.4766,-2.436,-2.3543,-2.2859,-2.2859,-2.338,-2.3941,-2.4489,-2.4596,-2.4636,-2.4636,-2.4636,-2.489,-2.5438,-2.5491,-2.5772,-2.6333,-2.6373,-2.6386,-2.6386,-2.6386,-2.6386,-2.6386,-2.6386,-2.6386,-2.6386,-2.6386,-2.6386,-2.6386,-2.6386,-2.6386,-2.6386,-2.6386,-2.6386,-2.6386,-2.6386,-2.6386,-2.6386,-2.6386,-2.6386,-2.6386,-2.6386,-2.6373,-2.6346,-2.6346,-2.6319,-2.6293,-2.6293,-2.6293,-2.6293,-2.6293,-2.6293,-2.6293,-2.6293,-2.6319,-2.6346,0.0,-2.6373,-2.6386,-2.6386,-2.6386,-2.6386,-2.6386,-2.6386,-2.6386,-2.6386,-2.6386,-2.6386,-2.6386,-2.6386,-2.6228,-2.5911,-2.5104,-2.4136,-2.2854,-2.1263,-1.958,-1.7767,-1.6607,-1.5523,-1.4501,-1.4002,-1.3905,-1.4041,-1.4048,-1.417,-1.4434,-1.4455,-1.4529,-1.4665,-1.4679,-1.4699,-1.4713,-1.4713,-1.4726,-1.474,-1.474,-1.474,-1.474,-1.474,-1.474,-1.474,-1.474,-1.4719,-1.4692,-1.4706,-1.4713,-1.4719,0.0,0.0,0.0,0.0,0.0,0.0,0.0,0.0,0.0,-2.4631,-2.3543,-2.2859,-2.2859,-2.3407,-2.4008,-2.4583,-2.4636,-2.4636,-2.4636,-2.4636,-2.4903,-2.5491,-2.5518,-2.5785,-2.6373,-2.6386,-2.6386,-2.6386,-2.6386,-2.6386,-2.6386,-2.6386,-2.6386,-2.6386,-2.6386,-2.6386,-2.6386,-2.6386,-2.6386,-2.6386,-2.6386,-2.6386,-2.6386,-2.6386,-2.6386,-2.6386,-2.6386,-2.6386,0.0,-2.6386,-2.6386,-2.6386,-2.6386,-2.6386,-2.6386,-2.6386,-2.6386,-2.6386,-2.6386,-2.6386,-2.6386,-2.6386,-2.6386,-2.6386,-2.6386,-2.6386,-2.6386,-2.6386,-2.6386,-2.6386,-2.6386,-2.6386,-2.6386,-2.6386,-2.6386,-2.6386,-2.6386,-2.6386,-2.607,-2.5435,-2.4455,-2.3572,-2.2425,-2.0878,-1.9004,-1.7112,-1.6105,-1.5182,-1.4319,-1.4311,-1.4258,-1.4326,-1.4414,-1.4523,-1.4645,-1.4645,-1.4679,-1.474,-1.474,-1.4787,-1.4875,-1.4875,-1.4916,-1.4997,-1.4997,-1.4997,-1.4997,-1.4997,-1.4997,-1.4997,-1.4997,-1.4997,-1.4991,-1.4903,-1.4875,-1.4889,0.0,0.0,0.0,0.0,0.0,0.0,0.0,0.0,0.0,0.0,-2.3543,-2.2926,-2.31,-2.35,-2.4008,-2.4583,-2.4636,-2.4636,-2.4636,-2.4716,-2.4983,-2.5491,-2.5585,-2.5879,-2.6373,-2.6386,-2.6386,-2.6386,-2.6386,-2.6386,-2.6386,-2.6386,-2.6386,-2.6386,-2.6386,-2.6386,-2.6386,-2.6386,-2.6386,-2.6386,-2.6386,-2.6386,-2.6386,-2.6386,-2.6386,-2.6386,-2.6386,-2.6386,-2.6386,-2.6386,-2.6386,-2.6386,-2.6386,-2.6386,-2.6386,-2.6386,-2.6386,-2.6386,-2.6386,-2.6386,-2.6386,-2.6386,-2.6386,-2.6386,-2.6386,-2.6386,-2.6386,-2.6386,-2.6386,-2.6386,-2.6386,-2.6386,-2.6386,-2.6386,-2.6386,-2.6386,-2.6386,-2.6308,-2.6042,-2.5084,-2.4016,-2.3047,-2.1782,-2.0129,-1.8352,-1.6454,-1.5813,-1.5067,-1.419,-1.4434,-1.4577,-1.4577,-1.4679,-1.476,-1.4801,-1.4801,-1.4821,-1.4862,-1.4862,-1.4923,-1.5031,-1.5072,-1.5174,-1.5309,-1.5309,-1.5309,-1.5309,-1.5309,-1.5309,-1.5309,-1.5309,-1.5309,-1.5296,-1.5194,-1.5099,-1.5045,0.0,0.0,0.0,0.0,0.0,0.0,0.0,0.0,0.0,0.0,0.0,0.0,0.0,-2.3754,-2.4008,-2.4583,-2.4636,-2.4636,-2.4636,-2.4903,-2.5197,-2.5504,-2.5785,-2.6079,-2.6386,-2.6386,-2.6386,-2.6386,-2.6386,-2.6386,-2.6386,-2.6386,-2.6386,-2.6386,-2.6386,-2.6386,-2.6386,-2.6386,-2.6386,-2.6386,-2.6386,-2.6386,-2.6386,-2.6386,-2.6386,-2.6386,-2.6386,-2.6386,-2.6386,-2.6386,-2.6386,-2.6386,-2.6386,-2.6386,-2.6386,-2.6386,-2.6386,-2.6386,-2.6386,-2.6386,-2.6386,-2.6386,-2.6386,-2.6386,-2.6386,-2.6386,-2.6386,-2.6386,-2.6386,-2.6386,-2.6386,-2.6386,-2.6386,-2.6386,-2.6386,-2.6386,-2.6386,-2.632,-2.586,-2.4876,-2.3963,-2.2543,-2.0397,-1.9048,-1.751,-1.6144,-1.5572,-1.504,-1.4496,-1.4645,-1.4733,-1.4733,-1.474,-1.4814,-1.4964,-1.4964,-1.5031,-1.5167,-1.5167,-1.5174,-1.5181,-1.533,-1.5479,-1.5628,-1.5628,-1.5628,-1.5628,-1.5628,-1.5628,-1.5628,-1.5628,-1.5628,-1.5628,-1.5622,-1.5432,-1.5174,0.0,0.0,0.0,0.0,0.0,0.0,0.0,0.0,0.0,0.0,0.0,0.0,0.0,0.0,0.0,0.0,-2.4636,-2.4636,-2.4636,-2.4917,-2.5211,-2.5504,-2.5798,-2.6092,-2.6386,-2.6386,-2.6386,-2.6386,-2.6386,-2.6386,-2.6386,-2.6386,-2.6386,-2.6386,-2.6386,-2.6386,-2.6386,-2.6386,-2.6386,-2.6386,-2.6386,-2.6386,-2.6386,-2.6386,-2.6386,-2.6386,0.0,-2.6386,-2.6386,-2.6386,-2.6386,-2.6386,-2.6386,-2.6386,-2.6386,-2.6386,-2.6386,-2.6386,-2.6386,-2.6386,-2.6386,-2.6386,-2.6386,-2.6386,-2.6386,-2.6386,-2.6386,-2.6386,-2.6386,-2.6386,-2.6386,-2.6386,-2.6386,-2.6386,-2.6386,-2.6294,-2.6347,-2.597,-2.5288,-2.4303,-2.2877,-2.1536,-1.9923,0.0,0.0,-1.6125,-1.5534,-1.5097,-1.4658,-1.4808,-1.4896,-1.4896,-1.4984,-1.5059,-1.5113,-1.5215,-1.5289,-1.5337,-1.5438,-1.5486,-1.5486,-1.554,-1.5588,-1.5642,-1.5642,-1.5642,-1.5642,-1.5642,-1.5642,-1.5642,-1.5642,-1.5642,-1.5642,-1.5642,-1.5574,-1.5486,0.0,0.0,0.0,0.0,0.0,0.0,0.0,0.0,0.0,0.0,0.0,0.0,0.0,0.0,0.0,0.0,0.0,-2.4636,-2.4636,-2.501,-2.5317,-2.5504,-2.5892,-2.6199,-2.6386,-2.6386,-2.6386,-2.6386,-2.6386,-2.6386,-2.6386,-2.6386,-2.6386,-2.6386,-2.6386,-2.6386,-2.6386,-2.6386,-2.6386,-2.6386,-2.6386,-2.6386,-2.6386,-2.6386,-2.6386,0.0,-2.6386,-2.6386,-2.6386,-2.6386,-2.6386,-2.6386,-2.6386,-2.6386,-2.6386,-2.6386,-2.6386,-2.6386,-2.6386,-2.6386,-2.6386,-2.6386,-2.6386,-2.6386,-2.6386,-2.6386,-2.6386,-2.6386,-2.6386,-2.6386,-2.6386,-2.6386,-2.6426,-2.6533,-2.6547,-2.6494,-2.6313,-2.5942,-2.5071,-2.3735,-2.2118,-2.0584,-1.9113,-1.7895,0.0,-1.5935,-1.534,-1.5083,-1.4814,-1.4964,-1.5045,-1.5045,-1.5187,-1.5262,-1.5262,-1.5418,-1.5493,-1.5493,-1.5594,-1.5669,-1.5716,-1.5716,-1.5744,-1.5798,-1.5798,-1.5798,-1.5798,-1.5798,-1.5798,-1.5798,-1.5798,-1.5798,-1.5798,-1.5798,-1.5798,-1.5784,0.0,0.0,0.0,0.0,0.0,0.0,0.0,0.0,0.0,0.0,0.0,0.0,0.0,0.0,0.0,0.0,0.0,0.0,-2.4636,-2.5184,-2.5518,-2.5518,-2.6079,-2.6386,-2.6386,-2.6386,-2.6386,-2.6386,-2.6386,-2.6386,-2.6386,-2.6386,-2.6386,-2.6386,-2.6386,-2.6386,-2.6386,-2.6386,-2.6386,-2.6386,-2.6386,-2.6386,-2.6386,-2.6386,-2.6386,-2.6386,-2.6386,-2.6386,-2.6386,-2.6386,-2.6386,-2.6386,-2.6386,-2.6386,-2.6386,-2.6386,-2.6386,-2.6386,-2.6386,-2.6386,-2.6386,-2.6386,-2.6386,-2.6386,-2.6386,-2.6386,-2.6386,-2.6386,-2.6386,-2.6386,-2.6413,-2.6413,-2.6507,-2.68,-2.6841,-2.6786,-2.66,-2.6045,-2.5023,-2.2999,-2.1505,-1.9812,-1.8068,0.0,0.0,-1.5801,0.0,-1.4977,-1.4984,-1.512,-1.5194,-1.5194,-1.5343,-1.5425,-1.5425,-1.5574,-1.5655,-1.5662,-1.5662,-1.5737,-1.5866,-1.5866,-1.5947,-1.6083,-1.6083,-1.6083,-1.6083,-1.6083,-1.6083,-1.6083,-1.6083,-1.6083,-1.6083,-1.6083,-1.6083,-1.6042,0.0,0.0,0.0,0.0,0.0,0.0,0.0,0.0,0.0,0.0,0.0,0.0,0.0,0.0,0.0,0.0,0.0,0.0,-2.4636,-2.5184,-2.5518,-2.5518,-2.6079,-2.6386,-2.6386,-2.6386,-2.6386,-2.6386,-2.6386,-2.6386,-2.6386,-2.6386,-2.6386,-2.6386,-2.6386,-2.6386,-2.6386,-2.6386,-2.6386,-2.6386,-2.6386,-2.6386,-2.6386,-2.6386,-2.6386,-2.6386,-2.6386,-2.6386,-2.6386,-2.6386,-2.6386,-2.6386,-2.6386,-2.6386,-2.6386,-2.6386,-2.6386,-2.6386,-2.6386,-2.6386,-2.6386,-2.6386,-2.6386,-2.6386,-2.6386,-2.6386,-2.6386,-2.6386,-2.6386,-2.6453,-2.6667,-2.6707,-2.6814,-2.7108,-2.7148,-2.6928,-2.6568,-2.5657,-2.4409,-2.2546,0.0,-1.9088,-1.755,-1.6348,0.0,0.0,-1.5292,-1.5018,-1.512,-1.5269,-1.535,-1.535,-1.5499,-1.5581,-1.5581,-1.5723,-1.5859,-1.5967,-1.5967,-1.5988,-1.6022,-1.6022,-1.6042,-1.6083,-1.6083,-1.6083,-1.6083,-1.6083,-1.6083,-1.6083,-1.6083,-1.6083,-1.6083,-1.6083,-1.6083,-1.6069,0.0,0.0,0.0,0.0,0.0,0.0,0.0,0.0,0.0,0.0,0.0,0.0,0.0,0.0,0.0,0.0,0.0,0.0,0.0,-2.5064,-2.5384,-2.5504,-2.5959,-2.6266,-2.6386,-2.6386,-2.6386,-2.6386,-2.6386,-2.6386,-2.6386,-2.6386,-2.6386,-2.6386,-2.6386,-2.6386,-2.6386,-2.6386,-2.6386,0.0,0.0,-2.6386,-2.6386,-2.6386,-2.6386,-2.6386,-2.6386,-2.6386,-2.6386,-2.6386,-2.6386,-2.6386,-2.6386,-2.6386,-2.6386,-2.6386,-2.6386,-2.6386,-2.6386,-2.6386,-2.6386,-2.6386,-2.6386,-2.6386,-2.6386,-2.6493,-2.6587,-2.6587,-2.668,-2.6827,-2.6987,-2.7014,-2.7108,-2.7415,-2.7455,-2.7231,-2.6684,-2.5699,-2.4256,-2.2089,-2.0129,-1.8501,-1.7057,-1.5971,-1.5389,0.0,-1.5348,-1.5201,-1.5276,-1.5425,-1.5513,-1.5513,-1.5655,-1.5764,-1.5832,-1.5913,-1.5995,-1.6083,-1.6083,-1.6083,-1.6083,-1.6083,-1.6083,-1.6083,0.0,-1.6083,-1.6083,-1.6083,-1.6083,-1.6083,-1.6083,-1.6083,-1.6083,-1.6083,-1.6083,-1.6083,0.0,0.0,0.0,0.0,0.0,0.0,0.0,0.0,0.0,0.0,0.0,0.0,0.0,0.0,0.0,0.0,0.0,0.0,0.0,0.0,0.0,-2.5504,-2.5798,-2.6092,-2.6386,-2.6386,-2.6386,-2.6386,-2.6386,-2.6386,-2.6386,-2.6386,-2.6386,-2.6386,-2.6386,-2.6386,-2.6386,-2.6386,-2.6386,-2.6386,-2.6386,-2.6386,-2.6386,0.0,-2.6386,-2.6386,-2.6386,-2.6386,-2.6386,-2.6386,-2.6386,-2.6386,-2.6386,-2.6386,-2.6386,-2.6386,-2.6386,-2.6386,-2.6386,-2.6386,-2.6386,-2.6386,-2.6413,-2.6453,-2.6453,-2.6667,-2.6881,-2.6881,-2.7081,-2.7281,-2.7321,-2.7321,-2.7415,-2.7709,-2.7762,-2.7508,-2.6927,-2.5958,-2.4339,-2.1771,-1.9897,-1.8099,-1.6597,-1.5561,-1.5133,-1.5391,-1.5445,-1.5459,-1.5445,-1.5588,-1.5676,-1.5696,-1.5818,-1.5947,-1.6083,-1.6083,-1.6083,-1.6083,-1.6083,-1.6083,-1.6083,-1.6083,-1.6083,-1.6083,0.0,0.0,-1.6083,-1.6083,-1.6083,-1.6083,-1.6083,-1.6083,-1.6083,-1.6083,-1.6083,-1.6083,0.0,0.0,0.0,0.0,0.0,0.0,0.0,0.0,0.0,0.0,-2.5308,-2.4918,0.0,0.0,0.0,0.0,0.0,0.0,0.0,0.0,0.0,-2.5504,-2.5798,-2.6092,-2.6386,-2.6386,-2.6386,-2.6386,-2.6386,-2.6386,-2.6386,-2.6386,-2.6386,-2.6386,-2.6386,-2.6386,-2.6386,-2.6386,-2.6386,-2.6386,-2.6386,-2.6386,-2.6386,-2.6386,0.0,0.0,-2.6386,-2.6386,-2.6386,-2.6386,-2.6386,-2.6386,-2.6386,-2.6386,-2.6386,-2.6386,-2.6386,-2.6386,-2.6386,-2.6386,-2.6386,-2.6386,-2.6573,-2.6747,-2.6747,-2.6974,-2.7188,-2.7188,-2.7228,-2.7335,-2.7575,-2.7629,-2.7722,-2.8016,-2.807,-2.7746,-2.6953,-2.5774,-2.4187,-2.1781,-1.9788,-1.8026,-1.6619,-1.5751,0.0,0.0,-1.5635,-1.5723,-1.5608,-1.5737,-1.5872,-1.6001,-1.6029,-1.6056,-1.6083,-1.6083,-1.6083,-1.6083,-1.6083,-1.6083,-1.6083,-1.6083,-1.6083,-1.6083,-1.6083,0.0,-1.6083,-1.6083,-1.6083,-1.6083,-1.6083,-1.6083,-1.6083,-1.6083,-1.6083,-1.6083,0.0,0.0,0.0,0.0,0.0,0.0,0.0,0.0,-2.6924,-2.5862,-2.5314,-2.4754,-2.4182,-2.4462,0.0,0.0,0.0,0.0,0.0,0.0,0.0,0.0,0.0,0.0,-2.6373,-2.6386,-2.6386,-2.6386,0.0,-2.6386,-2.6386,-2.6386,-2.6386,-2.6386,-2.6386,-2.6386,-2.6386,-2.6386,-2.6386,-2.6386,-2.6386,-2.6386,-2.6386,0.0,0.0,0.0,-2.6386,-2.6386,-2.6386,-2.6386,-2.6386,-2.6386,-2.6386,-2.6386,-2.6386,-2.6386,-2.6386,-2.6386,-2.6386,-2.6507,-2.6613,-2.6613,-2.6841,-2.7054,-2.7054,-2.7281,-2.7495,-2.7495,-2.7615,-2.7762,-2.7909,-2.7923,-2.7976,-2.8123,-2.8136,-2.7799,-2.6613,-2.5651,-2.3939,-2.1235,-1.9554,-1.7981,-1.6486,-1.5702,-1.5472,-1.5628,-1.5771,-1.5825,-1.5757,-1.5893,-1.6008,-1.6083,-1.6083,-1.6083,-1.6083,-1.6083,-1.6083,-1.6083,-1.6083,-1.6083,-1.6083,-1.6083,-1.6083,-1.6083,-1.6083,0.0,-1.6083,-1.6083,-1.6083,-1.6083,-1.6083,-1.6083,-1.609,-1.6171,-1.6198,-1.6212,0.0,0.0,0.0,0.0,0.0,0.0,0.0,-2.8126,-2.7024,-2.6027,-2.5119,-2.458,-2.4302,-2.4502,-2.4636,0.0,0.0,0.0,0.0,0.0,0.0,0.0,0.0,0.0,0.0,0.0,0.0,-2.6386,-2.6386,0.0,0.0,0.0,0.0,0.0,-2.6386,-2.6386,-2.6386,-2.6386,-2.6386,0.0,0.0,-2.6386,0.0,0.0,0.0,0.0,0.0,-2.6386,-2.6386,-2.6386,-2.6386,-2.6386,-2.6386,-2.6386,-2.6386,-2.6386,-2.6426,-2.648,-2.648,-2.6694,-2.6921,-2.6921,-2.7134,-2.7362,-2.7362,-2.7589,-2.7789,-2.7789,-2.7976,-2.8136,-2.8136,-2.8136,-2.8136,-2.8136,-2.8136,-2.7825,-2.6519,-2.555,-2.3875,-2.1083,-1.9532,-1.7949,-1.6518,-1.5848,-1.5601,-1.5839,-1.5886,-1.59,-1.59,-1.6015,-1.6083,-1.6083,-1.6083,-1.6083,-1.6083,-1.6083,-1.6083,-1.6083,-1.6083,-1.6083,-1.6083,-1.6083,-1.6083,-1.6083,-1.6083,0.0,0.0,-1.613,-1.6151,-1.6178,-1.6178,-1.6178,-1.6191,-1.6307,-1.6354,-1.6374,0.0,0.0,0.0,0.0,0.0,0.0,0.0,-2.7788,-2.6727,-2.6056,-2.5153,-2.4596,-2.4596,-2.4623,-2.4636,0.0,0.0,0.0,0.0,0.0,0.0,0.0,0.0,0.0,0.0,0.0,0.0,-2.6386,-2.6386,0.0,0.0,0.0,0.0,0.0,0.0,-2.6386,-2.6386,-2.6386,0.0,0.0,0.0,0.0,0.0,0.0,0.0,0.0,0.0,-2.6386,-2.6386,-2.6386,-2.6386,-2.6386,-2.6386,-2.6386,-2.6386,-2.6386,-2.6573,-2.6787,-2.6787,-2.7001,-2.7228,-2.7228,-2.7442,-2.7655,-2.7655,-2.7883,-2.8096,-2.8096,-2.8123,-2.8136,-2.8136,-2.8136,-2.8136,-2.8136,-2.8136,-2.7891,-2.7126,-2.5651,-2.413,-2.2202,-1.9851,-1.8033,-1.6927,-1.6229,-1.5825,-1.5852,-1.5981,-1.6062,-1.6062,-1.6076,-1.6083,-1.6083,-1.6083,-1.6083,-1.6083,-1.6083,-1.6083,-1.6083,-1.6083,-1.6083,-1.6083,-1.6083,-1.6083,-1.6083,-1.6083,0.0,0.0,-1.6286,-1.6368,-1.6483,-1.6483,-1.6483,-1.6483,-1.6497,-1.6503,-1.6503,0.0,0.0,0.0,0.0,0.0,0.0,0.0,-2.7538,-2.6619,-2.5618,-2.5011,-2.4636,-2.4636,-2.4636,-2.4636,0.0,0.0,0.0,0.0,0.0,0.0,0.0,0.0,0.0,0.0,0.0,-2.6386,-2.6386,-2.6386,0.0,0.0,0.0,0.0,0.0,0.0,-2.6386,-2.6386,-2.6386,0.0,0.0,0.0,0.0,0.0,0.0,0.0,0.0,0.0,0.0,-2.6386,-2.6386,-2.6386,-2.6413,-2.66,-2.6653,-2.6653,-2.6653,-2.6854,-2.7094,-2.7094,-2.7308,-2.7522,-2.7522,-2.7749,-2.7963,-2.7963,-2.8056,-2.8136,-2.8136,-2.8136,-2.8136,-2.8136,-2.8136,-2.8136,-2.8136,-2.8297,-2.8116,-2.7005,-2.5994,-2.4509,-2.2071,-2.0259,-1.8864,-1.7635,-1.6702,-1.6286,-1.5981,-1.6049,-1.6083,-1.6083,-1.6083,-1.6083,-1.6083,-1.6083,-1.6083,-1.6083,-1.6083,-1.6083,-1.6083,-1.6083,-1.6083,-1.6083,-1.6178,-1.6218,-1.6225,-1.6307,0.0,0.0,-1.6435,-1.6469,-1.6524,-1.6524,-1.6524,-1.653,-1.6625,-1.6659,-1.6673,0.0,0.0,0.0,0.0,0.0,-2.8418,-2.768,-2.71,-2.6239,-2.5373,-2.4784,-2.4636,-2.4636,-2.4636,-2.4636,-2.4636,0.0,0.0,0.0,0.0,0.0,0.0,0.0,0.0,0.0,0.0,-2.6386,-2.6386,-2.6386,-2.6386,0.0,0.0,-2.6386,-2.6386,0.0,0.0,0.0,0.0,0.0,0.0,0.0,0.0,0.0,0.0,0.0,0.0,0.0,0.0,0.0,0.0,0.0,-2.644,-2.6734,-2.6881,-2.6947,-2.6947,-2.7161,-2.7388,-2.7388,-2.7602,-2.7829,-2.7829,-2.7989,-2.8136,-2.8136,-2.8136,-2.8136,-2.8136,-2.8136,-2.8136,-2.8136,-2.8217,-2.8283,-2.8283,-2.8537,-2.8233,-2.7084,-2.6363,-2.4846,-2.2444,-2.0759,-1.9535,-1.8383,-1.7201,-1.656,-1.6076,-1.6083,-1.6083,-1.6083,-1.6083,-1.6083,-1.6083,-1.6083,-1.6083,-1.6083,-1.6083,-1.6103,-1.6151,-1.6151,-1.6171,-1.6218,-1.6327,-1.6374,-1.6381,-1.6476,0.0,0.0,-1.6585,-1.6619,-1.6659,-1.6659,-1.6659,-1.6673,-1.6781,-1.6815,-1.6836,0.0,0.0,0.0,0.0,0.0,0.0,0.0,-2.6093,-2.5653,-2.5226,-2.4784,-2.4636,-2.4636,-2.4636,-2.4636,-2.4636,0.0,0.0,0.0,0.0,0.0,0.0,0.0,0.0,0.0,0.0,-2.6386,-2.6386,-2.6386,-2.6386,-2.6386,-2.6386,-2.6386,-2.6386,0.0,0.0,0.0,0.0,0.0,0.0,0.0,0.0,0.0,0.0,0.0,0.0,0.0,0.0,0.0,0.0,0.0,0.0,0.0,-2.7028,-2.7268,-2.7268,-2.7468,-2.7696,-2.7696,-2.7909,-2.8136,-2.8136,-2.8136,-2.8136,-2.8136,-2.8136,-2.8136,-2.8136,-2.8136,-2.8136,-2.8136,-2.839,-2.8604,-2.8604,-2.8845,-2.8789,-2.8004,-2.6783,-2.5343,-2.3809,-2.1622,-1.9739,-1.9158,-1.7757,-1.6672,-1.6083,-1.6083,0.0,-1.6083,-1.6083,-1.6083,-1.6083,-1.6083,-1.6083,-1.6083,-1.6083,-1.6157,-1.6307,-1.6307,-1.6381,-1.6517,-1.6517,-1.6517,-1.6517,0.0,0.0,0.0,-1.6748,-1.6836,-1.6978,-1.6978,-1.6978,-1.6978,-1.6978,-1.6978,-1.6978,0.0,0.0,0.0,0.0,0.0,0.0,0.0,-2.552,-2.5226,-2.4784,-2.4636,-2.4636,-2.4636,-2.4636,-2.4636,-2.4636,0.0,0.0,0.0,0.0,0.0,0.0,0.0,0.0,0.0,0.0,0.0,-2.6386,-2.6386,-2.6386,-2.6386,-2.6386,-2.6386,-2.6386,-2.6386,-2.6386,0.0,0.0,0.0,0.0,0.0,0.0,0.0,0.0,0.0,0.0,0.0,0.0,0.0,0.0,0.0,0.0,0.0,0.0,0.0,-2.7802,-2.7936,-2.8003,-2.8003,-2.807,-2.8136,-2.8136,-2.8136,-2.8136,-2.8136,-2.8136,-2.8136,-2.8136,-2.8136,-2.8203,-2.8417,-2.8537,-2.8671,-2.8871,-2.8789,-2.8484,-2.7674,-2.6414,-2.5183,-2.3851,-2.1763,-1.9742,0.0,0.0,-1.707,-1.6083,-1.6083,-1.6083,-1.6083,-1.6083,-1.6083,-1.6083,-1.6083,-1.613,-1.6239,-1.6239,-1.6307,-1.6456,-1.6456,-1.6476,-1.6524,-1.6632,-1.668,0.0,0.0,0.0,0.0,-1.691,-1.6937,-1.6978,-1.6978,-1.6978,-1.6978,-1.6978,-1.6978,-1.6978,0.0,0.0,0.0,0.0,0.0,0.0,0.0,-2.4931,-2.4931,-2.4636,-2.4636,-2.4636,-2.4636,-2.4636,-2.4636,-2.4636,0.0,0.0,0.0,0.0,0.0,0.0,0.0,0.0,0.0,0.0,-2.6386,-2.6386,-2.6386,-2.6386,-2.6386,-2.6386,-2.6386,-2.6386,-2.6386,-2.6386,0.0,0.0,0.0,0.0,0.0,0.0,-2.6386,0.0,0.0,0.0,0.0,0.0,0.0,0.0,0.0,0.0,0.0,0.0,0.0,0.0,-2.8136,-2.8136,-2.8136,-2.8136,-2.8136,-2.8136,-2.8136,-2.8136,-2.8136,-2.8136,-2.8177,-2.8297,-2.8323,-2.8417,-2.8711,-2.8858,-2.8991,-2.9179,-2.9092,-2.8565,-2.73,-2.6071,-2.4519,-2.2407,-2.0834,0.0,0.0,-1.7466,-1.707,-1.6083,-1.6083,0.0,-1.6083,-1.6137,-1.6171,-1.6171,-1.6171,-1.6212,-1.6307,-1.6361,-1.6463,-1.6605,-1.6605,-1.6639,-1.67,-1.6795,-1.6836,0.0,0.0,0.0,0.0,-1.6978,-1.6978,-1.6978,-1.6978,-1.7012,-1.706,-1.706,-1.71,-1.7148,0.0,0.0,0.0,0.0,0.0,0.0,0.0,0.0,0.0,-2.4636,-2.4636,-2.4636,-2.4636,-2.4636,-2.4636,-2.4636,0.0,0.0,0.0,0.0,0.0,0.0,0.0,0.0,0.0,-2.6092,-2.6386,-2.6386,-2.6386,-2.6386,-2.6386,-2.6386,-2.6386,-2.6386,-2.6386,-2.6386,0.0,0.0,0.0,0.0,-2.6386,-2.6386,0.0,0.0,0.0,0.0,0.0,0.0,0.0,0.0,0.0,0.0,0.0,0.0,0.0,0.0,0.0,0.0,0.0,-2.8136,-2.8136,-2.8136,-2.8136,-2.815,-2.8177,-2.8177,0.0,0.0,0.0,-2.8724,-2.9018,-2.9299,-2.9486,-2.9513,-2.9191,-2.8462,-2.7208,-2.5799,0.0,0.0,-1.8938,0.0,-1.7062,-1.6864,-1.6672,-1.6083,0.0,0.0,-1.6096,-1.6232,-1.6313,-1.6327,-1.6334,-1.6341,-1.6341,-1.6469,-1.6612,-1.6768,-1.6768,-1.6842,-1.6978,-1.6978,-1.6978,0.0,0.0,0.0,0.0,-1.6992,-1.6998,-1.6998,-1.7005,-1.7093,-1.7209,-1.7209,-1.7297,-1.7419,0.0,0.0,0.0,0.0,0.0,0.0,0.0,0.0,0.0,0.0,-2.4636,-2.4636,-2.4636,-2.4636,-2.4636,0.0,0.0,0.0,0.0,0.0,0.0,0.0,0.0,0.0,0.0,-2.6092,-2.6386,-2.6386,-2.6386,-2.6386,-2.6386,-2.6386,-2.6386,-2.6386,-2.6386,0.0,0.0,0.0,0.0,0.0,-2.6386,-2.6386,0.0,0.0,0.0,0.0,-2.6386,-2.6386,0.0,0.0,0.0,0.0,0.0,0.0,0.0,0.0,-2.8136,-2.8136,-2.8136,0.0,-2.8136,-2.8136,-2.8136,-2.8203,0.0,-2.8497,-2.8577,0.0,0.0,0.0,-2.8784,-2.8889,-2.883,-2.8706,-2.8063,-2.7257,-2.6363,-2.4146,0.0,-1.9353,-1.9134,-1.8449,-1.7062,-1.6864,-1.6672,0.0,0.0,-1.613,-1.6252,-1.6293,-1.6361,-1.6469,-1.6585,-1.6646,-1.6646,-1.668,-1.6775,-1.6924,-1.6924,-1.6944,-1.6978,-1.6978,-1.6978,0.0,0.0,0.0,-1.6992,-1.71,-1.7141,-1.7154,-1.727,-1.7338,-1.7365,-1.7365,-1.7392,-1.7419,0.0,0.0,0.0,0.0,0.0,0.0,0.0,0.0,0.0,0.0,0.0,0.0,0.0,0.0,0.0,0.0,0.0,0.0,0.0,0.0,0.0,0.0,0.0,0.0,-2.5718,-2.6159,-2.6386,-2.6386,-2.6386,-2.6386,-2.6386,-2.6386,-2.6386,-2.6386,-2.6386,0.0,0.0,0.0,0.0,0.0,-2.6386,0.0,0.0,0.0,0.0,0.0,-2.6386,-2.648,0.0,-2.6921,-2.7228,-2.7522,0.0,0.0,0.0,0.0,-2.8136,-2.8177,-2.8323,-2.8243,-2.8177,-2.8323,-2.835,-2.843,-2.8738,-2.8804,0.0,0.0,0.0,0.0,0.0,-2.8782,-2.8476,-2.8256,-2.7558,-2.6406,-2.4549,-2.2441,-2.0368,-1.8505,-1.8197,-1.7657,0.0,0.0,0.0,0.0,0.0,-1.6225,-1.6307,-1.6435,-1.6544,-1.6625,-1.6775,-1.6822,-1.6748,-1.6822,-1.6897,-1.6978,-1.6978,-1.6978,-1.6978,-1.6978,-1.7019,0.0,0.0,0.0,-1.7188,-1.7263,-1.7297,-1.7304,-1.7392,-1.746,-1.7528,-1.7528,-1.7568,-1.7623,0.0,0.0,0.0,0.0,0.0,0.0,0.0,0.0,0.0,0.0,0.0,0.0,0.0,0.0,0.0,0.0,0.0,0.0,0.0,0.0,0.0,0.0,0.0,-2.5692,-2.5959,-2.6239,-2.6386,-2.6386,-2.6386,-2.6386,-2.6386,-2.6386,-2.6386,-2.6386,-2.6386,-2.6386,0.0,0.0,0.0,0.0,-2.6386,0.0,0.0,0.0,0.0,0.0,0.0,0.0,0.0,-2.7215,-2.7495,-2.7749,-2.8043,0.0,0.0,0.0,0.0,0.0,-2.8537,-2.8444,-2.8337,-2.8604,-2.8671,-2.8751,-2.9045,-2.9112,0.0,0.0,0.0,0.0,0.0,-2.8462,0.0,-2.7377,-2.6711,-2.5442,-2.2704,-2.0834,-1.9273,-1.7848,-1.7268,0.0,0.0,0.0,0.0,0.0,0.0,-1.6327,-1.6374,-1.6612,-1.6761,-1.6781,-1.691,-1.6917,-1.6788,-1.6917,-1.6978,-1.6978,-1.6978,-1.6992,-1.7012,-1.7012,-1.7093,-1.7229,0.0,0.0,-1.7419,-1.7446,-1.7453,-1.746,-1.748,-1.7568,-1.7684,-1.7684,-1.7758,-1.786,0.0,0.0,0.0,0.0,0.0,0.0,0.0,0.0,0.0,0.0,0.0,0.0,0.0,0.0,0.0,0.0,0.0,0.0,0.0,0.0,0.0,0.0,-2.5865,-2.5905,-2.5959,-2.6239,-2.6386,-2.6386,-2.6386,-2.6386,-2.6386,-2.6386,-2.6386,-2.6386,-2.6386,-2.6386,-2.6386,0.0,0.0,-2.6386,-2.6386,0.0,0.0,0.0,0.0,0.0,0.0,0.0,0.0,-2.7442,-2.7669,-2.7749,-2.8043,0.0,0.0,0.0,0.0,0.0,-2.8591,-2.8751,-2.8911,-2.8965,-2.8978,-2.9045,-2.9352,0.0,0.0,0.0,0.0,0.0,0.0,-2.7184,-2.6276,0.0,0.0,-2.2704,0.0,0.0,-1.9413,-1.7863,0.0,0.0,0.0,0.0,0.0,0.0,0.0,-1.6422,-1.6666,-1.6727,-1.6809,-1.6944,-1.6971,-1.6971,-1.6944,-1.6971,-1.6978,-1.6978,-1.6978,-1.7046,-1.7161,-1.7161,-1.7243,-1.7385,0.0,-1.7399,-1.7433,-1.7561,-1.7616,-1.7629,-1.7758,-1.7812,-1.7826,-1.7826,-1.7846,-1.786,0.0,0.0,0.0,0.0,0.0,0.0,0.0,0.0,0.0,0.0,0.0,0.0,0.0,0.0,0.0,0.0,0.0,0.0,0.0,0.0,0.0,-2.5945,-2.6106,-2.6186,-2.6186,-2.6319,-2.6386,-2.6386,-2.6386,-2.6386,-2.6386,-2.6386,-2.6386,-2.6386,-2.6386,-2.6386,-2.6386,-2.6386,-2.6386,-2.6386,0.0,0.0,0.0,0.0,0.0,0.0,0.0,0.0,0.0,0.0,-2.7802,-2.7963,-2.8096,0.0,0.0,0.0,0.0,0.0,-2.8991,-2.9179,-2.9312,-2.9472,-2.9392,-2.9352,-2.9646,0.0,0.0,0.0,0.0,0.0,0.0,0.0,-2.5045,-2.3889,0.0,-2.1385,-2.0518,-1.9723,-1.8655,0.0,0.0,0.0,0.0,0.0,0.0,0.0,0.0,0.0,-1.6741,-1.6829,-1.691,-1.6978,-1.6978,-1.6978,-1.6978,-1.706,-1.7093,-1.7093,-1.7093,-1.7175,-1.7317,-1.7317,-1.7399,-1.7541,0.0,-1.7589,-1.767,-1.7738,-1.7758,-1.7772,-1.7846,-1.786,-1.786,-1.786,-1.786,-1.786,0.0,0.0,0.0,0.0,0.0,0.0,0.0,0.0,0.0,0.0,0.0,0.0,0.0,0.0,0.0,0.0,0.0,0.0,0.0,0.0,-2.5985,-2.6052,-2.6266,-2.6386,-2.6386,-2.6386,-2.6386,-2.6386,-2.6386,-2.6386,-2.6386,-2.6386,-2.6386,-2.6386,-2.6386,-2.6386,-2.6386,-2.6386,-2.6386,-2.6386,0.0,0.0,0.0,0.0,0.0,0.0,0.0,0.0,0.0,0.0,0.0,0.0,0.0,0.0,0.0,-2.8537,-2.8711,-2.8911,-2.9366,-2.9539,-2.9633,-2.986,0.0,0.0,0.0,0.0,0.0,0.0,0.0,0.0,0.0,-2.5045,0.0,-2.2497,-2.1475,0.0,0.0,0.0,0.0,0.0,0.0,0.0,0.0,0.0,0.0,0.0,0.0,0.0,-1.6802,-1.6917,-1.6978,-1.6978,-1.7012,-1.7032,-1.7032,-1.7175,-1.7229,-1.7195,-1.7229,-1.7324,-1.7473,-1.7473,-1.7555,-1.7704,-1.7704,-1.7758,-1.786,-1.786,-1.786,-1.786,-1.786,-1.786,-1.786,-1.786,-1.786,-1.786,0.0,0.0,0.0,0.0,0.0,0.0,0.0,0.0,0.0,0.0,0.0,0.0,0.0,0.0,0.0,0.0,0.0,0.0,0.0,0.0,-2.6079,-2.6346,-2.6373,-2.6386,-2.6386,-2.6386,-2.6386,-2.6386,-2.6386,-2.6386,-2.6386,-2.6386,-2.6386,-2.6386,-2.6386,-2.6386,-2.6386,-2.6386,-2.6386,-2.6386,-2.6386,0.0,0.0,0.0,0.0,0.0,0.0,0.0,0.0,0.0,0.0,0.0,0.0,0.0,-2.8577,-2.8604,-2.8991,-2.9432,-2.9472,-2.9686,-2.9887,-2.9913,0.0,0.0,0.0,0.0,0.0,0.0,0.0,0.0,0.0,-2.3159,-2.1376,-2.0807,-1.9733,-1.9037,0.0,0.0,0.0,0.0,0.0,0.0,0.0,0.0,0.0,0.0,0.0,0.0,-1.6958,-1.6978,-1.6978,-1.6978,-1.7107,-1.7175,-1.7175,-1.7324,-1.7331,-1.7195,-1.7338,-1.7487,-1.7629,-1.7629,-1.7704,-1.7846,-1.7846,-1.7846,-1.786,-1.786,-1.786,-1.786,-1.786,-1.786,-1.786,-1.786,-1.786,-1.788,0.0,0.0,0.0,0.0,0.0,0.0,0.0,0.0,0.0,0.0,0.0,0.0,0.0,0.0,0.0,0.0,0.0,0.0,0.0,0.0,-2.6279,-2.6386,-2.6386,-2.6386,-2.6386,-2.6386,-2.6386,-2.6386,-2.6386,-2.6386,-2.6386,-2.6386,-2.6386,-2.6386,-2.6386,-2.6386,-2.6386,-2.6386,-2.6386,-2.6386,-2.6386,-2.6386,0.0,0.0,0.0,0.0,0.0,0.0,0.0,0.0,-2.8136,-2.8177,-2.8377,-2.8511,-2.8684,-2.9045,-2.9312,-2.9526,-2.97,-2.9833,-2.9913,-2.9913,0.0,0.0,0.0,0.0,0.0,0.0,0.0,0.0,0.0,0.0,-2.1321,-2.0113,-1.9265,0.0,0.0,0.0,0.0,0.0,0.0,0.0,0.0,0.0,0.0,0.0,0.0,0.0,-1.6978,-1.6978,-1.7019,-1.7107,-1.7161,-1.7236,-1.7331,-1.7487,-1.7534,-1.7473,-1.7534,-1.7629,-1.7772,-1.7772,-1.7812,-1.786,-1.786,-1.786,-1.786,-1.786,-1.786,-1.786,-1.786,-1.7914,-1.8002,-1.8002,-1.8077,-1.8158,0.0,0.0,0.0,0.0,0.0,0.0,0.0,0.0,0.0,0.0,0.0,0.0,0.0,0.0,0.0,0.0,0.0,0.0,0.0,-2.6386,-2.6386,-2.6386,-2.6386,-2.6386,-2.6386,-2.6386,-2.6386,-2.6386,-2.6386,-2.6386,-2.6386,-2.6386,-2.6386,-2.6386,-2.6386,-2.6386,-2.6386,-2.6386,-2.6386,-2.6386,-2.6386,-2.644,0.0,0.0,0.0,0.0,0.0,0.0,0.0,0.0,-2.8203,-2.8323,-2.8537,-2.8738,-2.8965,-2.9366,-2.9553,-2.9659,-2.986,-2.9913,-2.9913,-2.9913,0.0,0.0,0.0,0.0,0.0,0.0,0.0,0.0,0.0,0.0,0.0,0.0,0.0,0.0,0.0,0.0,0.0,0.0,0.0,0.0,0.0,0.0,0.0,0.0,0.0,0.0,0.0,-1.7026,-1.7093,-1.7188,-1.7283,-1.7385,-1.7494,-1.765,-1.7717,-1.7717,-1.7717,-1.7772,-1.786,-1.786,-1.786,-1.786,-1.786,-1.786,-1.786,-1.786,-1.7901,-1.7935,-1.7989,-1.8077,-1.8158,-1.8158,-1.8233,-1.8321,0.0,0.0,0.0,0.0,0.0,0.0,0.0,0.0,0.0,0.0,0.0,0.0,0.0,0.0,0.0,0.0,0.0,0.0,-2.6386,-2.6386,-2.6386,-2.6386,-2.6386,-2.6386,-2.6386,-2.6386,-2.6386,-2.6386,-2.6386,-2.6386,-2.6386,-2.6386,-2.6386,-2.6386,-2.6386,-2.6386,-2.6386,-2.6386,-2.6386,-2.6386,-2.6386,-2.656,-2.6827,0.0,0.0,0.0,0.0,0.0,0.0,0.0,-2.835,-2.8604,-2.8617,-2.9018,-2.9486,-2.9486,-2.9686,-2.9913,-2.9913,-2.9913,-2.9913,-2.9913,0.0,0.0,0.0,0.0,0.0,0.0,0.0,0.0,0.0,0.0,0.0,0.0,0.0,0.0,0.0,0.0,0.0,0.0,0.0,0.0,0.0,0.0,0.0,0.0,0.0,0.0,0.0,-1.7114,-1.7195,-1.7195,-1.7494,-1.765,-1.765,-1.7792,-1.786,-1.786,-1.786,-1.786,-1.786,-1.786,-1.786,-1.786,-1.786,-1.786,-1.786,-1.786,-1.7948,-1.8111,-1.8267,-1.8321,-1.8321,-1.8321,-1.8321,-1.8335,0.0,0.0,0.0,0.0,0.0,0.0,0.0,0.0,0.0,0.0,0.0,0.0,0.0,0.0,0.0,0.0,0.0,0.0,-2.6386,-2.6386,-2.6386,-2.6386,-2.6386,-2.6386,-2.6386,-2.6386,-2.6386,-2.6386,-2.6386,-2.6386,-2.6386,-2.6386,-2.6386,-2.6386,-2.6386,-2.6386,-2.6386,-2.6386,-2.6507,-2.6694,-2.6694,-2.6867,-2.7161,0.0,0.0,0.0,0.0,0.0,0.0,0.0,0.0,0.0,-2.9098,-2.9339,-2.9526,-2.9726,-2.9847,-2.9913,-2.9913,-2.9913,0.0,-2.9913,0.0,0.0,0.0,0.0,0.0,0.0,0.0,0.0,0.0,0.0,0.0,0.0,0.0,0.0,0.0,0.0,0.0,0.0,0.0,0.0,0.0,0.0,0.0,0.0,0.0,0.0,0.0,-1.7168,-1.729,-1.7507,-1.7602,-1.7704,-1.7792,-1.7846,-1.786,-1.786,-1.786,-1.786,-1.786,-1.786,-1.786,-1.786,-1.786,-1.7914,-1.8036,-1.8145,-1.8213,-1.8247,-1.8301,-1.8375,-1.8464,-1.8464,-1.8531,-1.8633,0.0,0.0,0.0,0.0,0.0,0.0,0.0,0.0,0.0,0.0,-2.6279,-2.6386,0.0,0.0,0.0,0.0,0.0,0.0,0.0,0.0,-2.6386,-2.6386,-2.6386,-2.6386,-2.6386,-2.6386,-2.6386,-2.6386,-2.6386,-2.6386,-2.6386,-2.6386,-2.6386,-2.6386,-2.6386,-2.6386,-2.64,-2.6507,-2.6667,-2.6827,-2.6947,-2.7175,-2.7455,0.0,0.0,0.0,0.0,0.0,0.0,0.0,0.0,0.0,-2.9366,-2.9566,-2.9686,-2.986,-2.9913,-2.9913,-2.9913,-2.9913,0.0,0.0,-2.8912,0.0,0.0,0.0,0.0,0.0,0.0,0.0,0.0,0.0,0.0,0.0,0.0,0.0,0.0,0.0,0.0,0.0,0.0,0.0,0.0,0.0,0.0,0.0,0.0,0.0,0.0,-1.7311,-1.746,-1.765,-1.7704,-1.7772,-1.786,-1.786,-1.786,-1.786,-1.786,-1.7901,-1.7948,-1.7948,-1.7948,-1.7948,-1.8023,-1.8091,-1.8199,-1.8335,-1.8409,-1.8409,-1.8477,-1.8552,-1.862,-1.862,-1.8674,-1.8762,0.0,0.0,-2.6386,-2.6386,0.0,0.0,0.0,0.0,0.0,0.0,-2.6386,-2.6386,0.0,0.0,0.0,0.0,0.0,0.0,0.0,0.0,-2.6386,-2.6386,-2.6386,-2.6386,-2.6386,-2.6386,-2.6386,-2.6386,-2.6386,-2.6386,-2.6386,-2.6386,-2.6386,-2.6386,-2.6386,-2.64,-2.6453,-2.6707,-2.6854,-2.6921,-2.7188,-2.7482,-2.7736,-2.7736,0.0,0.0,0.0,0.0,0.0,0.0,0.0,0.0,-2.9513,-2.97,-2.9913,-2.9913,-2.9913,-2.9913,-2.9913,0.0,0.0,0.0,0.0,0.0,0.0,0.0,0.0,0.0,0.0,0.0,0.0,0.0,0.0,0.0,0.0,0.0,0.0,0.0,0.0,0.0,0.0,0.0,0.0,0.0,0.0,0.0,0.0,0.0,0.0,-1.75,-1.765,-1.767,-1.7792,-1.786,-1.786,-1.786,-1.786,-1.788,-1.788,-1.7968,-1.8111,-1.8091,-1.8091,-1.8124,-1.8267,-1.8335,-1.8355,-1.8498,-1.8552,-1.8565,-1.8708,-1.8762,-1.8762,-1.8762,-1.8762,-1.8523,0.0,0.0,-2.6386,-2.6386,0.0,0.0,0.0,0.0,0.0,0.0,0.0,0.0,0.0,0.0,0.0,0.0,0.0,0.0,0.0,0.0,-2.6386,-2.6386,-2.6386,-2.6386,-2.6386,-2.6386,-2.6386,-2.6386,-2.6386,-2.6386,-2.6386,-2.6386,-2.6386,-2.6386,-2.6386,-2.652,-2.6734,-2.68,-2.7094,-2.7522,-2.7575,-2.7776,-2.8043,-2.8043,-2.8243,0.0,0.0,0.0,0.0,0.0,0.0,0.0,-2.9753,-2.986,-2.9913,-2.9913,-2.9913,-2.9913,-2.9913,-3.0087,0.0,0.0,0.0,0.0,0.0,0.0,0.0,0.0,0.0,0.0,0.0,0.0,0.0,0.0,0.0,0.0,0.0,0.0,0.0,0.0,0.0,0.0,0.0,0.0,0.0,0.0,0.0,0.0,-1.7541,-1.7616,-1.7704,-1.7812,-1.7846,-1.786,-1.786,-1.786,-1.7914,0.0,-1.8036,-1.8124,-1.8267,-1.8145,-1.8158,-1.8287,-1.8423,-1.8477,-1.8498,-1.8654,-1.8708,-1.8708,-1.8742,-1.8762,-1.8762,-1.8762,-1.8523,-1.782,0.0,0.0,0.0,0.0,0.0,0.0,0.0,0.0,0.0,0.0,0.0,0.0,0.0,0.0,0.0,0.0,0.0,0.0,0.0,0.0,0.0,-2.6386,-2.6386,-2.6386,-2.6386,-2.6386,-2.6386,-2.6386,-2.6386,0.0,0.0,0.0,-2.6386,-2.64,-2.6533,-2.668,-2.6841,-2.7121,-2.7415,-2.7709,-2.7856,-2.8003,-2.8163,-2.831,-2.847,-2.8631,-2.8764,0.0,0.0,0.0,0.0,0.0,0.0,0.0,-2.9913,-2.9913,-3.002,-3.0127,-3.0127,0.0,0.0,-2.8124,0.0,0.0,0.0,0.0,0.0,0.0,0.0,0.0,0.0,0.0,0.0,0.0,0.0,0.0,0.0,0.0,0.0,0.0,0.0,0.0,0.0,0.0,0.0,0.0,0.0,-1.748,-1.765,-1.7717,-1.7792,-1.786,-1.786,-1.786,-1.786,-1.7935,-1.8023,-1.8091,-1.8165,-1.8287,-1.8423,-1.8335,-1.8389,-1.8531,-1.8599,-1.864,-1.8654,-1.8728,-1.8762,-1.8762,-1.8762,-1.8762,-1.8762,-1.8517,-1.7826,-1.7123,0.0,0.0,0.0,0.0,0.0,0.0,0.0,0.0,0.0,0.0,0.0,0.0,0.0,0.0,0.0,0.0,0.0,0.0,0.0,0.0,0.0,-2.6386,-2.6386,-2.6386,-2.6386,-2.6386,-2.6386,-2.6386,0.0,0.0,0.0,0.0,0.0,-2.648,-2.6774,-2.6921,-2.7001,-2.7495,-2.7722,-2.7802,-2.811,-2.8217,-2.8257,-2.8564,-2.8711,-2.8791,-2.9032,-2.9299,-2.9566,-2.9566,0.0,0.0,0.0,0.0,-2.9993,-2.9993,-3.0207,-3.0434,-3.0434,0.0,-2.9068,-2.6477,-2.4235,0.0,-2.0175,-1.8647,-1.7466,-1.6871,-1.6672,0.0,0.0,0.0,0.0,0.0,0.0,0.0,0.0,0.0,0.0,0.0,0.0,0.0,0.0,0.0,0.0,0.0,0.0,-1.7663,-1.7684,-1.7792,-1.786,-1.786,-1.786,-1.788,-1.7901,-1.8023,-1.8111,-1.8165,-1.8321,-1.8464,-1.8565,-1.8565,-1.864,-1.8762,-1.8762,-1.8762,-1.8762,-1.8762,-1.8762,-1.8762,-1.8762,-1.8762,-1.8762,-1.8059,-1.7361,-1.6436,0.0,0.0,0.0,0.0,0.0,0.0,0.0,0.0,0.0,0.0,-2.6386,-2.6386,0.0,0.0,0.0,0.0,0.0,0.0,0.0,0.0,0.0,-2.6386,-2.6386,-2.6386,-2.6386,-2.6386,-2.6386,-2.6386,0.0,0.0,0.0,0.0,0.0,-2.6774,0.0,0.0,-2.7589,-2.7669,-2.7843,-2.811,-2.8417,-2.8551,-2.8577,-2.8871,-2.9138,-2.9366,-2.9406,-2.9606,-2.986,-2.986,-2.9887,0.0,0.0,0.0,-3.0301,-3.0301,-3.0501,-3.0742,0.0,0.0,-2.7819,0.0,-2.3686,-2.1156,0.0,0.0,-1.6871,0.0,-1.6282,-1.6083,0.0,0.0,0.0,0.0,0.0,0.0,0.0,0.0,0.0,0.0,0.0,0.0,0.0,0.0,0.0,0.0,-1.7629,-1.7704,-1.7826,-1.7846,-1.786,-1.786,-1.786,-1.7935,-1.8057,-1.8077,-1.8213,-1.8477,-1.862,-1.8708,-1.8728,-1.8728,-1.8742,-1.8762,-1.8762,-1.8762,-1.8762,-1.8762,-1.8762,-1.8762,-1.8762,-1.8762,-1.8762,-1.8059,-1.7123,-1.5737,0.0,0.0,0.0,0.0,0.0,0.0,0.0,0.0,0.0,0.0,0.0,-2.6386,0.0,0.0,0.0,-2.6386,-2.6386,-2.6386,-2.6386,-2.6386,0.0,0.0,-2.6386,-2.6386,-2.6386,-2.6386,-2.6386,0.0,0.0,0.0,0.0,-2.7161,-2.7228,0.0,0.0,0.0,0.0,0.0,0.0,-2.8417,-2.8551,-2.8711,-2.8885,-2.9179,-2.9366,-2.9499,-2.9673,-2.9806,-2.9913,-2.9913,-3.002,-3.0167,-3.0167,0.0,0.0,0.0,-3.0808,-3.0876,-3.0473,-2.928,-2.7471,0.0,-2.2564,-2.0218,-1.8457,-1.7268,-1.6474,-1.6083,-1.6083,-1.6083,-1.6083,-1.6151,-1.6259,-1.6402,-1.6551,-1.67,-1.6856,-1.6937,-1.6978,0.0,0.0,0.0,0.0,0.0,0.0,0.0,-1.7717,-1.7792,-1.786,-1.786,-1.786,-1.786,-1.7948,-1.8023,-1.8091,-1.8247,-1.8443,-1.8654,-1.8728,-1.8762,-1.8762,-1.8762,-1.8762,-1.8762,-1.8762,-1.8762,-1.8762,-1.8762,-1.8762,-1.8762,-1.8762,-1.8816,-1.8884,-1.7715,-1.6591,-1.5233,0.0,0.0,0.0,0.0,0.0,0.0,0.0,0.0,0.0,0.0,0.0,0.0,0.0,0.0,0.0,0.0,-2.6386,-2.6386,-2.6386,-2.6386,0.0,0.0,0.0,-2.6386,-2.6386,-2.6466,0.0,0.0,0.0,0.0,-2.7054,-2.7495,-2.7629,0.0,-2.7722,0.0,0.0,0.0,0.0,0.0,-2.8804,-2.8965,-2.9179,-2.9486,-2.9593,-2.9633,-2.9927,-3.0034,0.0,0.0,0.0,-3.0474,-3.0474,-3.0675,0.0,0.0,0.0,0.0,0.0,0.0,-2.7226,-2.4699,-2.2172,-1.9832,0.0,0.0,-1.6282,0.0,-1.6083,-1.6096,-1.613,-1.6232,-1.6354,-1.6497,-1.6653,-1.6802,-1.6958,-1.6978,-1.6978,-1.6978,-1.7012,0.0,0.0,0.0,0.0,0.0,-1.7812,-1.786,-1.786,-1.786,-1.788,-1.7914,-1.8036,-1.8124,-1.8199,-1.8464,-1.8654,-1.8762,-1.8762,-1.8762,-1.8762,-1.8762,-1.8762,-1.8762,-1.8762,-1.8762,-1.8762,-1.8762,-1.8782,-1.8816,-1.8816,-1.8918,-1.8805,-1.7861,-1.6502,-1.4918,0.0,0.0,0.0,0.0,0.0,0.0,0.0,0.0,0.0,0.0,0.0,0.0,0.0,-2.6386,-2.6386,-2.6386,-2.6386,-2.6386,-2.6386,-2.6386,-2.6386,-2.6386,0.0,0.0,-2.6386,-2.6653,0.0,0.0,0.0,0.0,-2.7655,-2.7682,-2.7843,-2.8096,-2.811,-2.8283,-2.8564,0.0,0.0,0.0,-2.9325,-2.9446,-2.9499,-2.978,-2.99,-2.9927,-3.0234,0.0,0.0,0.0,0.0,0.0,0.0,0.0,-3.1209,0.0,0.0,0.0,0.0,-2.8968,0.0,-2.5098,-2.2769,-2.0423,0.0,0.0,-1.6672,-1.6282,-1.6083,-1.6123,-1.6273,-1.6307,-1.6354,-1.6497,-1.6653,-1.6802,-1.6958,-1.6978,-1.6978,-1.6978,-1.71,-1.7243,0.0,0.0,0.0,0.0,-1.786,-1.786,-1.786,-1.786,-1.7935,-1.8077,-1.8091,-1.8233,-1.8511,-1.8674,-1.8762,-1.8762,-1.8762,-1.8762,-1.8762,-1.8762,-1.8762,-1.8762,-1.8762,-1.8762,-1.8762,-1.8762,-1.885,-1.8972,-1.8972,-1.9061,-1.9196,-1.8483,-1.7049,-1.4918,0.0,0.0,0.0,0.0,0.0,0.0,0.0,0.0,0.0,0.0,0.0,0.0,0.0,-2.6386,-2.6386,-2.6386,-2.6386,-2.6386,-2.6386,-2.6386,-2.6466,-2.6653,0.0,0.0,0.0,0.0,0.0,0.0,0.0,-2.7602,-2.7696,-2.7896,-2.815,-2.8444,-2.8444,-2.8497,-2.8617,-2.8804,0.0,0.0,-2.9446,-2.9593,-2.9793,-3.0087,-3.0207,0.0,0.0,0.0,0.0,0.0,0.0,0.0,0.0,0.0,0.0,0.0,0.0,0.0,0.0,0.0,0.0,-2.6078,-2.3736,-2.1397,-1.9824,-1.8449,-1.7268,-1.6672,-1.6275,-1.613,-1.6279,-1.6381,-1.6497,-1.6646,-1.6795,-1.6917,-1.6971,-1.6978,-1.7012,-1.7107,-1.7161,-1.729,-1.7541,-1.7616,0.0,0.0,0.0,-1.786,-1.786,-1.7948,-1.8036,-1.8091,-1.8267,-1.8477,-1.8674,-1.8728,-1.8762,-1.8762,-1.8762,-1.8762,-1.8762,-1.8762,-1.8816,-1.8905,-1.8905,-1.8905,-1.8905,-1.8905,-1.8993,-1.9128,-1.9128,-1.9217,-1.9339,-1.862,-1.7236,-1.5134,0.0,0.0,0.0,0.0,0.0,0.0,0.0,0.0,0.0,0.0,0.0,0.0,0.0,0.0,-2.6426,-2.6533,-2.6533,-2.6573,-2.668,-2.668,-2.6774,-2.6961,-2.6974,-2.7068,-2.7268,0.0,0.0,0.0,0.0,0.0,0.0,0.0,-2.8417,-2.8617,-2.8818,-2.8898,0.0,0.0,0.0,-2.9633,0.0,-2.9806,-3.0087,0.0,0.0,0.0,0.0,0.0,0.0,0.0,0.0,0.0,0.0,0.0,0.0,0.0,0.0,0.0,-3.1107,0.0,0.0,0.0,-2.5098,-2.2955,-2.0996,-1.924,-1.7863,-1.707,-1.6474,-1.6144,-1.6341,-1.6456,-1.6571,-1.6727,-1.6876,-1.6978,-1.6978,-1.6978,-1.7032,-1.7175,-1.7236,-1.7372,-1.7623,-1.7684,-1.7758,0.0,0.0,0.0,-1.786,-1.8002,-1.8145,-1.8233,-1.8477,-1.8654,-1.8762,-1.8762,-1.8762,-1.8762,-1.8762,-1.8796,-1.883,-1.883,-1.8918,-1.9061,-1.9061,-1.9061,-1.9061,-1.9061,-1.9149,-1.9271,-1.9271,-1.9379,-1.9501,-1.9025,-1.7623,-1.5489,0.0,0.0,0.0,0.0,0.0,0.0,0.0,0.0,0.0,0.0,0.0,0.0,0.0,0.0,0.0,-2.6814,-2.6841,-2.6961,-2.7241,-2.7268,-2.7268,-2.7281,-2.7281,-2.7281,-2.7295,-2.7562,0.0,0.0,0.0,0.0,0.0,0.0,-2.8631,0.0,-2.9232,-2.9499,-2.9513,0.0,-2.9659,-2.9927,0.0,-3.0114,-3.0381,0.0,0.0,0.0,-3.1129,-3.1236,0.0,-3.157,0.0,0.0,0.0,0.0,0.0,0.0,0.0,-3.1664,0.0,0.0,0.0,-2.8188,-2.6647,-2.4903,-2.2368,-2.0406,-1.8837,-1.7261,-1.6481,-1.6178,-1.6469,-1.6524,-1.6578,-1.6734,-1.6883,-1.6978,-1.6978,-1.6985,-1.7039,-1.7182,-1.7331,-1.7487,-1.765,-1.7772,-1.786,0.0,-1.786,-1.786,-1.786,-1.8023,-1.8233,-1.8531,-1.8694,-1.8762,-1.8762,-1.8762,-1.8762,-1.8762,-1.8762,-1.885,-1.8993,-1.8993,-1.9081,-1.9203,-1.9203,-1.9217,-1.9217,-1.9203,-1.9305,-1.9434,-1.9434,-1.9535,-1.9664,-1.9664,-1.794,-1.5494,0.0,0.0,0.0,0.0,0.0,0.0,0.0,0.0,0.0,0.0,0.0,0.0,0.0,0.0,-2.7054,-2.7134,-2.7148,-2.7175,-2.7268,-2.7268,-2.7362,-2.7562,-2.7575,-2.7682,-2.7896,-2.7976,0.0,0.0,0.0,0.0,0.0,0.0,0.0,0.0,-2.9406,-2.9726,-3.01,-2.9887,0.0,0.0,-3.0234,-3.0408,0.0,0.0,0.0,0.0,0.0,-3.1543,-3.1557,0.0,-3.1664,-3.1664,0.0,0.0,0.0,0.0,0.0,-3.1664,-3.1487,0.0,0.0,0.0,0.0,0.0,-2.432,-2.1781,-1.9429,-1.8251,-1.7163,-1.63,-1.649,-1.6612,-1.6741,-1.689,-1.6951,-1.6978,-1.6978,-1.7066,-1.7188,-1.7338,-1.7494,-1.765,-1.7792,-1.7846,0.0,0.0,-1.786,-1.7914,-1.8023,-1.8267,-1.8498,-1.8694,-1.8742,-1.8762,-1.8762,-1.8762,-1.8762,-1.8762,-1.8871,-1.8952,-1.8993,-1.9094,-1.9217,-1.9359,-1.9359,-1.9434,-1.9522,-1.9413,-1.9468,-1.959,-1.959,-1.9624,-1.9664,-1.9664,-1.794,-1.5494,0.0,0.0,0.0,0.0,0.0,0.0,0.0,0.0,0.0,0.0,0.0,0.0,0.0,0.0,0.0,-2.7442,-2.7442,-2.7495,-2.7629,-2.7629,-2.7709,-2.7883,-2.7883,-2.7963,-2.8136,-2.827,-2.8337,0.0,0.0,0.0,0.0,0.0,0.0,0.0,-2.974,-3.0034,0.0,0.0,0.0,0.0,-3.0541,0.0,0.0,-3.1156,-3.1303,0.0,0.0,0.0,-3.1664,-3.1664,-3.1664,0.0,0.0,0.0,0.0,0.0,0.0,-3.1664,-3.1664,-3.1487,-3.1093,-3.0522,0.0,0.0,-2.5496,-2.2564,-2.0021,0.0,-1.7399,-1.6354,-1.6497,-1.6646,-1.6802,-1.6958,-1.6978,-1.6978,-1.6978,-1.71,-1.7249,-1.7405,-1.7555,-1.7704,-1.7846,-1.786,-1.786,-1.786,-1.7914,-1.8057,-1.8267,-1.8443,-1.8599,-1.8762,-1.8762,-1.8762,-1.8762,-1.8762,-1.8796,-1.885,-1.8952,-1.9061,-1.9183,-1.9257,-1.9379,-1.9522,-1.9522,-1.9576,-1.9664,-1.9569,-1.9576,-1.9664,-1.9664,-1.9664,-1.9664,-1.9664,-1.794,-1.5494,0.0,0.0,-2.6453,-2.648,-2.6707,0.0,0.0,0.0,0.0,0.0,0.0,0.0,0.0,0.0,0.0,0.0,-2.7749,-2.7869,-2.8177,-2.819,-2.8203,-2.8243,-2.8243,-2.8243,-2.8243,-2.8511,-2.8657,-2.8657,0.0,0.0,0.0,0.0,0.0,0.0,-3.0127,-3.0394,0.0,0.0,0.0,-3.0889,-3.0849,-3.1022,0.0,0.0,-3.1436,0.0,-3.1664,-3.1664,-3.1664,-3.1664,-3.1664,0.0,0.0,0.0,0.0,0.0,-3.1664,-3.1664,-3.1664,-3.1664,-3.1664,-3.1107,-2.9758,0.0,-2.6067,-2.3141,-2.0603,-1.8845,-1.7414,-1.6374,-1.6497,-1.6659,-1.6822,-1.6958,-1.6978,-1.6978,-1.6978,-1.7121,-1.727,-1.7405,-1.7568,-1.7717,-1.7846,-1.786,-1.786,-1.786,-1.8023,-1.8233,-1.8511,-1.8552,-1.862,-1.8762,-1.8762,-1.8762,-1.8762,-1.8782,-1.885,-1.8993,-1.9027,-1.9183,-1.9434,-1.9447,-1.9535,-1.9664,-1.9664,-1.9664,-1.9664,-1.9664,-1.9664,-1.9664,-1.9664,-1.9664,-1.9664,-1.9664,-1.794,-1.5494,-2.6694,-2.6734,-2.6814,-2.7054,0.0,0.0,0.0,0.0,0.0,0.0,0.0,0.0,0.0,0.0,0.0,0.0,-2.8056,-2.819,-2.8497,-2.8524,-2.8617,-2.8858,-2.8858,-2.8858,-2.8858,-2.8925,-2.8951,-2.8951,0.0,0.0,0.0,0.0,0.0,0.0,-3.0314,-3.0621,-3.1062,0.0,0.0,-3.1476,-3.1236,0.0,-3.1583,-3.1583,-3.1623,-3.1664,-3.1664,-3.1664,-3.1664,-3.1664,-3.1664,-3.1664,0.0,0.0,0.0,-3.1664,0.0,0.0,0.0,0.0,0.0,0.0,0.0,0.0,-2.7033,-2.431,-2.1585,-1.9429,-1.8097,-1.6898,-1.6517,-1.6748,-1.6944,-1.6978,-1.6978,-1.6978,-1.6978,-1.7209,-1.7385,-1.7419,-1.765,-1.7826,-1.786,-1.786,-1.786,-1.786,-1.8124,-1.8355,-1.8511,-1.8654,-1.8728,-1.8762,-1.8762,-1.8762,-1.8762,-1.8884,-1.8959,-1.8993,-1.9237,-1.9379,-1.9434,-1.9556,-1.9624,-1.9664,-1.9664,-1.9664,-1.9664,-1.9664,-1.9664,-1.9664,-1.9664,-1.9664,-1.9664,-1.9664,-1.794,-1.5494,-2.7014,-2.7041,-2.7094,-2.7241,0.0,0.0,0.0,0.0,0.0,0.0,0.0,0.0,0.0,0.0,0.0,0.0,-2.8591,-2.8657,-2.8818,-2.8818,0.0,-2.9032,-2.9045,-2.9045,-2.9045,-2.9179,-2.9259,-2.9259,0.0,0.0,0.0,0.0,0.0,0.0,0.0,-3.0955,0.0,0.0,-3.153,-3.165,-3.1503,0.0,-3.1664,-3.1664,-3.1664,-3.1664,-3.1664,-3.1664,-3.1664,-3.1664,-3.1664,0.0,0.0,-3.1664,-3.1664,0.0,-3.1664,-3.1664,0.0,0.0,0.0,-3.1664,0.0,0.0,0.0,-2.4893,-2.1808,-2.0139,-1.8381,-1.7165,-1.6625,-1.6822,-1.6978,-1.6978,-1.6978,-1.6978,-1.6978,-1.7236,-1.7419,-1.7419,-1.7684,-1.786,-1.786,-1.786,-1.7935,-1.8077,-1.8233,-1.8409,-1.864,-1.8728,-1.8762,-1.8762,-1.8762,-1.8796,-1.8871,-1.8959,-1.9061,-1.9217,-1.9359,-1.9468,-1.9556,-1.9624,-1.9664,-1.9664,-1.9664,-1.9664,-1.9664,-1.9664,-1.9664,-1.9664,-1.9664,-1.9664,-1.9664,-1.9664,-1.794,-1.5494,-2.7362,-2.7348,-2.7362,-2.7428,0.0,0.0,0.0,0.0,0.0,0.0,0.0,0.0,0.0,0.0,0.0,0.0,0.0,-2.9072,0.0,0.0,0.0,-2.9205,-2.9205,-2.9205,-2.9205,-2.9446,-2.9593,-2.9646,0.0,0.0,0.0,0.0,0.0,0.0,0.0,0.0,0.0,0.0,0.0,-3.1664,0.0,-3.1664,-3.1664,-3.1664,-3.1664,-3.1664,-3.1664,-3.1664,-3.1487,-3.1487,-3.1474,-3.1474,-3.1474,-3.1474,0.0,0.0,0.0,0.0,0.0,0.0,0.0,0.0,0.0,-2.9184,0.0,0.0,0.0,-2.0465,-1.8667,-1.7433,-1.6727,-1.6876,-1.6978,-1.6978,-1.6978,-1.6992,-1.7019,-1.7249,-1.7419,-1.7419,-1.7684,-1.786,-1.786,-1.7901,-1.8023,-1.8301,-1.8335,-1.8477,-1.8742,-1.8762,-1.8762,-1.8762,-1.8796,-1.8871,-1.8993,-1.904,-1.9203,-1.9434,-1.9468,-1.9535,-1.9664,-1.9664,-1.9664,-1.9664,-1.9664,-1.9664,-1.9664,-1.9664,-1.9664,-1.9664,-1.9664,-1.9664,-1.9664,-1.9664,-1.794,-1.5494,-2.7696,-2.7642,-2.7736,-2.8003,0.0,0.0,0.0,0.0,0.0,0.0,0.0,0.0,0.0,0.0,0.0,0.0,0.0,0.0,-2.9419,0.0,0.0,-2.9806,-2.982,-2.982,-2.982,-2.9847,-2.9993,-3.0261,0.0,0.0,0.0,0.0,0.0,0.0,-3.1209,0.0,0.0,0.0,-3.1664,0.0,-3.1664,-3.1664,0.0,-3.1664,-3.1664,-3.1664,-3.1664,-3.1474,-3.0916,0.0,-3.0713,-3.0319,0.0,-3.0319,-3.0319,-3.0903,0.0,0.0,0.0,0.0,0.0,0.0,-2.9758,0.0,0.0,0.0,-2.3246,-2.069,0.0,-1.7967,-1.6955,0.0,0.0,-1.6978,-1.6978,-1.7026,-1.7148,-1.7311,-1.7419,-1.7419,-1.7684,-1.786,-1.786,-1.7989,-1.8145,-1.8301,-1.8443,-1.8586,-1.8742,-1.8762,-1.8762,-1.8762,-1.8884,-1.8972,-1.8993,-1.9257,-1.9393,-1.9434,-1.9569,-1.9644,-1.9664,-1.9664,-1.9664,-1.9664,-1.9664,-1.9664,-1.9664,-1.9664,-1.9664,-1.9664,-1.9664,-1.9664,-1.9664,-1.9664,-1.794,-1.5494,-2.7976,-2.7963,-2.7989,-2.8123,0.0,0.0,0.0,0.0,0.0,0.0,0.0,0.0,0.0,0.0,0.0,0.0,0.0,-2.9673,0.0,0.0,0.0,0.0,0.0,0.0,-3.0421,-3.0421,-3.0488,-3.0608,-3.0608,0.0,0.0,0.0,0.0,0.0,-3.149,0.0,-3.1664,0.0,-3.1664,0.0,0.0,0.0,0.0,-3.1664,-3.1664,-3.1664,-3.1664,-3.1297,-3.0916,0.0,-3.0331,0.0,0.0,0.0,0.0,-2.9554,0.0,0.0,0.0,0.0,0.0,0.0,0.0,0.0,-2.7089,0.0,-2.3308,0.0,0.0,0.0,0.0,0.0,0.0,0.0,-1.6978,-1.7032,-1.7175,-1.7324,-1.7453,-1.7541,0.0,0.0,-1.786,-1.8002,-1.8158,0.0,-1.8443,-1.8599,-1.8762,-1.8762,-1.8762,-1.8762,-1.8905,-1.9027,-1.9115,-1.9325,-1.9481,-1.9569,-1.9624,-1.9664,-1.9664,-1.9664,-1.9664,-1.9664,-1.9664,-1.9664,-1.9664,-1.9664,-1.9664,-1.9664,-1.9664,-1.9664,-1.9664,-1.9664,-1.794,-1.5494,-2.839,0.0,0.0,0.0,0.0,0.0,0.0,0.0,0.0,0.0,0.0,0.0,-2.937,-2.962,0.0,0.0,0.0,-3.0247,0.0,0.0,-3.0568,0.0,0.0,0.0,0.0,-3.0795,-3.0835,-3.0915,-3.0915,-3.1062,0.0,0.0,0.0,0.0,0.0,-3.1664,-3.1664,0.0,-3.1664,-3.1664,-3.1664,-3.1717,-3.1784,-3.1513,-3.1527,-3.1593,-3.1212,-3.0881,-3.0369,-3.0177,-2.9393,0.0,-2.8232,0.0,-2.7444,0.0,0.0,0.0,-2.7833,0.0,0.0,0.0,0.0,0.0,0.0,0.0,0.0,0.0,0.0,0.0,0.0,0.0,-1.6978,-1.6978,0.0,-1.7087,-1.7236,-1.7385,-1.7521,-1.7629,-1.7772,0.0,0.0,-1.8036,-1.8199,-1.8321,0.0,-1.864,-1.8762,-1.8762,-1.8782,-1.8816,-1.8972,-1.9115,-1.9257,-1.9413,-1.9556,-1.9664,-1.9664,-1.9664,-1.9664,-1.9664,-1.9664,-1.9664,-1.9664,-1.9664,-1.9664,-1.9664,-1.9664,-1.9664,-1.9664,-1.9664,-1.9664,-1.9664,-1.794,-1.5494,-2.9005,-2.8791,0.0,0.0,0.0,0.0,0.0,0.0,0.0,0.0,0.0,0.0,0.0,0.0,0.0,0.0,0.0,-3.0768,-3.0782,0.0,-3.0782,0.0,0.0,-3.0795,0.0,0.0,-3.0929,-3.1209,-3.1209,-3.1356,0.0,0.0,-3.1664,-3.1664,-3.1664,-3.1664,-3.1664,-3.1664,-3.1664,-3.1664,-3.1664,-3.1837,-3.2064,0.0,-3.1086,-3.1127,-3.0147,0.0,0.0,-2.8183,-2.718,0.0,0.0,0.0,0.0,0.0,0.0,0.0,0.0,0.0,0.0,-2.5577,0.0,0.0,0.0,0.0,-2.1874,0.0,0.0,0.0,0.0,-1.6978,-1.6978,-1.6978,-1.7093,0.0,0.0,-1.7548,-1.765,-1.765,-1.7772,-1.786,0.0,-1.8145,-1.8321,0.0,-1.8586,0.0,-1.8762,-1.8762,-1.883,-1.8972,-1.9115,-1.9271,-1.9413,-1.9576,-1.9664,-1.9664,-1.9664,-1.9664,-1.9664,-1.9664,-1.9664,-1.9664,-1.9664,-1.9664,-1.9664,-1.9664,-1.9664,-1.9664,-1.9664,-1.9664,-1.9664,-1.9664,-1.794,-1.5494,-2.9299,0.0,0.0,0.0,0.0,0.0,0.0,-2.9401,0.0,0.0,0.0,0.0,0.0,0.0,-2.8557,0.0,0.0,-2.939,-2.9568,-2.9955,0.0,0.0,0.0,-3.0818,0.0,0.0,-3.1423,-3.1517,-3.1517,-3.157,0.0,-3.1664,-3.1664,-3.1664,0.0,-3.1664,0.0,0.0,0.0,0.0,0.0,-3.2305,-3.2385,0.0,0.0,-3.1412,-3.0424,-2.9505,0.0,-2.76,-2.6207,-2.4808,-2.3987,-2.3394,-2.2992,-2.2781,-2.2781,0.0,0.0,0.0,-2.3605,-2.3203,0.0,0.0,0.0,0.0,0.0,0.0,0.0,0.0,0.0,-1.706,-1.7121,-1.7121,-1.7249,-1.7399,0.0,-1.7704,-1.7792,-1.7792,-1.7826,-1.786,-1.786,0.0,0.0,0.0,-1.8599,0.0,0.0,-1.8762,-1.883,-1.8993,-1.9128,-1.9271,-1.9434,-1.959,-1.9664,-1.9664,-1.9664,-1.9664,-1.9664,-1.9664,-1.9664,-1.9664,-1.9664,-1.9664,-1.9664,-1.9664,-1.9664,-1.9664,-1.9664,-1.9664,-1.9664,-1.9664,-1.8197,-1.5738,-2.9593,0.0,0.0,0.0,0.0,0.0,0.0,0.0,0.0,0.0,-2.7775,0.0,-2.6805,0.0,-2.7133,0.0,-2.79,-2.8351,-2.8521,-2.9103,0.0,-2.9937,-3.0522,0.0,0.0,0.0,-3.1664,-3.1664,-3.1664,-3.1664,-3.1664,-3.1664,-3.1664,-3.1664,-3.1664,-3.173,-3.1824,-3.1824,-3.1998,0.0,0.0,-3.2706,0.0,0.0,-3.1604,-3.112,0.0,-2.8591,-2.7459,-2.585,-2.4436,-2.3025,-2.1989,-2.1386,-2.0773,-2.056,-2.056,-2.056,-2.056,-2.1029,0.0,-2.1294,-2.1845,0.0,-2.1154,0.0,0.0,0.0,0.0,0.0,0.0,-1.7209,-1.727,-1.727,-1.7399,-1.7555,0.0,-1.7812,-1.786,-1.786,-1.786,-1.788,-1.7935,-1.8179,0.0,0.0,0.0,0.0,0.0,0.0,-1.8918,-1.9061,-1.9203,-1.9359,-1.9522,-1.961,-1.9664,-1.9664,-1.9664,-1.9664,-1.9664,-1.9664,-1.9664,-1.9664,-1.9664,-1.9664,-1.9664,-1.9664,-1.9664,-1.9664,-1.9664,-1.9664,-1.9664,-1.9664,-1.819,-1.5244,-2.9953,0.0,0.0,0.0,-3.0207,0.0,0.0,0.0,-2.857,0.0,-2.6731,-2.6118,-2.5163,-2.556,-2.6078,-2.6078,-2.7033,0.0,-2.7611,-2.8596,0.0,0.0,-3.014,-3.0726,-3.0726,0.0,0.0,0.0,-3.1664,-3.1664,-3.1664,-3.1664,-3.1677,-3.169,-3.169,0.0,-3.2118,-3.2118,-3.2291,-3.2599,-3.2879,-3.2604,-3.2047,-3.173,-3.1265,-3.0228,-2.8232,-2.6756,-2.5707,-2.3456,-2.2003,-2.0962,-1.971,-1.9082,-1.8663,-1.9291,-1.9501,-1.9501,-1.9501,-1.9828,-2.0377,-1.9742,0.0,0.0,0.0,0.0,-1.8911,0.0,0.0,0.0,0.0,0.0,-1.7433,-1.7433,-1.7561,-1.7704,-1.7846,-1.786,-1.786,-1.786,-1.786,-1.7935,-1.8077,-1.8233,-1.8375,-1.8511,0.0,-1.8762,-1.8762,0.0,-1.9061,-1.9203,-1.9345,-1.9501,-1.9664,-1.9664,-1.9664,-1.9664,-1.9664,-1.9664,-1.9664,-1.9664,-1.9664,-1.9664,-1.9664,-1.9664,-1.9664,-1.9664,-1.9664,-1.9664,-1.9664,-1.9664,-1.9664,-1.9657,-1.7703,-1.4271,-3.0568,-3.0635,-3.0544,0.0,-3.0228,-2.978,0.0,0.0,0.0,0.0,-2.5078,-2.4442,-2.3665,-2.3121,-2.276,-2.276,-2.3336,0.0,0.0,0.0,0.0,-2.7056,-2.8019,-2.8788,-2.9171,-2.9758,0.0,-3.1107,0.0,0.0,-3.1664,-3.1664,-3.1784,-3.1984,-3.1984,-3.2158,-3.2425,-3.2425,-3.2599,-3.2893,-3.2788,-3.2307,0.0,0.0,-2.9407,-2.8108,-2.7924,-2.6926,-2.534,-2.3199,-2.1771,-2.071,-1.9006,-1.8579,-1.8366,-1.7946,-1.7939,-1.7939,-1.7939,-1.8395,-1.8852,-1.8645,-1.9103,-1.9355,0.0,0.0,0.0,0.0,0.0,0.0,0.0,0.0,-1.7589,-1.7589,-1.7717,-1.7826,-1.786,-1.786,-1.786,-1.786,-1.7968,-1.8057,-1.8091,-1.8233,-1.8375,-1.8511,-1.8674,-1.8762,-1.8762,0.0,0.0,-1.9203,-1.9345,-1.9501,-1.9664,-1.9664,-1.9664,-1.9664,-1.9664,-1.9664,-1.9664,-1.9664,-1.9664,-1.9664,-1.9664,-1.9664,-1.9664,-1.9664,-1.9664,-1.9664,-1.9664,-1.9664,-1.9657,-1.9177,-1.7209,-1.4506,-3.0795,0.0,0.0,-3.0629,0.0,0.0,-2.8338,0.0,0.0,-2.4542,-2.3686,0.0,-2.1995,-2.121,-2.0808,-2.0603,-2.1201,0.0,-2.2182,0.0,0.0,-2.5302,-2.6476,-2.7442,-2.8019,-2.8596,0.0,-3.0522,0.0,-3.1172,-3.1851,-3.1851,-3.2011,-3.2291,-3.2291,-3.2465,-3.2746,-3.2866,-3.2815,-3.2788,-3.2488,-3.1782,0.0,-2.9617,-2.783,-2.6169,-2.6062,-2.52,-2.3455,-2.1874,-2.0634,-1.9562,-1.8273,-1.785,-1.785,-1.7419,-1.7419,-1.7419,-1.7419,-1.7683,-1.7947,-1.7947,-1.822,-1.8487,-1.8262,-1.8045,-1.8045,0.0,0.0,0.0,0.0,0.0,0.0,-1.7738,-1.7812,-1.786,-1.786,-1.786,-1.788,-1.7948,-1.8036,-1.8145,-1.8267,-1.8355,-1.8477,-1.862,0.0,0.0,0.0,0.0,0.0,-1.9203,-1.9413,-1.9576,-1.9664,-1.9664,-1.9664,-1.9664,-1.9664,-1.9664,-1.9664,-1.9664,-1.9664,-1.9664,-1.9664,-1.9664,-1.9664,-1.9664,-1.9664,-1.9664,-1.9664,-1.9664,-1.9657,-1.923,-1.7752,-1.5244,0.0,0.0,0.0,0.0,0.0,0.0,0.0,-2.6476,0.0,-2.317,0.0,-2.1612,-2.0038,-1.984,-1.9446,-1.9042,0.0,-2.0243,-2.0458,-2.2229,-2.3415,-2.3444,-2.4803,-2.5983,-2.6565,-2.7534,-2.8693,0.0,0.0,-3.1151,-3.1965,-3.2158,-3.2318,-3.2599,-3.2599,-3.2759,-3.3053,-3.3147,-3.3079,-3.2488,-3.1959,-3.0842,-2.9216,-2.8203,-2.6385,-2.4509,-2.344,-2.2535,-2.1309,-2.0269,-1.92,-1.8337,-1.7696,-1.748,-1.748,-1.748,-1.748,-1.748,-1.748,-1.7589,-1.7704,-1.7704,-1.7806,-1.7914,-1.7914,-1.7914,-1.7914,-1.7914,-1.7914,-1.7914,0.0,0.0,-1.7914,-1.7914,-1.7914,-1.7914,0.0,0.0,-1.7968,-1.8111,-1.8145,0.0,-1.8511,-1.8531,-1.8599,-1.8742,0.0,0.0,0.0,0.0,0.0,-1.9237,-1.9522,-1.9664,-1.9664,0.0,-1.9664,-1.9664,-1.9664,-1.9664,-1.9664,-1.9664,-1.9664,-1.9664,-1.9664,-1.9664,-1.9664,-1.9664,-1.9664,-1.9664,-1.9678,-1.9698,-1.9712,-1.9854,-1.8593,-1.6517,0.0,0.0,0.0,0.0,0.0,-2.6078,-2.432,-2.3941,-2.3365,-2.1995,-2.1022,-2.0226,-1.9437,-1.8655,-1.7863,-1.7261,-1.7459,0.0,0.0,0.0,0.0,-2.1073,-2.1676,-2.2669,-2.3678,-2.4676,-2.6265,0.0,-2.964,-3.0853,-3.1881,-3.227,-3.2625,-3.2906,-3.2906,-3.2868,-3.276,-3.3061,0.0,-3.1563,-3.0805,-2.9434,-2.7784,-2.5902,-2.4066,-2.2371,-2.148,-2.0996,-2.0867,-1.9936,-1.9104,-1.8459,-1.7998,-1.7792,-1.7792,-1.7792,-1.7792,-1.7792,-1.7792,-1.7901,-1.8023,-1.8023,-1.8124,-1.8233,-1.8233,-1.8233,-1.8233,-1.8233,-1.8233,-1.8233,-1.8233,0.0,0.0,0.0,0.0,0.0,0.0,0.0,-1.8247,-1.8287,-1.8389,-1.8477,-1.8531,-1.8531,-1.8599,-1.8742,-1.8762,0.0,0.0,0.0,0.0,0.0,-1.9569,0.0,0.0,0.0,-1.9664,-1.9664,-1.9664,-1.9664,-1.9664,-1.9664,-1.9664,-1.9664,-1.9664,-1.9664,-1.9664,-1.9664,-1.9664,-1.9678,-1.9786,-1.9841,-1.9854,-2.001,-1.9535,-1.8281,0.0,0.0,0.0,0.0,0.0,0.0,0.0,-2.1749,0.0,-2.0046,-1.9528,-1.8988,-1.8183,-1.7665,-1.7322,-1.671,-1.6912,-1.7149,-1.7625,-1.8637,-1.9274,-1.976,-2.0173,0.0,-2.1994,-2.3193,-2.4798,-2.6794,-2.859,-3.0058,0.0,-3.2182,-3.2722,-3.3213,-3.2973,-3.2716,-3.2048,0.0,0.0,-2.9769,-2.8756,-2.7367,-2.5282,-2.3882,-2.2261,-2.0733,-2.0041,-1.9826,-1.9537,-1.9308,-1.8921,-1.8552,-1.8097,-1.8091,-1.8091,-1.8091,-1.8091,-1.8091,-1.8091,-1.8158,-1.8213,-1.8213,-1.8267,-1.8321,-1.8321,-1.8321,-1.8321,-1.8321,-1.8321,-1.8321,-1.8321,-1.8321,0.0,0.0,0.0,0.0,0.0,0.0,-1.8355,-1.8423,-1.8498,-1.8565,-1.864,-1.8654,-1.8674,-1.8762,-1.8762,0.0,0.0,0.0,0.0,0.0,0.0,0.0,0.0,0.0,0.0,-1.9664,-1.9664,-1.9664,-1.9664,-1.9664,-1.9664,-1.9664,-1.9664,-1.9664,-1.9664,-1.9752,-1.9766,-1.9786,-1.9929,-1.9997,-2.001,-2.0173,-1.9713,-1.8949,0.0,-2.9413,0.0,0.0,-2.5409,0.0,-2.1523,-1.9958,-1.8915,-1.8382,-1.8483,-1.8164,-1.7156,-1.727,-1.7137,-1.6524,-1.6932,-1.7158,-1.7186,-1.7997,-1.8421,-1.8458,-1.8875,-1.9489,-2.0502,-2.1714,-2.3327,0.0,-2.7348,-2.926,0.0,-3.1739,-3.252,0.0,0.0,0.0,0.0,0.0,-2.9153,-2.7503,-2.6714,-2.5106,-2.2987,-2.2226,-2.1024,-1.9707,-1.9163,-1.8788,-1.8342,-1.8663,-1.8698,-1.8321,-1.8321,-1.8321,-1.8321,-1.8321,-1.8321,-1.8321,-1.8321,-1.8335,-1.8375,-1.8375,-1.8389,-1.8409,-1.8409,-1.8409,-1.8409,-1.8409,-1.8409,-1.8409,-1.8409,-1.8409,0.0,0.0,0.0,0.0,0.0,0.0,-1.8464,-1.8565,-1.8586,-1.862,-1.8742,-1.8762,-1.8782,-1.8816,-1.8816,0.0,-1.9027,0.0,0.0,0.0,0.0,-1.9664,-1.9664,0.0,-1.9664,0.0,-1.9664,-1.9664,-1.9664,-1.9664,-1.9664,-1.9664,-1.9664,-1.9678,-1.9712,-1.982,-1.9888,-1.9942,-2.0085,-2.0153,-2.0173,-2.0315,-2.0118,-1.9341,0.0,0.0,0.0,0.0,0.0,0.0,0.0,-1.8534,-1.772,-1.8112,-1.8119,-1.7931,-1.7319,-1.7334,-1.7137,-1.6524,-1.6524,-1.6585,-1.672,-1.6934,-1.6996,-1.714,-1.7147,-1.7559,-1.8179,-1.9631,-2.1492,0.0,-2.6219,-2.8495,0.0,-3.1413,0.0,0.0,0.0,0.0,0.0,-2.8245,-2.6855,-2.4776,-2.4521,-2.3347,-2.1603,-2.0701,-1.9869,-1.9199,-1.8541,-1.8409,-1.8511,-1.8498,-1.8409,-1.8321,-1.8321,-1.8321,-1.8321,-1.8321,-1.8321,-1.8321,-1.8321,-1.8409,-1.8511,-1.8511,-1.862,-1.8728,-1.8728,-1.8728,-1.8728,-1.8728,-1.8728,-1.8728,-1.8728,-1.8728,-1.8728,0.0,0.0,0.0,0.0,0.0,-1.8728,-1.8742,-1.8742,-1.8742,-1.8762,-1.8762,-1.8816,-1.8959,-1.8972,0.0,0.0,0.0,0.0,-1.9644,0.0,-1.9664,-1.9664,-1.9664,-1.9664,-1.9664,-1.9664,-1.9664,-1.9664,-1.9664,-1.9664,-1.9664,-1.9664,-1.9732,-1.9854,-1.9875,-1.9963,-2.0098,-2.0241,-2.0309,-2.0329,-2.0471,-2.0519,-2.0265,0.0,0.0,0.0,0.0,0.0,0.0,0.0,-1.824,-1.769,-1.7671,-1.7531,-1.7418,-1.7217,-1.7168,-1.7271,-1.706,-1.706,-1.7087,-1.7148,-1.7154,-1.7182,-1.7243,-1.7243,-1.7456,-1.8088,-1.9144,-2.0409,0.0,0.0,0.0,-2.8376,0.0,0.0,0.0,0.0,-2.7822,-2.5942,-2.5851,-2.4474,-2.2759,-2.236,-2.1366,-2.0027,-1.9745,-1.9362,-1.8678,-1.8552,-1.862,-1.8674,-1.8674,-1.864,-1.8586,-1.8586,-1.8586,-1.8586,-1.8586,-1.8586,-1.8586,-1.8586,-1.862,-1.8674,-1.8674,-1.8708,-1.8762,-1.8762,-1.8762,-1.8762,-1.8762,-1.8762,-1.8762,-1.8762,-1.8762,-1.8762,0.0,0.0,0.0,0.0,0.0,-1.8905,-1.8905,-1.8972,-1.9027,-1.9027,-1.9027,-1.9047,0.0,0.0,0.0,0.0,0.0,0.0,-1.9664,0.0,-1.9664,-1.9664,-1.9664,-1.9664,-1.9664,-1.9664,-1.9664,-1.9664,-1.9664,-1.9712,-1.9786,-1.9786,-1.9875,-2.001,-2.0098,-2.0187,-2.0261,-2.0397,-2.0451,-2.0471,-2.0526,-2.0539,-2.0285,-2.4387,0.0,-2.1953,0.0,-2.0217,-1.913,-1.8535,-1.7946,-1.7607,-1.7392,-1.7277,-1.7161,-1.7114,-1.7297,-1.7419,-1.7419,-1.7419,-1.7419,-1.7419,-1.7419,-1.7419,-1.7419,-1.7419,0.0,-1.8065,-1.8488,-1.9555,-2.1062,-2.2752,0.0,0.0,-2.705,0.0,0.0,-2.6367,-2.5399,-2.3756,-2.3391,-2.2377,-2.0832,-2.0568,-1.9957,-1.9078,-1.924,-1.9094,-1.8674,-1.8796,-1.885,-1.8884,-1.8884,-1.8884,-1.8884,-1.885,-1.885,-1.8884,-1.8884,-1.8884,-1.8884,-1.8884,-1.8884,-1.8884,-1.8884,-1.8884,-1.8884,-1.8884,-1.8884,-1.8884,-1.8884,-1.8884,-1.8884,-1.8884,-1.8884,-1.8884,-1.8884,0.0,0.0,0.0,-1.8993,-1.9061,-1.9061,-1.9149,-1.9203,-1.9203,-1.9203,-1.9217,0.0,0.0,0.0,0.0,0.0,0.0,0.0,0.0,0.0,0.0,-1.9664,-1.9664,-1.9664,-1.9664,-1.9664,-1.9664,-1.9698,-1.9786,-1.9875,-1.9922,-2.0031,-2.0173,-2.0275,-2.0349,-2.0397,-2.0505,-2.0539,-2.0539,-2.0539,-2.0539,-2.0539,-2.057,-2.0463,-2.0103,-1.9477,-1.8909,-1.8266,-1.8266,-1.7843,-1.7419,-1.7419,-1.7548,-1.7582,-1.7433,-1.7419,-1.7419,-1.7419,-1.7419,-1.7419,-1.7419,-1.7419,-1.7419,0.0,0.0,-1.7419,-1.7419,-1.8065,-1.8918,-1.9999,0.0,0.0,-2.4258,-2.4457,-2.4759,-2.5147,-2.3383,-2.2394,-2.1912,-2.1229,-2.0335,-1.9241,-1.9384,-1.899,-1.8552,-1.8708,-1.885,-1.8993,-1.8993,-1.9081,-1.9203,-1.9203,-1.9203,-1.9169,-1.9027,-1.9081,-1.9203,-1.9203,-1.9203,-1.9203,-1.9203,-1.9203,-1.9203,-1.9203,-1.9203,-1.9203,-1.9203,-1.9203,-1.9203,-1.9203,-1.9203,-1.9203,-1.9203,-1.9203,-1.9203,-1.9203,0.0,0.0,0.0,-1.9203,-1.9203,-1.9203,-1.9203,-1.9203,-1.9203,-1.9203,-1.9271,0.0,0.0,0.0,0.0,0.0,0.0,-1.9664,-1.9664,0.0,-1.9664,-1.9664,-1.9664,-1.9664,-1.9664,-1.9664,-1.9664,-1.98,-1.9875,-1.9875,-2.0031,-2.0187,-2.0329,-2.0329,-2.0417,-2.0539,-2.0539,-2.0539,-2.0539,-2.0539,-2.0539,-2.0539,-2.0086,-1.9538,-1.8763,-1.8763,-1.8209,-1.7669,-1.7772,-1.7575,-1.765,-1.7846,-1.7914,-1.7968,-1.8023,-1.7846,-1.7758,0.0,-1.788,-1.7914,0.0,-1.8036,-1.8036,-1.8036,-1.8036,-1.8036,-1.8036,-1.8246,-1.8691,-1.9366,0.0,0.0,0.0,-2.2949,-2.283,-2.2254,-2.1823,-2.0957,-1.9906,-2.0016,-1.937,-1.8699,-1.8857,-1.898,-1.885,-1.8905,-1.9006,-1.9128,-1.9128,-1.9169,-1.9203,-1.9203,-1.9271,-1.9345,-1.9305,-1.9257,-1.9203,-1.9203,-1.9203,-1.9203,-1.9203,-1.9203,-1.9203,-1.9203,-1.9203,-1.9203,-1.9203,-1.9203,-1.9203,-1.9203,-1.9203,-1.9203,-1.9203,-1.9203,-1.9203,-1.9203,-1.9203,0.0,-1.9203,0.0,-1.9359,-1.9359,-1.9447,-1.9522,-1.9522,-1.9522,0.0,0.0,0.0,0.0,0.0,0.0,0.0,0.0,-1.9664,0.0,-1.9664,-1.9664,-1.9664,-1.9664,-1.9664,-1.9712,-1.98,-1.9854,-1.9976,-2.0187,-2.0241,-2.0349,-2.0471,-2.0471,-2.0505,-2.0539,-2.0539,-2.0539,-2.0539,-2.0539,-2.0539,-2.0539,-1.8926,-1.8539,-1.7954,-1.8227,-1.7847,-1.7717,-1.788,-1.7894,-1.7968,-1.8158,-1.8179,-1.8213,-1.8301,-1.8145,0.0,-1.8165,-1.8179,-1.8213,-1.8321,-1.8321,-1.8321,-1.8321,-1.8321,-1.8321,-1.8321,0.0,0.0,-1.922,-1.9898,-2.0561,-2.1229,-2.1237,-2.1058,-2.0433,-2.0214,-1.9569,-1.8955,-1.9101,-1.8932,-1.8728,-1.8871,-1.8993,-1.9081,-1.9081,-1.9169,-1.9291,-1.9291,-1.9325,-1.9379,-1.9379,-1.9434,-1.9522,-1.9522,-1.9447,-1.9379,-1.9379,-1.9379,-1.9379,-1.9379,-1.9379,-1.9379,-1.9379,-1.9379,-1.9379,-1.9379,-1.9379,-1.9379,-1.9379,-1.9379,-1.9379,-1.9379,-1.9379,-1.9379,-1.9379,-1.9379,-1.9379,-1.9379,0.0,-1.9522,-1.9522,0.0,0.0,0.0,-1.9664,-1.9664,0.0,0.0,0.0,0.0,0.0,0.0,-1.9664,-1.9664,0.0,-1.9664,-1.9664,-1.9664,-1.9664,-1.9712,-1.982,-1.9963,-2.001,-2.0153,-2.0329,-2.0383,-2.0451,-2.0539,-2.0539,-2.0539,-2.0539,-2.0539,-2.0539,-2.0539,-2.0539,-2.0539,-2.0539,-1.748,-1.7595,0.0,0.0,-1.8023,0.0,-1.8301,-1.8321,-1.8321,-1.8335,-1.8335,-1.8335,-1.8355,-1.8355,-1.8355,-1.8355,0.0,0.0,0.0,-1.8355,-1.8355,-1.8355,-1.8355,-1.8355,-1.8355,-1.8355,-1.8575,-1.9256,-1.9709,-1.9928,-1.9928,-1.9468,-1.9348,-1.9261,-1.8802,-1.8654,-1.8796,-1.8938,-1.9006,-1.9006,-1.9149,-1.9203,-1.9217,-1.9217,-1.9305,-1.9447,-1.9447,-1.9535,-1.9664,-1.9664,-1.9664,-1.9664,-1.9664,-1.9664,-1.9664,-1.9664,-1.9664,-1.9664,-1.9664,-1.9664,-1.9664,-1.9664,-1.9664,-1.9664,-1.9664,-1.9664,-1.9664,-1.9664,-1.9664,-1.9664,-1.9664,-1.9664,-1.9664,-1.9664,-1.9664,-1.9664,-1.9664,-1.9664,-1.9664,0.0,0.0,0.0,0.0,-1.9664,-1.9664,0.0,0.0,0.0,0.0,0.0,-1.9664,-1.9664,-1.9664,-1.9664,-1.9664,-1.9664,-1.9664,-1.9678,-1.982,-1.9963,-2.0119,-2.0261,-2.0329,-2.0349,-2.0485,-2.0539,-2.0539,-2.0539,-2.0539,-2.0539,-2.0539,-2.0539,-2.0539,-2.0539,-2.0539,-2.0539,0.0,0.0,-1.8179,-1.8213,-1.8247,-1.8287,-1.8321,-1.8321,-1.8355,-1.8464,-1.8477,-1.8531,-1.864,-1.8654,-1.8654,-1.8654,-1.8552,-1.8531,-1.8654,-1.8654,-1.8654,-1.8654,-1.8654,-1.8654,-1.8654,-1.8654,-1.866,-1.8891,-1.9108,-1.9115,-1.9115,-1.8877,-1.8967,-1.9125,-1.8884,-1.8952,-1.9094,-1.9128,-1.9149,-1.9149,-1.9183,-1.9271,-1.9379,-1.9379,-1.9468,-1.961,-1.961,-1.9624,-1.9664,-1.9664,-1.9664,-1.9664,-1.9664,-1.9664,-1.9664,-1.9664,-1.9664,-1.9664,-1.9664,-1.9664,-1.9664,-1.9664,-1.9664,-1.9664,-1.9664,-1.9664,-1.9664,-1.9664,-1.9664,-1.9664,-1.9664,-1.9664,-1.9664,-1.9664,-1.9664,-1.9664,-1.9664,-1.9664,-1.9664,0.0,-1.9664,-1.9664,-1.9664,-1.9664,-1.9664,0.0,0.0,0.0,0.0,-1.9664,-1.9664,-1.9664,-1.9664,-1.9664,-1.9664,-1.9664,-1.9712,-1.982,-1.9976,-2.0119,-2.0275,-2.0315,-2.0383,-2.0485,-2.0526,-2.0539,-2.0539,-2.0539,-2.0539,-2.0539,-2.0539,-2.0539,-2.0539,-2.0539,-2.0539,-2.0539,-1.8301,-1.8321,-1.8335,-1.8409,-1.8409,-1.8443,-1.8511,-1.8518,-1.8565,-1.8728,-1.8742,-1.8796,-1.8952,-1.8959,-1.8959,-1.8959,-1.8762,-1.8708,-1.885,-1.8871,-1.8905,-1.8959,-1.8959,-1.8959,-1.8959,-1.8959,-1.8959,-1.8959,-1.8959,-1.8959,-1.8959,-1.8959,-1.9006,-1.9081,-1.9081,-1.9128,-1.9203,-1.9271,-1.9305,-1.9305,-1.9379,-1.9468,-1.9535,-1.9535,-1.959,-1.9664,-1.9664,-1.9664,-1.9664,-1.9664,-1.9664,-1.9664,-1.9664,-1.9664,-1.9664,-1.9664,-1.9664,-1.9664,-1.9664,-1.9664,-1.9664,-1.9664,-1.9664,-1.9664,-1.9664,-1.9664,-1.9664,-1.9664,-1.9664,-1.9664,-1.9664,-1.9664,-1.9664,-1.9664,-1.9664,-1.9664,-1.9664,-1.9664,0.0,-1.9664,-1.9664,-1.9664,-1.9664,-1.9664,-1.9664,-1.9664,-1.9664,0.0,-1.9664,-1.9664,-1.9664,-1.9664,-1.9664,-1.9664,-1.9664,-1.9732,-1.9875,-2.0085,-2.0173,-2.0275,-2.0417,-2.0417,-2.0471,-2.0539,-2.0539,-2.0539,-2.0539,-2.0539,-2.0539,-2.0539,-2.0539,-2.0539,-2.0539,-2.0539,-2.0539,-2.0539,-1.8389,-1.8389,-1.8423,-1.8586,-1.8599,-1.8654,-1.8796,-1.883,-1.8871,-1.9006,-1.9027,-1.9061,-1.9183,-1.9203,-1.9203,-1.9203,-1.8972,-1.8884,-1.9006,-1.9027,-1.9081,-1.9203,-1.9203,-1.9203,-1.9203,-1.9203,-1.9203,-1.9203,-1.9203,-1.9203,-1.9203,-1.9203,-1.9217,-1.9237,-1.9237,-1.9257,-1.9271,-1.9413,-1.9468,-1.9481,-1.961,-1.9664,-1.9664,-1.9664,-1.9664,-1.9664,-1.9664,-1.9664,-1.9664,-1.9664,-1.9664,-1.9664,-1.9664,-1.9664,-1.9664,-1.9664,-1.9664,-1.9664,-1.9664,-1.9664,-1.9664,-1.9664,-1.9664,-1.9664,-1.9664,-1.9664,-1.9664,-1.9664,-1.9664,-1.9664,-1.9664,-1.9664,-1.9664,-1.9664,-1.9664,-1.9664,-1.9664,0.0,-1.9664,-1.9664,-1.9664,-1.9664,-1.9664,-1.9664,-1.9664,-1.9664,-1.9664,-1.9664,0.0,-1.9664,-1.9678,-1.9698,-1.9678,-1.9678,-1.9698,-1.9854,-2.0064,-2.0329,-2.0349,-2.0417,-2.0539,-2.0539,-2.0539,-2.0539,-2.0539,-2.0539,-2.0539,-2.0539,-2.0539,-2.0539,-2.0539,-2.0539,-2.0539,-2.0539,-2.0539,-2.0539,-1.8674,-1.8694,-1.8742,-1.8884,-1.8918,-1.8972,-1.9115,-1.9128,-1.9149,-1.9169,-1.9169,-1.9183,-1.9203,-1.9203,-1.9203,-1.9203,-1.9169,-1.9149,-1.9169,-1.9169,-1.9183,-1.9203,-1.9203,-1.9203,-1.9203,-1.9203,-1.9203,-1.9203,-1.9203,-1.9203,-1.9203,-1.9203,-1.9271,-1.9393,-1.9393,-1.9468,-1.959,-1.961,-1.9624,-1.9624,-1.9644,-1.9664,-1.9664,-1.9664,-1.9664,-1.9664,-1.9664,-1.9664,-1.9664,-1.9664,-1.9664,-1.9664,-1.9664,-1.9664,-1.9664,-1.9664,-1.9664,-1.9664,-1.9664,-1.9664,-1.9664,-1.9664,-1.9664,-1.9664,-1.9664,-1.9664,-1.9664,-1.9664,-1.9664,-1.9664,-1.9664,-1.9664,-1.9664,-1.9664,-1.9664,-1.9664,-1.9664,0.0,-1.9664,-1.9664,-1.9664,-1.9664,-1.9664,-1.9664,-1.9664,-1.9664,-1.9664,-1.9664,-1.9664,-1.9664,-1.9712,-1.9841,-1.9732,-1.9712,-1.9841,-2.0119,-2.0275,-2.0329,-2.0451,-2.0526,-2.0539,-2.0539,-2.0539,-2.0539,-2.0539,-2.0539,-2.0539,-2.0539,-2.0539,-2.0539,-2.0539,-2.0539,-2.0539,-2.0539,-2.0539,-2.056,-1.8972,-1.8993,-1.9027,-1.9094,-1.9094,-1.9128,-1.9183,-1.9203,-1.9237,-1.9305,-1.9325,-1.9359,-1.9434,-1.9447,-1.9447,-1.9447,-1.9447,-1.9447,-1.9447,-1.9379,-1.9359,-1.9447,-1.9447,-1.9447,-1.9447,-1.9447,-1.9447,-1.9447,-1.9447,-1.9447,-1.9447,-1.9447,-1.9488,-1.9556,-1.9556,-1.959,-1.9664,-1.9664,-1.9664,-1.9664,-1.9664,-1.9664,-1.9664,-1.9664,-1.9664,-1.9664,-1.9664,-1.9664,-1.9664,-1.9664,-1.9664,-1.9664,-1.9664,-1.9664,-1.9664,-1.9664,-1.9664,-1.9664,-1.9664,-1.9664,-1.9664,-1.9664,-1.9664,-1.9664,-1.9664,-1.9664,-1.9664,-1.9664,-1.9664,-1.9664,-1.9664,-1.9664,-1.9664,-1.9664,-1.9664,0.0,0.0,-1.9664,-1.9664,-1.9664,-1.9664,-1.9664,-1.9664,-1.9664,-1.9664,-1.9664,-1.9664,-1.9698,-1.9766,-1.9766,-1.9841,-1.9997,-1.9929,-1.9976,-2.0119,-2.0261,-2.0363,-2.0451,-2.0505,-2.0539,-2.0539,-2.0539,-2.0539,-2.0539,-2.0539,-2.0539,-2.0539,-2.0539,-2.0539,-2.0539,-2.0539,-2.0594,-2.0668,-2.0668,-2.0716,-2.0804,-1.9183,-1.9203,-1.9217,-1.9257,-1.9257,-1.9271,-1.9305,-1.9305,-1.9345,-1.9468,-1.9481,-1.9535,-1.9644,-1.9664,-1.9664,-1.9664,-1.9664,-1.9664,-1.9664,-1.9556,-1.9535,-1.9664,-1.9664,-1.9664,-1.9664,-1.9664,-1.9664,-1.9664,-1.9664,-1.9664,-1.9664,-1.9664,-1.9664,-1.9664,-1.9664,-1.9664,-1.9664,-1.9664,-1.9664,-1.9664,-1.9664,-1.9664,-1.9664,-1.9664,-1.9664,-1.9664,-1.9664,-1.9664,-1.9664,-1.9664,-1.9664,-1.9664,-1.9664,-1.9664,-1.9664,-1.9664,-1.9664,-1.9664,-1.9664,-1.9664,-1.9664,-1.9664,-1.9664,-1.9664,-1.9664,-1.9664,-1.9664,-1.9664,-1.9664,-1.9664,-1.9664,-1.9664,-1.9664,-1.9664,0.0,0.0,0.0,-1.9664,-1.9664,-1.9664,-1.9664,-1.9664,-1.9664,-1.9664,-1.9678,-1.9712,-1.9712,-1.9766,-1.9922,-1.9929,-1.9997,-2.0153,-2.0153,-2.0207,-2.0329,-2.0363,-2.0438,-2.0539,-2.0539,-2.0539,-2.0539,-2.0539,-2.0539,-2.0539,-2.0539,-2.0539,-2.0539,-2.0539,-2.056,-2.0594,-2.0594,-2.0682,-2.0824,-2.0824,-2.0892,-2.1001,-1.9203,-1.9203,-1.9257,-1.9393,-1.9413,-1.9468,-1.961,-1.9624,-1.9624,-1.9644,-1.9644,-1.9644,-1.9664,-1.9664,-1.9664,-1.9664,-1.9664,-1.9664,-1.9664,-1.9644,-1.9644,-1.9664,-1.9664,-1.9664,-1.9664,-1.9664,-1.9664,-1.9664,-1.9664,-1.9664,-1.9664,-1.9664,-1.9664,-1.9664,-1.9664,-1.9664,-1.9664,-1.9664,-1.9664,-1.9664,-1.9664,-1.9664,-1.9664,-1.9664,-1.9664,-1.9664,-1.9664,-1.9664,-1.9664,-1.9664,-1.9664,-1.9664,-1.9664,-1.9664,-1.9664,-1.9664,-1.9664,-1.9664,-1.9664,-1.9664,-1.9664,-1.9664,-1.9664,-1.9664,-1.9664,-1.9664,-1.9664,-1.9664,-1.9664,-1.9664,-1.9664,-1.9664,-1.9664,-1.9664,0.0,0.0,-1.9664,-1.9664,-1.9664,-1.9664,-1.9664,-1.9664,-1.9664,-1.9664,-1.9712,-1.9854,-1.9854,-1.9922,-2.0085,-2.0085,-2.0153,-2.0309,-2.0315,-2.0315,-2.0329,-2.0451,-2.0526,-2.0539,-2.0539,-2.0539,-2.0539,-2.0539,-2.0539,-2.0539,-2.0539,-2.0539,-2.0539,-2.0539,-2.0627,-2.0756,-2.0756,-2.0845,-2.098,-2.098,-2.098,-2.1021,-1.9468,-1.9488,-1.9501,-1.9556,-1.9576,-1.959,-1.9644,-1.9664,-1.9664,-1.9664,-1.9664,-1.9664,-1.9664,-1.9664,-1.9664,-1.9664,-1.9664,-1.9664,-1.9664,-1.9664,-1.9664,-1.9664,-1.9664,-1.9664,-1.9664,-1.9664,-1.9664,-1.9664,-1.9664,-1.9664,-1.9664,-1.9664,-1.9664,-1.9664,-1.9664,-1.9664,-1.9664,-1.9664,-1.9664,-1.9664,-1.9664,-1.9664,-1.9664,-1.9664,-1.9664,-1.9664,-1.9664,-1.9664,-1.9664,-1.9664,-1.9664,-1.9664,-1.9664,-1.9664,-1.9664,-1.9664,-1.9664,-1.9664,-1.9664,-1.9664,-1.9664,-1.9664,-1.9664,-1.9664,-1.9664,-1.9664,-1.9664,-1.9664,-1.9664,-1.9664,-1.9664,-1.9664,-1.9664,-1.9664,0.0,-1.9664,-1.9664,-1.9664,-1.9664,-1.9664,-1.9732,-1.9786,-1.9786,-1.9875,-1.9963,-2.001,-2.001,-2.0085,-2.0241,-2.0329,-2.0397,-2.0451,-2.0451,-2.0451,-2.0451,-2.0505,-2.0539,-2.0539,-2.0539,-2.0539,-2.0539,-2.0539,-2.0539,-2.0539,-2.0648,-2.0682,-2.0682,-2.079,-2.0858,-2.0912,-2.0912,-2.1001,-2.1123,-2.1123,-2.1197,-2.1279,-1.9644,-1.9664,-1.9664,-1.9664,-1.9664,-1.9664,-1.9664,-1.9664,-1.9664,-1.9664,-1.9664,-1.9664,-1.9664,-1.9664,-1.9664,-1.9664,-1.9664,-1.9664,-1.9664,-1.9664,-1.9664,-1.9664,-1.9664,-1.9664,-1.9664,-1.9664,-1.9664,-1.9664,-1.9664,-1.9664,-1.9664,-1.9664,-1.9664,-1.9664,-1.9664,-1.9664,-1.9664,-1.9664,-1.9664,-1.9664,-1.9664,-1.9664,-1.9664,-1.9664,-1.9664,-1.9664,-1.9664,-1.9664,-1.9664,-1.9664,-1.9664,-1.9664,-1.9664,-1.9664,-1.9664,-1.9664,-1.9664,-1.9664,-1.9664,-1.9698,-1.9712,-1.9678,-1.9664,-1.9664,-1.9664,-1.9664,-1.9664,-1.9664,-1.9664,-1.9664,-1.9664,-1.9698,-1.9732,-1.9732,-1.9766,-1.98,-1.98,-1.98,-1.98,-1.98,-1.9888,-1.9942,-1.9942,-2.0031,-2.0119,-2.0173,-2.0173,-2.0241,-2.0383,-2.0485,-2.0539,-2.0539,-2.0539,-2.0539,-2.0539,-2.0539,-2.0539,-2.0539,-2.0539,-2.0539,-2.0539,-2.0594,-2.0614,-2.0627,-2.077,-2.0845,-2.0858,-2.0967,-2.1021,-2.1068,-2.1068,-2.1157,-2.1279,-2.1279,-2.1353,-2.1441,-1.9664,-1.9664,-1.9664,-1.9664,-1.9664,-1.9664,-1.9664,-1.9664,-1.9664,-1.9664,-1.9664,-1.9664,-1.9664,-1.9664,-1.9664,-1.9664,-1.9664,-1.9664,-1.9664,-1.9664,-1.9664,-1.9664,-1.9664,-1.9664,-1.9664,-1.9664,-1.9664,-1.9664,-1.9664,-1.9664,-1.9664,-1.9664,-1.9664,-1.9664,-1.9664,-1.9664,-1.9664,-1.9664,-1.9664,-1.9664,-1.9664,-1.9664,-1.9664,-1.9664,-1.9664,-1.9664,-1.9664,-1.9664,-1.9664,-1.9664,-1.9664,-1.9664,-1.9664,-1.9664,-1.9664,-1.9664,-1.9664,-1.9664,-1.9664,-1.9766,-1.9841,-1.9698,-1.9664,-1.9664,-1.9664,-1.9664,-1.9664,-1.9664,-1.9664,-1.9664,-1.9664,-1.9786,-1.9875,-1.9875,-1.9997,-2.0098,-2.0098,-2.0098,-2.0098,-2.0098,-2.0098,-2.0098,-2.0098,-2.0098,-2.0173,-2.0315,-2.0329,-2.0397,-2.0539,-2.0539,-2.0539,-2.0539,-2.0539,-2.0539,-2.0539,-2.0539,-2.0539,-2.0539,-2.0539,-2.0539,-2.0539,-2.0702,-2.077,-2.079,-2.0933,-2.1001,-2.1001,-2.1001,-2.1089,-2.1211,-2.1211,-2.1299,-2.1441,-2.1441,-2.1441,-2.1441,-1.9664,-1.9664,-1.9664,-1.9664,-1.9664,-1.9664,-1.9664,-1.9664,-1.9664,-1.9664,-1.9664,-1.9664,-1.9664,-1.9664,-1.9664,-1.9664,-1.9664,-1.9664,-1.9664,-1.9664,-1.9664,-1.9664,-1.9664,-1.9664,-1.9664,-1.9664,-1.9664,-1.9664,-1.9664,-1.9664,-1.9664,-1.9664,-1.9664,-1.9664,-1.9664,-1.9664,-1.9664,-1.9664,-1.9664,-1.9664,-1.9664,-1.9664,-1.9664,-1.9664,-1.9664,-1.9664,-1.9664,-1.9664,-1.9678,-1.9786,-1.98,-1.982,-1.9942,-1.9976,-1.9976,-1.9976,-1.9976,-1.9976,-1.9976,-1.9997,-1.9997,-1.9854,-1.9888,-1.9976,-1.9976,-1.9976,-1.9976,-1.9976,-1.9976,-1.9976,-1.9976,-2.001,-2.0031,-2.0031,-2.0064,-2.0098,-2.0098,-2.0098,-2.0098,-2.0098,-2.0187,-2.0261,-2.0261,-2.0349,-2.0438,-2.0471,-2.0471,-2.0485,-2.0539,-2.0539,-2.0539,-2.0539,-2.0539,-2.0594,-2.0702,-2.0594,-2.0594,-2.0702,-2.0702,-2.0756,-2.0858,-2.0912,-2.0933,-2.0946,-2.1089,-2.1143,-2.1157,-2.1265,-2.1333,-2.1367,-2.1367,-2.1408,-2.1441,-2.1441,-2.1441,-2.1441,-1.9664,-1.9664,-1.9664,-1.9664,-1.9664,-1.9664,-1.9664,-1.9664,-1.9664,-1.9664,-1.9664,-1.9664,-1.9664,-1.9664,-1.9664,-1.9664,-1.9664,-1.9664,-1.9664,-1.9664,-1.9664,-1.9664,-1.9664,-1.9664,-1.9664,-1.9664,-1.9664,-1.9664,-1.9664,-1.9664,-1.9664,-1.9664,-1.9664,-1.9664,-1.9664,-1.9664,-1.9664,-1.9664,-1.9664,-1.9664,-1.9664,-1.9664,-1.9664,-1.9732,-1.9752,-1.9752,-1.982,-1.9841,-1.9854,-1.9942,-1.9963,-1.9976,-2.0064,-2.0098,-2.0098,-2.0098,-2.0098,-2.0098,-2.0098,-2.0153,-2.0173,-2.0085,-2.0085,-2.0098,-2.0098,-2.0098,-2.0098,-2.0098,-2.0098,-2.0098,-2.0098,-2.0153,-2.0187,-2.0187,-2.0241,-2.0275,-2.0275,-2.0275,-2.0275,-2.0275,-2.0363,-2.0417,-2.0417,-2.0485,-2.0539,-2.0539,-2.0539,-2.0539,-2.0539,-2.0539,-2.0573,-2.0627,-2.0627,-2.0702,-2.0858,-2.077,-2.077,-2.0858,-2.0858,-2.0912,-2.1001,-2.1055,-2.1089,-2.1089,-2.1245,-2.1299,-2.1319,-2.1408,-2.1441,-2.1441,-2.1441,-2.1441,-2.1441,-2.1441,-2.1441,-2.1441,-1.9664,-1.9664,-1.9664,-1.9664,-1.9664,-1.9664,-1.9664,-1.9664,-1.9664,-1.9664,-1.9664,-1.9664,-1.9664,-1.9664,-1.9664,-1.9664,-1.9664,-1.9664,-1.9664,-1.9664,-1.9664,-1.9664,-1.9664,-1.9664,-1.9664,-1.9664,-1.9664,-1.9664,-1.9664,-1.9664,-1.9664,-1.9664,-1.9664,-1.9664,-1.9664,-1.9664,-1.9664,-1.9678,-1.9678,-1.9678,-1.9698,-1.9698,-1.9712,-1.9841,-1.9888,-1.9908,-2.0051,-2.0098,-2.0098,-2.0119,-2.0139,-2.0139,-2.0139,-2.0139,-2.0139,-2.0139,-2.0139,-2.0139,-2.0139,-2.0241,-2.0349,-2.0349,-2.0241,-2.0139,-2.0139,-2.0139,-2.0139,-2.0139,-2.0139,-2.0139,-2.0139,-2.0261,-2.0349,-2.0349,-2.0451,-2.0539,-2.0539,-2.0539,-2.0539,-2.0539,-2.0539,-2.0539,-2.0539,-2.0539,-2.0539,-2.0539,-2.0539,-2.0539,-2.056,-2.056,-2.0627,-2.079,-2.079,-2.0858,-2.1021,-2.1021,-2.1021,-2.1021,-2.1021,-2.1021,-2.1034,-2.1177,-2.1231,-2.1245,-2.1387,-2.1441,-2.1441,-2.1441,-2.1441,-2.1441,-2.1441,-2.1441,-2.1441,-2.1441,-2.1441,-2.1441,-1.9664,-1.9664,-1.9664,-1.9664,-1.9664,-1.9664,-1.9664,-1.9664,-1.9664,-1.9664,-1.9664,-1.9664,-1.9664,-1.9664,-1.9664,-1.9664,-1.9664,-1.9664,-1.9664,-1.9664,-1.9664,-1.9664,-1.9664,-1.9664,-1.9664,-1.9664,-1.9664,-1.9664,-1.9664,-1.9664,-1.9664,-1.9664,-1.9664,-1.9664,-1.9664,-1.9664,-1.9664,-1.9786,-1.982,-1.9841,-1.9963,-2.001,-2.001,-2.0051,-2.0051,-2.0051,-2.0085,-2.0098,-2.0119,-2.0241,-2.0349,-2.0451,-2.0451,-2.0451,-2.0451,-2.0451,-2.0451,-2.0451,-2.0451,-2.0471,-2.0485,-2.0485,-2.0471,-2.0451,-2.0451,-2.0451,-2.0451,-2.0451,-2.0451,-2.0451,-2.0451,-2.0471,-2.0485,-2.0485,-2.0526,-2.0539,-2.0539,-2.0539,-2.0539,-2.0539,-2.0539,-2.0539,-2.0539,-2.0539,-2.0539,-2.0539,-2.0539,-2.0594,-2.0716,-2.0716,-2.079,-2.0946,-2.0946,-2.1021,-2.1157,-2.1157,-2.1157,-2.1157,-2.1157,-2.1231,-2.1353,-2.1367,-2.1387,-2.1387,-2.1421,-2.1441,-2.1441,-2.1441,-2.1441,-2.1441,-2.1441,-2.1441,-2.1441,-2.1441,-2.1441,-2.1441,-1.9664,-1.9664,-1.9664,-1.9664,-1.9664,-1.9664,-1.9664,-1.9664,-1.9664,-1.9664,-1.9664,-1.9664,-1.9664,-1.9664,-1.9664,-1.9664,-1.9664,-1.9698,-1.9752,-1.9766,-1.98,-1.9875,-1.9875,-1.9875,-1.9875,-1.9875,-1.98,-1.9664,-1.9732,-1.9766,-1.9766,-1.9841,-1.9875,-1.9875,-1.9875,-1.9875,-1.9875,-1.9942,-1.9976,-1.9997,-2.0064,-2.0098,-2.0098,-2.0187,-2.0207,-2.0227,-2.0295,-2.0315,-2.0329,-2.0397,-2.0485,-2.0539,-2.0539,-2.0539,-2.0539,-2.0539,-2.0539,-2.0539,-2.0539,-2.0539,-2.0539,-2.0539,-2.0539,-2.0539,-2.0539,-2.0539,-2.0539,-2.0539,-2.0539,-2.0539,-2.0539,-2.0539,-2.0539,-2.0539,-2.0539,-2.0539,-2.0539,-2.0539,-2.0539,-2.0539,-2.0539,-2.0539,-2.0539,-2.0539,-2.0573,-2.0648,-2.0648,-2.0716,-2.0878,-2.0878,-2.0946,-2.1089,-2.1109,-2.1177,-2.1319,-2.1319,-2.1319,-2.1319,-2.1319,-2.1367,-2.1441,-2.1441,-2.1441,-2.1441,-2.1441,-2.1441,-2.1441,-2.1441,-2.1441,-2.1441,-2.1441,-2.1441,-2.1441,-2.1441,-2.1441,-2.1441,-1.9664,-1.9664,-1.9664,-1.9664,-1.9664,-1.9664,-1.9664,-1.9664,-1.9664,-1.9698,-1.9698,-1.9712,-1.9732,-1.9732,-1.9732,-1.9732,-1.9732,-1.9786,-1.9908,-1.9908,-1.9963,-2.0098,-2.0098,-2.0098,-2.0098,-2.0098,-1.9976,-1.9732,-1.9854,-1.9908,-1.9908,-2.0051,-2.0098,-2.0098,-2.0098,-2.0098,-2.0098,-2.0139,-2.0139,-2.0139,-2.0173,-2.0173,-2.0187,-2.0315,-2.0363,-2.0383,-2.0505,-2.0539,-2.0539,-2.0539,-2.0539,-2.0539,-2.0539,-2.0539,-2.0539,-2.0539,-2.0539,-2.0539,-2.0539,-2.0539,-2.0539,-2.0539,-2.0539,-2.0539,-2.0539,-2.0539,-2.0539,-2.0539,-2.0539,-2.0539,-2.0539,-2.0539,-2.0539,-2.0539,-2.0539,-2.0539,-2.0539,-2.0539,-2.0539,-2.0539,-2.0539,-2.056,-2.0573,-2.0573,-2.0648,-2.0804,-2.0811,-2.0878,-2.1034,-2.1034,-2.1109,-2.1245,-2.1245,-2.1319,-2.1441,-2.1441,-2.1441,-2.1441,-2.1441,-2.1441,-2.1441,-2.1441,-2.1441,-2.1441,-2.1441,-2.1441,-2.1441,-2.1441,-2.1441,-2.1441,-2.1441,-2.1441,-2.1441,-2.1441,-2.1441,-2.1441,-1.9664,-1.9664,-1.9664,-1.9664,-1.9664,-1.9664,-1.9664,-1.9664,-1.9698,-1.982,-1.9841,-1.9888,-2.0031,-2.0051,-2.0051,-2.0051,-2.0051,-2.0051,-2.0064,-2.0064,-2.0085,-2.0098,-2.0098,-2.0098,-2.0098,-2.0098,-2.0085,-2.0051,-2.0064,-2.0064,-2.0064,-2.0085,-2.0098,-2.0098,-2.0098,-2.0098,-2.0098,-2.0241,-2.0295,-2.0309,-2.0438,-2.0485,-2.0485,-2.0505,-2.0505,-2.0526,-2.0539,-2.0539,-2.0539,-2.0539,-2.0539,-2.0539,-2.0539,-2.0539,-2.0539,-2.0539,-2.0539,-2.0539,-2.0539,-2.0539,-2.0539,-2.0539,-2.0539,-2.0539,-2.0539,-2.0539,-2.0539,-2.0539,-2.0539,-2.0539,-2.0539,-2.0539,-2.0539,-2.0539,-2.0539,-2.0539,-2.0539,-2.0539,-2.0539,-2.0539,-2.0539,-2.0594,-2.0736,-2.0736,-2.0804,-2.0967,-2.0967,-2.1034,-2.1177,-2.1177,-2.1245,-2.1408,-2.1408,-2.1421,-2.1441,-2.1441,-2.1441,-2.1441,-2.1441,-2.1441,-2.1441,-2.1441,-2.1441,-2.1441,-2.1441,-2.1441,-2.1441,-2.1441,-2.1441,-2.1441,-2.1441,-2.1441,-2.1441,-2.1441,-2.1441,-2.1441,-1.9664,-1.9732,-1.9786,-1.9786,-1.9854,-1.9908,-1.9908,-1.9908,-1.9922,-1.9997,-1.9997,-2.0031,-2.0098,-2.0098,-2.0098,-2.0098,-2.0098,-2.0139,-2.0227,-2.0227,-2.0261,-2.0349,-2.0349,-2.0349,-2.0349,-2.0349,-2.0349,-2.0349,-2.0261,-2.0227,-2.0227,-2.0315,-2.0349,-2.0349,-2.0349,-2.0349,-2.0349,-2.0417,-2.0451,-2.0451,-2.0526,-2.0539,-2.0539,-2.0539,-2.0539,-2.0539,-2.0539,-2.0539,-2.0539,-2.0539,-2.0539,-2.0539,-2.0539,-2.0539,-2.0539,-2.0539,-2.0539,-2.0539,-2.0539,-2.0539,-2.0539,-2.0539,-2.0539,-2.0539,-2.0539,-2.0539,-2.0539,-2.0539,-2.0539,-2.0539,-2.0539,-2.0539,-2.0539,-2.0539,-2.0539,-2.0539,-2.0539,-2.0539,-2.0573,-2.0668,-2.075,-2.0824,-2.0892,-2.0892,-2.0967,-2.1109,-2.1123,-2.1177,-2.1333,-2.1333,-2.1367,-2.1441,-2.1441,-2.1441,-2.1441,-2.1441,-2.1441,-2.1441,-2.1441,-2.1441,-2.1441,-2.1441,-2.1441,-2.1441,-2.1441,-2.1441,-2.1441,-2.1441,-2.1441,-2.1441,-2.1441,-2.1441,-2.1441,-2.1441,-2.1441,-2.1441]}]]